[[{"header":{"parameterUnit":"m.s-1","parameterCategory":1,"la1":31.0,"la2":29.5877,"lo1":-88.7671,"lo2":-86.6584,"dy":0.0162,"dx":0.0185,"nx":115,"ny":88,"refTime":"2026-04-18T00:00:00:Z","depth":0,"parameterNumber":2,"parameterNumberName":"U-component_of_WINDS"},"data":[0.0,0.0,0.0,0.0,0.0,0.0,0.0,0.0,0.0,0.0,0.0,0.0,0.0,0.0,0.0,0.0,0.0,0.0,0.0,0.0,0.0,0.0,0.0,0.0,0.0,0.0,0.0,0.0,0.0,0.0,0.0,0.0,0.0,0.0,0.0,0.0,0.0,0.0,0.0,0.0,0.0,0.0,0.0,0.0,0.0,0.0,0.0,0.0,0.0,0.0,0.0,0.0,0.0,0.0,0.0,0.0,0.0,0.0,0.0,0.0,0.0,0.0,0.0,0.0,0.0,0.0,0.0,0.0,0.0,0.0,0.0,0.0,0.0,0.0,0.0,0.0,0.0,0.0,0.0,0.0,0.0,0.0,0.0,0.0,0.0,0.0,0.0,0.0,0.0,0.0,0.0,0.0,0.0,0.0,0.0,0.0,0.0,0.0,0.0,0.0,0.0,0.0,0.0,0.0,0.0,0.0,0.0,0.0,0.0,0.0,0.0,0.0,0.0,0.0,0.0,0.0,0.0,0.0,0.0,0.0,0.0,0.0,0.0,0.0,0.0,0.0,0.0,0.0,0.0,0.0,0.0,0.0,0.0,0.0,0.0,0.0,0.0,0.0,0.0,0.0,0.0,0.0,0.0,0.0,0.0,0.0,0.0,0.0,0.0,0.0,0.0,0.0,0.0,0.0,0.0,0.0,0.0,0.0,0.0,0.0,0.0,0.0,0.0,0.0,0.0,0.0,0.0,0.0,0.0,0.0,0.0,0.0,0.0,0.0,0.0,0.0,0.0,0.0,0.0,0.0,0.0,0.0,0.0,0.0,0.0,0.0,0.0,0.0,0.0,0.0,0.0,0.0,0.0,0.0,0.0,0.0,0.0,0.0,0.0,0.0,0.0,0.0,0.0,0.0,0.0,0.0,0.0,0.0,0.0,0.0,0.0,0.0,0.0,0.0,0.0,0.0,0.0,0.0,0.0,0.0,0.0,0.0,0.0,0.0,0.0,0.0,0.0,0.0,0.0,0.0,0.0,0.0,0.0,0.0,0.0,0.0,0.0,0.0,0.0,0.0,0.0,0.0,0.0,0.0,0.0,0.0,0.0,0.0,0.0,0.0,0.0,0.0,0.0,0.0,0.0,0.0,0.0,0.0,0.0,0.0,0.0,0.0,0.0,0.0,0.0,0.0,0.0,0.0,0.0,0.0,0.0,0.0,0.0,0.0,0.0,0.0,0.0,0.0,0.0,0.0,0.0,0.0,0.0,0.0,0.0,0.0,0.0,0.0,0.0,0.0,0.0,0.0,0.0,0.0,0.0,0.0,0.0,0.0,0.0,0.0,0.0,0.0,0.0,0.0,0.0,0.0,0.0,0.0,0.0,0.0,0.0,0.0,0.0,0.0,0.0,0.0,0.0,0.0,0.0,0.0,0.0,0.0,0.0,0.0,0.0,0.0,0.0,0.0,0.0,0.0,0.0,0.0,0.0,0.0,0.0,0.0,0.0,0.0,0.0,0.0,0.0,0.0,0.0,0.0,0.0,0.0,0.0,0.0,0.0,0.0,0.0,0.0,0.0,0.0,0.0,0.0,0.0,0.0,0.0,0.0,0.0,0.0,0.0,0.0,0.0,0.0,0.0,0.0,0.0,0.0,0.0,0.0,0.0,0.0,0.0,0.0,0.0,0.0,0.0,0.0,0.0,0.0,0.0,0.0,0.0,0.0,0.0,0.0,0.0,0.0,0.0,0.0,0.0,0.0,0.0,0.0,0.0,0.0,0.0,0.0,0.0,0.0,0.0,0.0,0.0,0.0,0.0,0.0,0.0,0.0,0.0,0.0,0.0,0.0,0.0,0.0,0.0,0.0,0.0,0.0,0.0,0.0,0.0,0.0,0.0,0.0,0.0,0.0,0.0,0.0,0.0,0.0,0.0,0.0,0.0,0.0,0.0,0.0,0.0,0.0,0.0,0.0,0.0,0.0,0.0,0.0,0.0,0.0,0.0,0.0,0.0,0.0,0.0,0.0,0.0,0.0,0.0,0.0,0.0,0.0,0.0,0.0,0.0,0.0,0.0,0.0,0.0,0.0,0.0,0.0,0.0,0.0,0.0,0.0,0.0,0.0,0.0,0.0,0.0,0.0,0.0,0.0,0.0,0.0,0.0,0.0,0.0,0.0,0.0,0.0,0.0,0.0,0.0,0.0,0.0,0.0,0.0,0.0,0.0,0.0,0.0,0.0,0.0,0.0,0.0,0.0,0.0,0.0,0.0,0.0,0.0,0.0,0.0,0.0,0.0,0.0,0.0,0.0,0.0,0.0,0.0,0.0,0.0,0.0,0.0,0.0,0.0,0.0,0.0,0.0,0.0,0.0,0.0,0.0,0.0,0.0,0.0,0.0,0.0,0.0,0.0,0.0,0.0,0.0,0.0,0.0,0.0,0.0,0.0,0.0,0.0,0.0,0.0,0.0,0.0,0.0,0.0,0.0,0.0,0.0,0.0,0.0,0.0,0.0,0.0,0.0,0.0,0.0,0.0,0.0,0.0,0.0,0.0,0.0,0.0,0.0,0.0,0.0,0.0,0.0,0.0,0.0,0.0,0.0,0.0,0.0,0.0,0.0,0.0,0.0,0.0,0.0,0.0,0.0,0.0,0.0,0.0,0.0,0.0,0.0,0.0,0.0,0.0,0.0,0.0,0.0,0.0,0.0,0.0,0.0,0.0,0.0,0.0,0.0,0.0,0.0,0.0,0.0,0.0,0.0,0.0,0.0,0.0,0.0,0.0,0.0,0.0,0.0,0.0,0.0,0.0,0.0,0.0,0.0,0.0,0.0,0.0,0.0,0.0,0.0,0.0,0.0,0.0,0.0,0.0,0.0,0.0,0.0,0.0,0.0,0.0,0.0,0.0,0.0,0.0,0.0,0.0,0.0,0.0,0.0,0.0,0.0,0.0,0.0,0.0,0.0,0.0,0.0,0.0,0.0,0.0,0.0,0.0,0.0,0.0,0.0,0.0,0.0,0.0,0.0,0.0,0.0,0.0,0.0,0.0,0.0,0.0,0.0,0.0,0.0,0.0,0.0,0.0,0.0,0.0,0.0,0.0,0.0,0.0,0.0,0.0,0.0,0.0,0.0,0.0,0.0,0.0,0.0,0.0,0.0,0.0,0.0,0.0,0.0,0.0,0.0,0.0,0.0,0.0,0.0,0.0,0.0,0.0,0.0,0.0,0.0,0.0,0.0,0.0,0.0,0.0,0.0,0.0,0.0,0.0,0.0,0.0,0.0,0.0,0.0,0.0,0.0,0.0,0.0,0.0,0.0,0.0,0.0,0.0,0.0,0.0,0.0,0.0,0.0,0.0,0.0,0.0,0.0,0.0,0.0,0.0,0.0,0.0,0.0,0.0,0.0,0.0,0.0,0.0,0.0,0.0,0.0,0.0,0.0,0.0,0.0,0.0,0.0,0.0,0.0,0.0,0.0,0.0,0.0,0.0,0.0,0.0,0.0,0.0,0.0,0.0,0.0,0.0,0.0,0.0,0.0,0.0,0.0,0.0,0.0,0.0,0.0,0.0,0.0,0.0,0.0,0.0,0.0,0.0,0.0,0.0,0.0,0.0,0.0,0.0,0.0,0.0,0.0,0.0,0.0,0.0,0.0,0.0,0.0,0.0,0.0,0.0,0.0,0.0,0.0,0.0,0.0,0.0,0.0,0.0,0.0,0.0,0.0,0.0,0.0,0.0,0.0,0.0,0.0,0.0,0.0,0.0,0.0,0.0,0.0,0.0,0.0,0.0,0.0,0.0,0.0,0.0,0.0,0.0,0.0,0.0,0.0,0.0,0.0,0.0,0.0,0.0,0.0,0.0,0.0,0.0,0.0,0.0,0.0,0.0,0.0,0.0,0.0,0.0,0.0,0.0,0.0,0.0,0.0,0.0,0.0,0.0,0.0,0.0,0.0,0.0,0.0,0.0,0.0,0.0,0.0,0.0,0.0,0.0,0.0,0.0,0.0,0.0,0.0,0.0,0.0,0.0,0.0,0.0,0.0,0.0,0.0,0.0,0.0,0.0,0.0,0.0,0.0,0.0,0.0,0.0,0.0,0.0,0.0,0.0,0.0,0.0,0.0,0.0,0.0,0.0,0.0,0.0,0.0,0.0,0.0,0.0,0.0,0.0,0.0,0.0,0.0,0.0,0.0,0.0,0.0,0.0,0.0,0.0,0.0,0.0,0.0,0.0,0.0,0.0,0.0,0.0,0.0,0.0,0.0,0.0,0.0,0.0,0.0,0.0,0.0,-4.127,0.0,0.0,0.0,0.0,0.0,0.0,0.0,0.0,0.0,0.0,0.0,0.0,0.0,0.0,0.0,0.0,0.0,0.0,0.0,0.0,0.0,0.0,0.0,0.0,0.0,0.0,0.0,0.0,0.0,0.0,0.0,0.0,0.0,0.0,0.0,0.0,0.0,0.0,0.0,0.0,0.0,0.0,0.0,0.0,0.0,0.0,0.0,0.0,0.0,0.0,0.0,0.0,0.0,0.0,0.0,0.0,0.0,0.0,0.0,0.0,0.0,0.0,0.0,0.0,0.0,0.0,0.0,0.0,0.0,0.0,0.0,0.0,0.0,0.0,0.0,0.0,0.0,0.0,0.0,0.0,0.0,0.0,0.0,0.0,0.0,0.0,0.0,0.0,0.0,0.0,0.0,0.0,0.0,0.0,0.0,0.0,0.0,0.0,0.0,0.0,0.0,0.0,0.0,0.0,0.0,0.0,0.0,0.0,0.0,0.0,-4.545,-4.5189,-4.4606,-4.3423,-4.1633,0.0,0.0,0.0,0.0,0.0,0.0,0.0,0.0,0.0,0.0,0.0,0.0,0.0,0.0,0.0,0.0,0.0,0.0,0.0,0.0,0.0,0.0,0.0,0.0,0.0,0.0,0.0,0.0,0.0,0.0,0.0,0.0,0.0,0.0,0.0,0.0,0.0,0.0,0.0,0.0,0.0,0.0,0.0,0.0,0.0,0.0,0.0,0.0,0.0,0.0,0.0,0.0,0.0,0.0,0.0,0.0,0.0,0.0,0.0,0.0,0.0,0.0,0.0,0.0,0.0,0.0,0.0,0.0,0.0,0.0,0.0,0.0,0.0,0.0,0.0,0.0,0.0,0.0,0.0,0.0,0.0,0.0,0.0,0.0,0.0,0.0,0.0,0.0,0.0,0.0,0.0,0.0,0.0,0.0,0.0,0.0,0.0,0.0,0.0,0.0,0.0,0.0,0.0,0.0,0.0,0.0,0.0,0.0,0.0,0.0,0.0,0.0,-4.5322,-4.4132,-4.179,0.0,0.0,0.0,0.0,0.0,0.0,0.0,0.0,0.0,0.0,0.0,0.0,0.0,0.0,0.0,0.0,0.0,0.0,0.0,0.0,0.0,0.0,0.0,0.0,0.0,0.0,0.0,0.0,0.0,0.0,0.0,0.0,0.0,0.0,0.0,0.0,0.0,0.0,0.0,0.0,0.0,0.0,0.0,0.0,0.0,0.0,0.0,0.0,0.0,0.0,0.0,0.0,0.0,0.0,0.0,0.0,0.0,0.0,0.0,0.0,0.0,0.0,0.0,0.0,0.0,0.0,0.0,0.0,0.0,0.0,0.0,0.0,0.0,0.0,0.0,0.0,0.0,0.0,0.0,0.0,0.0,0.0,0.0,0.0,0.0,0.0,0.0,0.0,0.0,0.0,0.0,0.0,0.0,0.0,0.0,0.0,0.0,0.0,0.0,0.0,0.0,0.0,0.0,0.0,0.0,0.0,0.0,0.0,0.0,0.0,-4.5995,-4.5852,-4.5763,0.0,-4.22,0.0,0.0,0.0,0.0,0.0,0.0,0.0,0.0,0.0,0.0,0.0,0.0,0.0,0.0,0.0,0.0,0.0,0.0,0.0,0.0,0.0,0.0,0.0,0.0,0.0,0.0,0.0,0.0,0.0,0.0,0.0,0.0,0.0,0.0,0.0,0.0,0.0,0.0,0.0,0.0,0.0,0.0,0.0,0.0,0.0,0.0,0.0,0.0,0.0,0.0,0.0,0.0,0.0,0.0,0.0,0.0,0.0,0.0,0.0,0.0,0.0,0.0,0.0,0.0,0.0,0.0,0.0,0.0,0.0,0.0,0.0,0.0,0.0,0.0,0.0,0.0,0.0,0.0,0.0,0.0,0.0,0.0,0.0,0.0,0.0,0.0,0.0,0.0,0.0,0.0,0.0,0.0,0.0,0.0,0.0,0.0,0.0,0.0,0.0,0.0,0.0,0.0,0.0,0.0,0.0,0.0,0.0,0.0,0.0,0.0,-4.5992,-4.6011,-4.4735,-4.3422,0.0,0.0,0.0,0.0,0.0,0.0,0.0,0.0,0.0,0.0,0.0,0.0,0.0,0.0,0.0,0.0,0.0,0.0,0.0,0.0,0.0,0.0,0.0,0.0,0.0,0.0,0.0,0.0,0.0,0.0,0.0,0.0,0.0,0.0,0.0,0.0,0.0,0.0,0.0,0.0,0.0,0.0,0.0,0.0,0.0,0.0,0.0,0.0,0.0,0.0,0.0,0.0,0.0,0.0,0.0,0.0,0.0,0.0,0.0,0.0,0.0,0.0,0.0,0.0,0.0,0.0,0.0,0.0,0.0,0.0,0.0,0.0,0.0,0.0,0.0,0.0,0.0,0.0,0.0,0.0,0.0,0.0,0.0,0.0,0.0,0.0,0.0,0.0,0.0,0.0,0.0,0.0,0.0,0.0,0.0,0.0,0.0,0.0,0.0,0.0,0.0,0.0,0.0,0.0,0.0,0.0,0.0,0.0,0.0,0.0,-4.6051,-4.5994,-4.5986,-4.4503,-4.3158,-4.2124,0.0,0.0,0.0,0.0,0.0,0.0,0.0,0.0,0.0,0.0,0.0,0.0,0.0,0.0,0.0,0.0,0.0,0.0,0.0,0.0,0.0,0.0,0.0,0.0,0.0,0.0,0.0,0.0,0.0,0.0,0.0,0.0,0.0,0.0,0.0,0.0,0.0,0.0,0.0,0.0,0.0,0.0,0.0,0.0,0.0,0.0,0.0,0.0,0.0,0.0,0.0,0.0,0.0,0.0,0.0,0.0,0.0,0.0,0.0,0.0,0.0,0.0,0.0,0.0,0.0,0.0,0.0,0.0,0.0,0.0,0.0,0.0,0.0,0.0,0.0,0.0,0.0,0.0,0.0,0.0,0.0,0.0,0.0,0.0,0.0,0.0,0.0,0.0,0.0,0.0,0.0,0.0,0.0,0.0,0.0,0.0,0.0,0.0,0.0,0.0,0.0,0.0,0.0,0.0,0.0,0.0,0.0,0.0,-4.6101,-4.6093,-4.6015,-4.5909,-4.5817,-4.4613,0.0,0.0,0.0,0.0,0.0,0.0,0.0,0.0,0.0,0.0,0.0,0.0,0.0,0.0,0.0,0.0,0.0,0.0,0.0,0.0,0.0,0.0,0.0,0.0,0.0,0.0,0.0,0.0,0.0,0.0,0.0,0.0,0.0,0.0,0.0,0.0,0.0,0.0,0.0,0.0,0.0,0.0,0.0,0.0,0.0,0.0,0.0,0.0,0.0,0.0,0.0,0.0,0.0,0.0,0.0,0.0,0.0,0.0,0.0,0.0,0.0,0.0,0.0,0.0,0.0,0.0,0.0,0.0,0.0,0.0,0.0,0.0,0.0,0.0,0.0,0.0,0.0,0.0,0.0,0.0,0.0,0.0,0.0,0.0,0.0,0.0,0.0,0.0,0.0,0.0,0.0,0.0,0.0,0.0,0.0,0.0,0.0,0.0,0.0,0.0,0.0,0.0,0.0,0.0,0.0,0.0,0.0,0.0,0.0,-4.606,-4.6108,-4.6091,-4.5983,-4.4911,-4.364,0.0,0.0,0.0,0.0,0.0,0.0,0.0,0.0,0.0,0.0,0.0,0.0,0.0,0.0,0.0,0.0,0.0,0.0,0.0,0.0,0.0,0.0,0.0,0.0,0.0,0.0,0.0,0.0,0.0,0.0,0.0,0.0,0.0,0.0,0.0,0.0,0.0,0.0,0.0,0.0,0.0,0.0,0.0,0.0,0.0,0.0,0.0,0.0,0.0,0.0,0.0,0.0,0.0,0.0,0.0,0.0,0.0,0.0,0.0,0.0,0.0,0.0,0.0,0.0,0.0,0.0,0.0,0.0,0.0,0.0,0.0,0.0,0.0,0.0,0.0,0.0,0.0,0.0,0.0,0.0,0.0,0.0,0.0,0.0,0.0,0.0,0.0,0.0,0.0,0.0,0.0,0.0,0.0,0.0,0.0,0.0,0.0,0.0,0.0,0.0,0.0,0.0,0.0,0.0,0.0,0.0,0.0,0.0,0.0,-4.6401,0.0,-4.6761,-4.6485,-4.5303,-4.3889,0.0,0.0,0.0,0.0,0.0,0.0,0.0,0.0,0.0,0.0,0.0,0.0,0.0,0.0,0.0,0.0,0.0,0.0,0.0,0.0,0.0,0.0,0.0,0.0,0.0,0.0,0.0,0.0,0.0,0.0,0.0,0.0,0.0,0.0,0.0,0.0,0.0,0.0,0.0,0.0,0.0,0.0,0.0,0.0,0.0,0.0,0.0,0.0,0.0,0.0,0.0,0.0,0.0,0.0,0.0,0.0,0.0,0.0,0.0,0.0,0.0,0.0,0.0,0.0,0.0,0.0,0.0,0.0,0.0,0.0,0.0,0.0,0.0,0.0,0.0,0.0,0.0,0.0,0.0,0.0,0.0,0.0,0.0,0.0,0.0,0.0,0.0,0.0,0.0,0.0,0.0,0.0,0.0,0.0,0.0,0.0,0.0,0.0,0.0,0.0,0.0,0.0,0.0,0.0,0.0,0.0,0.0,0.0,-4.5489,-4.7124,-4.7994,-4.804,-4.7446,-4.7154,-4.5601,0.0,0.0,0.0,0.0,0.0,0.0,0.0,0.0,0.0,0.0,0.0,0.0,0.0,0.0,0.0,0.0,0.0,0.0,0.0,0.0,0.0,0.0,0.0,0.0,0.0,0.0,0.0,0.0,0.0,0.0,0.0,0.0,0.0,0.0,0.0,0.0,0.0,0.0,0.0,0.0,0.0,0.0,0.0,0.0,0.0,0.0,0.0,0.0,0.0,0.0,0.0,0.0,0.0,0.0,0.0,0.0,0.0,0.0,0.0,0.0,0.0,0.0,0.0,0.0,0.0,0.0,0.0,0.0,0.0,0.0,0.0,0.0,0.0,0.0,0.0,0.0,0.0,0.0,0.0,0.0,0.0,0.0,0.0,0.0,0.0,0.0,0.0,0.0,0.0,0.0,0.0,0.0,0.0,0.0,0.0,0.0,0.0,0.0,0.0,0.0,0.0,0.0,0.0,0.0,0.0,0.0,0.0,0.0,0.0,-4.7315,-4.7602,-4.798,-4.8375,-4.7089,-4.5667,0.0,0.0,0.0,0.0,0.0,0.0,0.0,0.0,0.0,0.0,0.0,0.0,0.0,0.0,0.0,0.0,0.0,0.0,0.0,0.0,0.0,0.0,0.0,0.0,0.0,0.0,0.0,0.0,0.0,0.0,0.0,0.0,0.0,0.0,0.0,0.0,0.0,0.0,0.0,0.0,0.0,0.0,0.0,0.0,0.0,0.0,0.0,0.0,0.0,0.0,0.0,0.0,0.0,0.0,0.0,0.0,0.0,0.0,0.0,0.0,0.0,0.0,0.0,0.0,0.0,0.0,0.0,0.0,0.0,0.0,0.0,0.0,0.0,0.0,0.0,0.0,0.0,0.0,0.0,0.0,0.0,0.0,0.0,0.0,0.0,0.0,0.0,0.0,0.0,0.0,0.0,0.0,0.0,0.0,0.0,0.0,0.0,0.0,0.0,0.0,0.0,0.0,0.0,0.0,0.0,0.0,0.0,0.0,0.0,-4.8422,-4.8697,-4.914,-4.9824,-4.8254,-4.6646,-4.5035,0.0,0.0,0.0,0.0,0.0,0.0,0.0,0.0,0.0,0.0,0.0,0.0,0.0,0.0,0.0,0.0,0.0,0.0,0.0,0.0,0.0,0.0,0.0,0.0,0.0,0.0,0.0,0.0,0.0,0.0,0.0,0.0,0.0,0.0,0.0,0.0,0.0,0.0,0.0,0.0,0.0,0.0,0.0,0.0,0.0,0.0,0.0,0.0,0.0,0.0,0.0,0.0,0.0,0.0,0.0,0.0,0.0,0.0,0.0,0.0,0.0,0.0,0.0,0.0,0.0,0.0,0.0,0.0,0.0,0.0,0.0,0.0,0.0,0.0,0.0,0.0,0.0,0.0,0.0,0.0,0.0,0.0,0.0,0.0,0.0,0.0,0.0,0.0,0.0,0.0,0.0,0.0,0.0,0.0,0.0,0.0,0.0,0.0,0.0,0.0,0.0,0.0,0.0,0.0,0.0,0.0,0.0,0.0,-5.0332,-5.1016,-5.1408,-5.1504,-5.038,-4.8341,0.0,0.0,0.0,0.0,0.0,0.0,0.0,0.0,0.0,0.0,0.0,0.0,0.0,0.0,0.0,0.0,0.0,0.0,0.0,0.0,0.0,0.0,0.0,0.0,0.0,0.0,0.0,0.0,0.0,0.0,0.0,0.0,0.0,0.0,0.0,0.0,0.0,0.0,0.0,0.0,0.0,0.0,0.0,0.0,0.0,0.0,0.0,0.0,0.0,0.0,0.0,0.0,0.0,0.0,0.0,0.0,0.0,0.0,0.0,0.0,0.0,0.0,0.0,0.0,0.0,0.0,0.0,0.0,0.0,0.0,0.0,0.0,0.0,0.0,0.0,0.0,0.0,0.0,0.0,0.0,0.0,0.0,0.0,0.0,0.0,0.0,0.0,0.0,0.0,0.0,0.0,0.0,0.0,0.0,0.0,0.0,0.0,0.0,0.0,0.0,0.0,0.0,0.0,0.0,0.0,0.0,0.0,0.0,0.0,-5.1953,-5.285,-5.3242,-5.3134,-5.0991,-4.9097,0.0,0.0,0.0,0.0,0.0,0.0,0.0,0.0,0.0,0.0,0.0,0.0,0.0,0.0,0.0,0.0,0.0,0.0,0.0,0.0,0.0,0.0,0.0,0.0,0.0,0.0,0.0,0.0,0.0,0.0,0.0,0.0,0.0,0.0,0.0,0.0,0.0,0.0,0.0,0.0,0.0,0.0,0.0,0.0,0.0,0.0,0.0,0.0,0.0,0.0,0.0,0.0,0.0,0.0,0.0,0.0,0.0,0.0,0.0,0.0,0.0,0.0,0.0,0.0,0.0,0.0,0.0,0.0,0.0,0.0,0.0,0.0,0.0,0.0,0.0,0.0,0.0,0.0,0.0,0.0,0.0,0.0,0.0,0.0,0.0,0.0,0.0,0.0,0.0,0.0,0.0,0.0,0.0,0.0,0.0,0.0,0.0,0.0,0.0,0.0,0.0,0.0,0.0,0.0,0.0,0.0,0.0,0.0,-5.0416,-5.2148,-5.4019,-5.4949,-5.4831,-5.2258,-5.0125,0.0,0.0,0.0,0.0,0.0,0.0,0.0,0.0,0.0,0.0,0.0,0.0,0.0,0.0,0.0,0.0,0.0,0.0,0.0,0.0,0.0,0.0,0.0,0.0,0.0,0.0,0.0,0.0,0.0,0.0,0.0,0.0,0.0,0.0,0.0,0.0,0.0,0.0,0.0,0.0,0.0,0.0,0.0,0.0,0.0,0.0,0.0,0.0,0.0,0.0,0.0,0.0,0.0,0.0,0.0,0.0,0.0,0.0,0.0,0.0,0.0,0.0,0.0,0.0,0.0,0.0,0.0,0.0,0.0,0.0,0.0,0.0,0.0,0.0,0.0,0.0,0.0,0.0,0.0,0.0,0.0,0.0,0.0,0.0,0.0,0.0,0.0,0.0,0.0,0.0,0.0,0.0,0.0,0.0,0.0,0.0,0.0,0.0,0.0,0.0,0.0,0.0,0.0,0.0,0.0,0.0,0.0,0.0,-5.1307,-5.1794,-5.4795,-5.6305,-5.6103,-5.3623,-5.1106,0.0,0.0,0.0,0.0,0.0,0.0,0.0,0.0,0.0,0.0,0.0,0.0,0.0,0.0,0.0,0.0,0.0,0.0,0.0,0.0,0.0,0.0,0.0,0.0,0.0,0.0,0.0,0.0,0.0,0.0,0.0,0.0,0.0,0.0,0.0,0.0,0.0,0.0,0.0,0.0,0.0,0.0,0.0,0.0,0.0,0.0,0.0,0.0,0.0,0.0,0.0,0.0,0.0,0.0,0.0,0.0,0.0,0.0,0.0,0.0,0.0,0.0,0.0,0.0,0.0,0.0,0.0,0.0,0.0,0.0,0.0,0.0,0.0,0.0,0.0,0.0,0.0,0.0,0.0,0.0,0.0,0.0,0.0,0.0,0.0,0.0,0.0,0.0,0.0,0.0,0.0,0.0,0.0,0.0,0.0,0.0,0.0,0.0,0.0,0.0,0.0,0.0,0.0,0.0,0.0,0.0,0.0,0.0,-5.2118,-5.4121,-5.5623,-5.6249,-5.5954,-5.2886,-5.0628,0.0,0.0,0.0,0.0,0.0,0.0,0.0,0.0,0.0,0.0,0.0,0.0,0.0,0.0,0.0,0.0,0.0,0.0,0.0,0.0,0.0,0.0,0.0,0.0,0.0,0.0,0.0,0.0,0.0,0.0,0.0,0.0,0.0,0.0,0.0,0.0,0.0,0.0,0.0,0.0,0.0,0.0,0.0,0.0,0.0,0.0,0.0,0.0,-4.5823,0.0,0.0,0.0,0.0,0.0,0.0,0.0,0.0,0.0,0.0,0.0,0.0,0.0,0.0,0.0,0.0,0.0,0.0,0.0,0.0,0.0,0.0,0.0,0.0,0.0,0.0,0.0,0.0,0.0,0.0,0.0,0.0,0.0,0.0,0.0,0.0,0.0,0.0,0.0,0.0,0.0,0.0,0.0,0.0,0.0,0.0,0.0,0.0,0.0,0.0,0.0,0.0,0.0,0.0,0.0,0.0,0.0,0.0,0.0,-5.2078,-5.423,-5.551,-5.6083,-5.5807,-5.3165,-5.1039,0.0,0.0,0.0,0.0,0.0,0.0,0.0,0.0,0.0,0.0,0.0,0.0,0.0,0.0,0.0,0.0,0.0,0.0,0.0,0.0,0.0,0.0,0.0,0.0,0.0,0.0,0.0,0.0,0.0,0.0,0.0,0.0,0.0,0.0,0.0,0.0,0.0,0.0,0.0,0.0,0.0,0.0,0.0,0.0,0.0,0.0,0.0,0.0,0.0,0.0,0.0,0.0,0.0,0.0,0.0,0.0,0.0,0.0,0.0,0.0,0.0,0.0,0.0,0.0,0.0,0.0,0.0,0.0,0.0,0.0,0.0,0.0,0.0,0.0,0.0,0.0,0.0,0.0,0.0,0.0,0.0,0.0,0.0,0.0,0.0,0.0,0.0,0.0,0.0,0.0,0.0,0.0,0.0,0.0,0.0,0.0,0.0,0.0,0.0,0.0,0.0,0.0,0.0,0.0,0.0,0.0,0.0,-4.98,-5.187,-5.3877,-5.523,-5.588,-5.5846,-5.3878,-5.1781,-4.9669,0.0,0.0,0.0,0.0,0.0,0.0,0.0,0.0,0.0,0.0,0.0,0.0,0.0,0.0,0.0,0.0,0.0,0.0,0.0,0.0,0.0,0.0,0.0,0.0,0.0,0.0,0.0,0.0,0.0,0.0,0.0,0.0,0.0,0.0,0.0,0.0,0.0,0.0,-4.2767,-4.5609,0.0,0.0,0.0,0.0,0.0,0.0,0.0,0.0,-4.6308,0.0,0.0,0.0,0.0,0.0,0.0,0.0,0.0,0.0,0.0,0.0,0.0,0.0,0.0,0.0,0.0,0.0,0.0,0.0,0.0,0.0,0.0,0.0,0.0,0.0,0.0,0.0,0.0,0.0,0.0,0.0,0.0,0.0,0.0,0.0,0.0,0.0,0.0,0.0,0.0,0.0,0.0,0.0,0.0,0.0,0.0,0.0,0.0,0.0,0.0,0.0,0.0,0.0,0.0,0.0,0.0,-4.9189,-5.0336,-5.2345,-5.5258,-5.5724,-5.5851,-5.5699,-5.4398,-5.241,-4.9693,0.0,0.0,0.0,0.0,0.0,0.0,0.0,0.0,0.0,0.0,0.0,0.0,0.0,0.0,0.0,0.0,0.0,0.0,0.0,0.0,0.0,0.0,0.0,0.0,0.0,0.0,0.0,0.0,0.0,0.0,0.0,0.0,0.0,0.0,0.0,0.0,0.0,0.0,0.0,-4.7605,-4.8636,0.0,0.0,0.0,0.0,0.0,0.0,0.0,0.0,-4.6282,0.0,0.0,0.0,0.0,0.0,0.0,0.0,0.0,0.0,0.0,0.0,0.0,0.0,0.0,0.0,0.0,0.0,0.0,0.0,0.0,0.0,0.0,0.0,0.0,0.0,0.0,0.0,0.0,0.0,0.0,0.0,0.0,0.0,0.0,0.0,0.0,0.0,0.0,0.0,0.0,0.0,0.0,0.0,0.0,0.0,0.0,0.0,0.0,0.0,0.0,0.0,0.0,0.0,0.0,0.0,-4.947,-5.0783,-5.279,-5.5579,-5.576,-5.567,-5.5361,-5.3796,-5.1774,0.0,0.0,0.0,0.0,0.0,0.0,0.0,0.0,0.0,0.0,0.0,0.0,0.0,0.0,0.0,0.0,0.0,0.0,0.0,0.0,0.0,0.0,0.0,0.0,0.0,0.0,0.0,0.0,0.0,0.0,0.0,0.0,0.0,0.0,0.0,0.0,0.0,0.0,0.0,0.0,-4.9062,-5.0081,-5.0886,0.0,0.0,0.0,0.0,0.0,0.0,-4.664,-4.5656,0.0,0.0,0.0,0.0,0.0,0.0,0.0,0.0,0.0,0.0,0.0,0.0,0.0,0.0,0.0,0.0,0.0,0.0,0.0,0.0,0.0,0.0,0.0,0.0,0.0,0.0,0.0,0.0,0.0,0.0,0.0,0.0,0.0,0.0,0.0,0.0,0.0,0.0,0.0,0.0,0.0,0.0,0.0,0.0,0.0,0.0,0.0,0.0,0.0,0.0,0.0,0.0,0.0,0.0,0.0,-4.9551,-5.1121,-5.3145,-5.5568,-5.561,-5.5346,-5.4834,-5.2759,-5.0742,0.0,0.0,0.0,0.0,0.0,0.0,0.0,0.0,0.0,0.0,0.0,0.0,0.0,0.0,0.0,0.0,0.0,0.0,0.0,0.0,0.0,0.0,0.0,0.0,0.0,0.0,0.0,0.0,0.0,0.0,0.0,0.0,0.0,0.0,0.0,0.0,0.0,0.0,0.0,0.0,0.0,-5.1619,-5.2041,-5.1052,0.0,0.0,0.0,0.0,-4.6911,-4.6414,0.0,0.0,0.0,0.0,0.0,0.0,0.0,0.0,0.0,0.0,0.0,0.0,0.0,0.0,0.0,0.0,0.0,0.0,0.0,0.0,0.0,0.0,0.0,0.0,0.0,0.0,0.0,0.0,0.0,0.0,0.0,0.0,0.0,0.0,0.0,0.0,0.0,0.0,0.0,0.0,0.0,0.0,0.0,0.0,0.0,0.0,0.0,0.0,0.0,0.0,0.0,0.0,0.0,0.0,0.0,0.0,-4.9551,-5.1121,-5.3126,-5.5519,-5.5343,-5.4816,-5.4046,-5.1676,-4.9648,0.0,0.0,0.0,0.0,0.0,0.0,0.0,0.0,0.0,0.0,0.0,0.0,0.0,0.0,0.0,0.0,0.0,0.0,0.0,0.0,0.0,0.0,0.0,0.0,0.0,0.0,0.0,0.0,0.0,0.0,0.0,0.0,0.0,0.0,0.0,0.0,0.0,0.0,0.0,0.0,0.0,-5.2741,-5.2179,-5.0962,-4.9794,0.0,0.0,-4.8604,-4.8623,-4.8919,0.0,0.0,0.0,0.0,0.0,0.0,0.0,0.0,0.0,0.0,0.0,0.0,0.0,0.0,0.0,0.0,0.0,0.0,0.0,0.0,0.0,0.0,0.0,0.0,0.0,0.0,0.0,0.0,0.0,0.0,0.0,0.0,0.0,0.0,0.0,0.0,0.0,0.0,0.0,0.0,0.0,0.0,0.0,0.0,0.0,0.0,0.0,0.0,0.0,0.0,0.0,0.0,0.0,0.0,0.0,-4.7084,-4.8899,-5.0657,-5.233,-5.3855,-5.3779,-5.3294,-5.251,-5.0132,-4.8401,0.0,0.0,0.0,0.0,0.0,0.0,0.0,0.0,0.0,0.0,0.0,0.0,0.0,0.0,0.0,0.0,0.0,0.0,0.0,0.0,0.0,0.0,0.0,0.0,0.0,0.0,0.0,0.0,0.0,0.0,0.0,0.0,0.0,0.0,0.0,0.0,0.0,0.0,0.0,0.0,0.0,0.0,-5.1729,-5.1023,0.0,0.0,0.0,-4.8402,-4.7959,0.0,0.0,0.0,0.0,0.0,0.0,0.0,0.0,0.0,0.0,0.0,0.0,0.0,0.0,0.0,0.0,0.0,0.0,0.0,0.0,0.0,0.0,0.0,0.0,0.0,0.0,0.0,0.0,0.0,0.0,0.0,0.0,0.0,0.0,0.0,0.0,0.0,0.0,0.0,0.0,0.0,0.0,0.0,0.0,0.0,0.0,0.0,0.0,0.0,0.0,0.0,0.0,0.0,0.0,0.0,0.0,0.0,-4.8258,-5.018,-5.1592,-5.2424,-5.2368,-5.1907,-5.1091,-4.9015,0.0,0.0,0.0,0.0,0.0,0.0,0.0,0.0,0.0,0.0,0.0,0.0,0.0,0.0,0.0,0.0,0.0,0.0,0.0,0.0,0.0,0.0,0.0,0.0,0.0,0.0,0.0,-3.103,0.0,0.0,0.0,0.0,0.0,0.0,0.0,0.0,0.0,0.0,0.0,0.0,0.0,0.0,-5.1667,-5.0951,-5.0776,-5.0616,0.0,0.0,-4.779,-4.7252,-4.7661,-4.7186,0.0,0.0,0.0,0.0,0.0,0.0,0.0,0.0,0.0,0.0,0.0,0.0,0.0,0.0,0.0,0.0,0.0,0.0,0.0,0.0,0.0,0.0,0.0,0.0,0.0,0.0,0.0,0.0,0.0,0.0,0.0,0.0,0.0,0.0,0.0,0.0,0.0,0.0,0.0,0.0,0.0,0.0,0.0,0.0,0.0,0.0,0.0,0.0,0.0,0.0,0.0,0.0,0.0,0.0,-4.62,-4.7834,-4.98,-5.12,-5.1989,-5.1659,-5.1106,-5.0291,-4.8993,-4.7187,0.0,0.0,0.0,0.0,0.0,0.0,0.0,0.0,0.0,0.0,0.0,0.0,0.0,0.0,0.0,0.0,0.0,0.0,0.0,0.0,0.0,0.0,0.0,0.0,0.0,0.0,0.0,0.0,0.0,0.0,0.0,0.0,0.0,0.0,0.0,0.0,0.0,0.0,0.0,0.0,0.0,-5.1399,-4.9849,-4.9962,-5.0243,0.0,-4.8476,-4.7235,-4.737,-4.8138,-4.7752,-4.4928,0.0,0.0,0.0,0.0,0.0,0.0,0.0,0.0,0.0,0.0,0.0,0.0,0.0,0.0,0.0,0.0,0.0,0.0,0.0,0.0,0.0,0.0,0.0,0.0,0.0,0.0,0.0,0.0,0.0,0.0,0.0,0.0,0.0,0.0,0.0,0.0,0.0,0.0,0.0,0.0,0.0,0.0,0.0,0.0,0.0,0.0,0.0,0.0,0.0,0.0,0.0,0.0,0.0,-4.5375,-4.6277,-4.8477,-4.9773,-5.0054,-4.993,-4.9595,-4.9049,-4.8052,-4.6654,0.0,0.0,0.0,0.0,0.0,0.0,0.0,0.0,0.0,0.0,0.0,0.0,0.0,0.0,0.0,0.0,0.0,0.0,0.0,0.0,0.0,0.0,0.0,0.0,0.0,0.0,0.0,0.0,-3.8107,-3.8567,-3.8125,0.0,0.0,0.0,0.0,0.0,0.0,0.0,0.0,0.0,0.0,-4.9577,-4.9177,-4.9326,0.0,0.0,-4.8754,-4.785,-4.7506,-4.7477,-4.6687,-4.4212,-4.2834,0.0,0.0,0.0,0.0,0.0,0.0,0.0,0.0,0.0,0.0,0.0,0.0,0.0,0.0,0.0,0.0,0.0,0.0,0.0,0.0,0.0,0.0,0.0,0.0,0.0,0.0,0.0,0.0,0.0,0.0,0.0,0.0,0.0,0.0,0.0,0.0,0.0,0.0,0.0,0.0,0.0,0.0,0.0,0.0,0.0,0.0,0.0,0.0,0.0,0.0,0.0,0.0,-4.4589,-4.5124,-4.7502,-4.8728,-4.8709,-4.8709,-4.8586,-4.8288,-4.7774,-4.6599,0.0,0.0,0.0,0.0,0.0,0.0,0.0,0.0,0.0,0.0,0.0,0.0,0.0,0.0,0.0,0.0,0.0,0.0,0.0,0.0,0.0,0.0,0.0,0.0,0.0,0.0,0.0,0.0,-3.8854,-3.8792,-3.8207,0.0,0.0,0.0,0.0,0.0,0.0,0.0,0.0,0.0,0.0,-4.8314,-4.8355,-4.8411,-4.8455,-4.8538,-4.7747,-4.6913,-4.635,-4.5932,-4.5086,-4.3352,0.0,0.0,0.0,0.0,0.0,0.0,0.0,0.0,0.0,0.0,0.0,0.0,0.0,0.0,0.0,0.0,0.0,0.0,0.0,0.0,0.0,0.0,0.0,0.0,0.0,0.0,0.0,-4.3425,0.0,0.0,-4.2528,0.0,0.0,0.0,0.0,0.0,0.0,0.0,0.0,0.0,0.0,0.0,0.0,0.0,0.0,0.0,0.0,0.0,0.0,0.0,0.0,0.0,0.0,-4.3937,-4.4708,-4.7095,-4.8325,-4.8325,-4.8325,-4.8325,-4.8306,-4.8288,-4.7131,-4.4728,0.0,0.0,0.0,0.0,0.0,0.0,0.0,0.0,0.0,0.0,0.0,0.0,0.0,0.0,0.0,0.0,0.0,0.0,0.0,0.0,0.0,0.0,0.0,0.0,0.0,0.0,-3.7333,-3.7443,-3.74,0.0,0.0,0.0,0.0,0.0,0.0,0.0,0.0,0.0,-4.4599,-4.6783,-4.7995,-4.7204,-4.7113,-4.6942,-4.6483,-4.508,-4.3916,-4.3522,-4.3419,-4.312,0.0,0.0,0.0,0.0,0.0,0.0,0.0,0.0,0.0,0.0,0.0,0.0,0.0,0.0,0.0,0.0,0.0,0.0,0.0,0.0,0.0,0.0,0.0,0.0,0.0,0.0,0.0,-4.3185,-4.2655,0.0,0.0,0.0,0.0,0.0,0.0,0.0,0.0,0.0,0.0,0.0,-4.4305,-4.4305,0.0,0.0,0.0,0.0,0.0,0.0,0.0,0.0,0.0,0.0,0.0,0.0,-4.3643,-4.4011,-4.6801,-4.8324,-4.8324,-4.8324,-4.8324,-4.8324,-4.8324,-4.6742,-4.3467,0.0,0.0,0.0,0.0,0.0,0.0,0.0,0.0,0.0,0.0,0.0,0.0,0.0,0.0,0.0,0.0,0.0,0.0,0.0,0.0,0.0,0.0,0.0,0.0,0.0,-3.8947,0.0,0.0,0.0,0.0,0.0,0.0,0.0,0.0,0.0,0.0,0.0,-4.3297,-4.4181,-4.4576,-4.4887,-4.5117,-4.5171,-4.5269,0.0,0.0,0.0,0.0,0.0,0.0,0.0,0.0,0.0,0.0,0.0,0.0,0.0,0.0,-4.1238,-4.029,-3.9426,-3.901,-3.9518,0.0,0.0,0.0,0.0,0.0,0.0,0.0,0.0,0.0,0.0,0.0,0.0,0.0,0.0,-4.403,-4.3516,-4.2965,0.0,0.0,0.0,0.0,0.0,0.0,0.0,0.0,-4.5718,-4.581,-4.5535,-4.5517,-4.5241,0.0,-4.447,-4.3369,0.0,0.0,0.0,0.0,0.0,0.0,0.0,0.0,-4.3111,-4.3221,-4.5975,-4.7462,-4.7462,-4.7462,-4.7462,-4.7462,-4.7205,-4.5533,-4.235,-3.981,-3.7247,0.0,0.0,0.0,0.0,0.0,0.0,0.0,0.0,0.0,0.0,0.0,0.0,0.0,0.0,0.0,0.0,0.0,0.0,0.0,0.0,0.0,0.0,0.0,-3.8972,0.0,0.0,0.0,0.0,0.0,0.0,0.0,0.0,0.0,-4.1685,-4.2414,-4.3099,-4.3975,-4.3921,-4.3806,-4.3771,0.0,0.0,0.0,0.0,0.0,0.0,0.0,-4.1677,-4.0976,-4.1052,-4.139,-4.188,-4.2151,-4.2303,-4.2303,0.0,0.0,-4.1102,-4.0167,-3.9703,-4.0191,-3.9612,-3.91,-3.9329,-3.8951,-3.8512,0.0,0.0,0.0,0.0,0.0,0.0,0.0,0.0,-4.5865,-4.581,0.0,-4.4176,0.0,0.0,0.0,0.0,0.0,-4.5516,0.0,0.0,-4.7498,-4.7846,-4.7149,-4.7131,-4.7113,-4.7076,-4.6342,-4.5535,-4.4635,-4.3167,0.0,0.0,0.0,0.0,0.0,0.0,-4.2304,-4.2451,-4.4745,-4.592,-4.592,-4.592,-4.592,-4.5902,-4.5168,-4.3743,-4.1592,-4.0929,-3.9007,-3.5469,-3.4785,0.0,0.0,0.0,0.0,0.0,0.0,0.0,0.0,0.0,0.0,0.0,0.0,0.0,0.0,0.0,0.0,0.0,0.0,0.0,0.0,-3.7284,0.0,0.0,0.0,0.0,0.0,0.0,0.0,0.0,0.0,0.0,-4.057,-4.1902,-4.316,-4.388,0.0,0.0,0.0,0.0,-4.3276,-4.1337,-4.0966,-4.0817,-4.0349,-4.0815,-4.1491,-4.2151,0.0,0.0,-4.3358,-4.2844,-4.2405,-4.2361,-4.2898,-4.3162,-4.2365,-4.1549,-4.0976,-4.0951,-4.0271,-3.9518,-3.885,-3.867,-3.8363,-4.8736,0.0,0.0,0.0,0.0,-4.5729,-4.5681,-4.5902,-4.5902,-4.5571,-4.5021,-4.458,0.0,0.0,0.0,0.0,0.0,0.0,-4.6214,-4.6764,-4.7241,-4.7626,-4.7957,-4.7938,-4.7976,-4.7938,-4.7719,-4.6911,-4.5571,-4.5112,-4.3461,-4.0765,0.0,0.0,0.0,0.0,-4.258,-4.3222,-4.4947,-4.5902,-4.5902,-4.5902,-4.5902,-4.5902,-4.5112,-4.4015,-4.2585,-4.1372,-3.9592,-3.7234,-3.544,0.0,0.0,0.0,0.0,0.0,0.0,0.0,0.0,0.0,0.0,0.0,0.0,0.0,0.0,0.0,0.0,0.0,0.0,0.0,-3.7101,-3.6943,-3.6524,0.0,0.0,0.0,0.0,0.0,0.0,0.0,0.0,0.0,-3.9506,-4.1186,-4.2328,0.0,0.0,-4.1425,-4.0996,-4.1572,-4.1987,-4.1904,-4.1878,0.0,-4.2398,-4.2202,-4.2049,-4.2252,-4.2912,-4.3403,-4.3403,-4.3707,-4.3726,-4.3103,-4.3202,-4.3059,-4.2276,-4.1889,-4.1483,-4.091,-4.0117,-3.9497,-3.9219,-3.8801,-3.8374,-4.995,-4.8747,-4.8054,-4.7531,-4.7139,-4.6761,-4.6708,-4.6874,-4.6856,-4.6581,-4.6104,-4.5792,-4.5204,-4.4452,-4.4635,0.0,0.0,0.0,-4.6801,-4.7571,-4.7241,-4.7351,-4.7792,-4.7498,-4.7352,-4.737,-4.737,-4.6856,-4.5883,-4.5571,-4.4287,-4.2103,0.0,0.0,-4.0414,-4.1662,-4.2543,-4.3057,-4.4287,-4.4965,-4.4947,-4.4947,-4.4947,-4.4929,-4.447,-4.3797,-4.2902,-4.1766,-4.0367,-3.8704,-3.6859,-3.5262,0.0,0.0,0.0,0.0,0.0,0.0,0.0,0.0,0.0,0.0,0.0,-3.0219,-3.0244,0.0,0.0,0.0,-3.4596,-3.6202,-3.7271,-3.6858,0.0,0.0,0.0,0.0,0.0,0.0,0.0,-3.7229,-3.8261,-3.8988,-3.9029,-4.0383,-4.1336,-4.1222,-4.0798,-4.0451,-4.0146,0.0,-4.1694,-4.1847,-4.1863,-4.2016,-4.2455,-4.2151,-4.1948,-4.2279,-4.2658,-4.2946,-4.298,-4.3386,-4.3501,-4.3018,-4.2655,-4.2179,-4.1322,-4.0944,-4.0764,-4.0652,-3.9782,-3.9041,-3.9005,-3.8467,-3.7988,-5.0683,-5.0596,-4.9513,-4.8776,-4.8334,-4.8,-4.804,-4.8383,-4.8364,-4.8345,-4.8308,-4.7517,-4.6764,-4.5957,-4.5278,0.0,-4.7094,-4.7094,-4.748,-4.8159,-4.7369,-4.7003,-4.6966,-4.625,-4.5902,-4.5902,-4.5902,-4.5865,-4.5755,-4.5057,-4.425,-4.3387,-4.2653,-4.1901,-4.1187,-4.1827,-4.2231,-4.2323,-4.3039,-4.3441,-4.3497,-4.3479,-4.3479,-4.3497,-4.348,-4.3196,-4.2653,-4.2059,-4.1135,-3.987,-3.8542,-3.6857,-3.4793,0.0,0.0,0.0,0.0,0.0,0.0,0.0,0.0,0.0,0.0,0.0,0.0,0.0,0.0,-3.3212,-3.516,0.0,-3.7455,-3.6873,0.0,0.0,0.0,-3.591,-3.6711,-3.7466,-3.7889,-3.7821,0.0,0.0,-3.8988,-3.958,-4.0273,-4.1018,-4.1119,-4.0865,-4.0197,-4.1271,-4.1965,-4.1339,-4.1271,-4.1305,-4.1508,-4.1441,-4.1574,-4.2034,-4.2206,-4.223,-4.2186,-4.2105,-4.2126,-4.2058,-4.1488,-4.0743,-3.9871,-3.9124,-3.8982,-4.0155,-3.9256,-3.8317,-3.8287,-3.7793,-3.7345,-5.0683,-5.0664,-5.0393,-5.003,-4.96,-4.9249,-4.9123,-4.9206,-4.8898,-4.8761,-4.8727,-4.8237,-4.7553,-4.6819,-4.726,-4.7315,-4.7094,-4.7094,-4.7186,-4.7314,-4.6562,-4.6177,-4.6159,-4.5993,-4.5902,-4.5902,-4.5902,-4.559,-4.5021,-4.4783,-4.3957,-4.2653,-4.2396,-4.1919,-4.1132,-4.1279,-4.1682,-4.2304,-4.2488,-4.2873,-4.3461,-4.3479,-4.3479,-4.3479,-4.3087,-4.2617,-4.2021,-4.1424,-4.0781,-4.0029,-3.8119,-3.6829,-3.6271,-3.3081,0.0,0.0,0.0,0.0,0.0,0.0,0.0,0.0,0.0,-3.0609,-2.9799,0.0,-3.2201,0.0,-3.4032,-3.5509,-3.6854,-3.6292,0.0,0.0,-3.6434,-3.5904,-3.6711,-3.7432,-3.7669,-3.711,-3.8193,-3.8988,-3.8988,-3.914,-3.9554,-4.0265,-4.0383,-4.0282,-4.0146,-4.0849,-4.1424,-4.1288,-4.1644,-4.2016,-4.1948,-4.2033,-4.1846,-4.151,-4.1427,-4.1488,-4.1443,-4.0923,-4.0528,-4.044,-3.9825,-3.8998,-3.8157,-3.7815,-3.7824,-3.8122,-3.7871,-3.7644,-3.7629,-3.7135,-3.6701,-5.0683,-5.0683,-5.0683,-5.0353,-4.9781,-4.9784,-4.9664,-4.9475,-4.9265,-4.9171,-4.9102,-4.8373,-4.7792,-4.7367,-4.7279,-4.7003,-4.6562,-4.6562,-4.6562,-4.6507,-4.5736,-4.5388,-4.5369,-4.5002,-4.4819,-4.4819,-4.4837,-4.4599,-4.4158,-4.3809,-4.3369,-4.2818,-4.247,-4.1919,-4.1132,-4.1113,-4.1148,-4.1222,-4.1222,-4.1625,-4.2396,-4.2433,-4.2182,-4.159,-4.1307,-4.0814,-4.0133,-3.9333,-3.8893,-3.876,-3.7189,-3.596,-3.5284,-3.3004,-3.1396,0.0,0.0,0.0,0.0,0.0,0.0,0.0,0.0,0.0,0.0,0.0,-3.278,-3.2818,-3.4117,-3.5199,-3.5723,-3.5673,-3.6073,-3.728,-3.6637,-3.6434,-3.7212,-3.7669,-3.7736,-3.733,-3.8007,-3.8514,-3.8514,-3.8785,-3.914,-3.9571,-3.991,-4.0113,-4.018,-4.073,-4.1204,-4.1221,-4.1559,-4.1677,-4.1373,-4.1009,-4.0654,-4.0238,-3.9668,-3.9243,-3.9243,-3.8626,-3.8113,-3.8059,-3.7676,-3.7172,-3.6709,-3.6589,-3.6567,-3.6567,-3.6567,-3.6671,-3.6926,-3.6492,-3.5983,-5.0683,-5.0683,-5.0683,-5.0279,-4.9606,-4.9999,-4.986,-4.9329,-4.9254,-4.9211,-4.9135,-4.815,-4.7655,-4.738,-4.6407,-4.59,-4.5808,-4.5773,-4.5755,-4.57,-4.4929,-4.4562,-4.4525,-4.3828,-4.3479,-4.3479,-4.3404,-4.3332,-4.3314,-4.2543,-4.2451,-4.2982,-4.2323,-4.1589,-4.082,-4.0783,-4.0451,-3.9753,-3.9845,-4.023,-4.0912,-4.0838,-4.0269,-3.9202,-3.9062,-3.8667,-3.7913,-3.6983,-3.6626,-3.6943,-3.6015,-3.4895,-3.3609,-3.275,-3.1701,0.0,-2.9533,0.0,0.0,0.0,0.0,0.0,0.0,0.0,0.0,-3.3355,-3.344,-3.3525,-3.4687,-3.5284,-3.4827,-3.5368,-3.6079,-3.6823,-3.6863,-3.7066,-3.7669,-3.777,-3.777,-3.777,-3.7855,-3.7922,-3.7956,-3.8481,-3.8853,-3.8747,-3.9126,-3.9396,-3.9598,-4.0315,-4.1001,-4.1052,-4.0984,-4.0595,-3.9919,-3.917,-3.8628,-3.84,-3.7478,-3.655,-3.663,-3.6023,-3.5566,-3.5657,-3.5569,-3.5351,-3.5335,-3.5289,-3.5252,-3.5235,-3.525,-3.5444,-3.5953,-3.5759,-3.516,-5.0683,-5.0683,-5.0683,-5.0596,-5.0471,-5.0537,-4.9738,-4.8332,-4.8014,-4.7713,-4.7518,-4.7914,-4.7395,-4.6205,-4.6265,-4.596,-4.5329,-4.5032,-4.4911,-4.4911,-4.4103,-4.3735,-4.3699,-4.357,-4.3479,-4.3442,-4.2837,-4.2525,-4.2506,-4.1735,-4.1075,-4.0579,-4.0414,-3.9955,-3.9184,0.0,0.0,0.0,-3.957,-3.9974,-4.0102,-3.9478,-3.9043,-3.88,-3.8334,0.0,-3.7359,-3.6704,-3.6203,-3.5885,-3.5123,0.0,0.0,0.0,0.0,0.0,0.0,0.0,0.0,0.0,0.0,0.0,-3.0687,-3.0822,-3.2357,-3.3051,-3.3643,-3.4235,-3.4539,-3.5165,-3.6254,-3.6491,-3.6857,-3.7567,-3.7144,-3.6863,-3.6998,-3.7015,-3.7015,-3.7032,-3.7516,-3.7865,-3.7855,-3.8058,-3.7864,-3.7378,-3.7335,-3.7171,-3.6733,-3.8768,-4.0214,-4.0282,-3.9775,-3.9174,-3.8413,-3.7694,-3.7042,-3.6373,-3.5668,-3.512,-3.5047,-3.4446,-3.4221,-3.467,-3.4359,-3.394,-3.394,-3.3876,-3.3963,-3.3888,-3.3903,-3.4068,-3.4743,-3.4788,-3.4487,-5.0683,0.0,-5.0683,-5.0442,0.0,-5.0058,-4.9298,-4.8154,-4.8804,-4.8731,-4.815,-4.7529,-4.6809,-4.6019,-4.5204,-4.4557,-4.3998,-4.3431,-4.3297,-4.3497,-4.3094,-4.3112,-4.3461,-4.3094,-4.291,-4.2873,-4.2084,-4.1717,-4.1662,-4.0891,-4.0506,-4.0469,-4.0084,-3.968,-3.9294,-3.8891,-3.8707,-3.8707,-3.8707,-3.8891,-3.9258,-3.8927,-3.8394,-3.7767,-3.7071,0.0,0.0,0.0,0.0,0.0,0.0,0.0,0.0,0.0,0.0,-3.1207,-3.0852,-3.0649,-3.0632,-3.0294,-3.0565,-3.1667,-3.1732,-3.2016,-3.2801,-3.3846,-3.4636,-3.4996,-3.5047,-3.5368,-3.6113,-3.6214,-3.6366,-3.6681,-3.6434,-3.6214,-3.6214,-3.6214,-3.6214,-3.6231,-3.6552,-3.6789,-3.6766,-3.681,-3.6695,-3.6331,-3.6289,-3.6155,-3.6023,-3.7308,-3.8438,-3.848,-3.8553,-3.8076,-3.7077,-3.6561,-3.6002,-3.528,-3.4308,-3.3675,-3.3601,-3.3019,-3.266,-3.3056,-3.302,-3.3006,-3.3036,-3.326,-3.3499,-3.3499,-3.3499,-3.344,-3.3574,-3.3769,-3.383,-5.0683,-5.0683,-5.0683,-5.0289,-4.9625,-4.9471,-4.8913,-4.8202,0.0,0.0,0.0,-4.7084,-4.6328,-4.6058,-4.4381,-4.3478,-4.3166,-4.2379,-4.222,-4.2586,-4.254,-4.2782,-4.3239,-4.2616,-4.2231,-4.2066,-4.1277,-4.0875,-4.0838,-4.0084,-4.001,-4.0545,-4.001,-3.968,-3.9643,-3.9038,-3.8707,-3.867,-3.7915,-3.7823,-3.845,-3.834,-3.7783,-3.6739,-3.5844,-3.4828,-3.3737,-3.2476,-3.1771,-3.1696,-3.1372,-3.119,-3.119,-3.119,-3.119,-3.119,-3.119,-3.119,-3.119,-3.119,-3.1481,-3.2073,-3.278,-3.3271,-3.3389,-3.4501,-3.5211,-3.5211,-3.5312,-3.5397,-3.5414,-3.5532,-3.5616,-3.5616,-3.5616,-3.5616,-3.5616,-3.5616,-3.565,-3.56,-3.5543,-3.5424,-3.5446,-3.537,-3.5283,-3.5172,-3.5074,-3.5229,-3.5342,-3.6042,-3.6697,-3.6575,-3.6862,-3.6812,-3.5752,-3.5176,-3.4932,-3.4335,-3.3191,-3.2347,-3.2228,-3.1869,-3.154,-3.1673,-3.1974,-3.2258,-3.2377,-3.2721,-3.314,-3.3155,-3.314,-3.2991,-3.2557,-3.2751,-3.2931,-5.0693,-5.0683,-5.0683,-5.0635,-5.0481,-4.9702,-4.8913,-4.8135,-4.8375,-4.7605,-4.6163,-4.6627,-4.6397,-4.5686,-4.5114,-4.4817,-4.4729,-4.4022,-4.3707,-4.376,-4.3481,-4.3037,-4.247,-4.2359,-4.1956,-4.1242,-4.0451,-4.0065,-3.9974,-3.9258,-3.8946,-3.9019,-3.8927,-3.8891,-3.8872,-3.8744,-3.8707,-3.8689,-3.7896,-3.7566,-3.7658,-3.6982,-3.6549,-3.6325,-3.519,-3.4309,-3.3701,-3.2476,-3.1641,-3.131,-3.123,-3.119,-3.119,-3.119,-3.119,-3.119,-3.119,-3.119,-3.119,-3.119,-3.1241,-3.1376,-3.2039,-3.2713,-3.3339,-3.3592,-3.3706,-3.3744,-3.4303,-3.4641,-3.4692,-3.5216,-3.5566,-3.5616,-3.5616,-3.5616,-3.5616,-3.5616,-3.56,-3.5554,-3.5075,-3.4759,-3.4704,-3.4275,-3.3754,-3.3255,-3.3286,-3.3119,-3.3431,-3.4727,-3.553,-3.517,-3.5062,-3.4794,-3.4085,-3.3408,-3.3166,-3.2908,-3.2268,-3.172,-3.172,-3.16,-3.1496,-3.1496,-3.163,-3.1675,-3.169,-3.1705,-3.1869,-3.1899,-3.1914,-3.178,-3.169,-3.1795,-3.1795,-5.0775,-5.0635,-5.0183,-4.999,-4.9923,-4.9067,-4.8221,-4.749,-4.7451,-4.7048,-4.6336,-4.622,-4.597,-4.5566,-4.4949,-4.4574,-4.4402,-4.3594,-4.3396,-4.3586,-4.3015,-4.276,-4.2727,-4.1738,-4.1021,-4.0618,-3.9715,-3.9258,-3.9221,-3.8872,-3.8707,-3.8707,-3.8707,-3.8707,-3.867,-3.8267,-3.8046,-3.8046,-3.7694,-3.7511,-3.7492,-3.6474,-3.5915,-3.5915,-3.4693,-3.3804,-3.3388,-3.2369,-3.1621,-3.123,-3.119,-3.119,-3.119,-3.119,-3.119,-3.119,-3.119,-3.119,-3.119,-3.119,-3.119,-3.119,-3.1495,-3.1853,-3.2171,-3.2966,-3.3389,-3.3406,-3.3728,-3.4083,-3.4438,-3.4793,-3.5165,-3.5566,-3.5616,-3.5616,-3.5616,-3.5616,-3.547,-3.5098,-3.48,-3.4455,-3.4112,-3.3469,-3.3002,-3.2614,-3.2299,-3.2035,-3.2035,-3.2803,-3.3531,-3.3547,-3.3858,-3.3599,-3.2726,-3.2598,-3.2394,-3.2092,-3.171,-3.1524,-3.1496,-3.1496,-3.1481,-3.1496,-3.1481,-3.1496,-3.1466,-3.1182,-3.1152,-3.1421,-3.1152,-3.1092,-3.1332,-3.119,-3.0866,-5.074,-5.0383,-4.9728,-4.9219,-4.8798,-4.8125,-4.7355,-4.6644,-4.6605,-4.6605,-4.6509,-4.5883,-4.5594,-4.5537,-4.4883,-4.4478,-4.4192,-4.3508,-4.3254,-4.3319,-4.2711,-4.2511,-4.2555,-4.1039,-4.0188,-3.9961,-3.911,-3.8707,-3.8707,-3.8707,-3.8707,-3.8707,-3.8707,-3.8615,-3.8414,-3.7804,-3.7419,-3.7235,-3.7052,-3.7033,-3.7184,-3.6255,-3.5755,-3.5688,-3.453,-3.3668,-3.321,-3.2314,-3.1621,-3.1232,-3.119,-3.119,-3.119,-3.119,-3.119,-3.119,-3.119,-3.119,-3.119,-3.119,-3.119,-3.119,-3.119,-3.119,-3.1275,-3.2222,-3.2899,-3.2916,-3.3034,-3.3389,-3.3829,-3.415,-3.4489,-3.5025,-3.5109,-3.5126,-3.5318,-3.5329,-3.5256,-3.4868,-3.4688,-3.4341,-3.3684,-3.3013,-3.2559,-3.2272,-3.1853,-3.1524,-3.1496,-3.1496,-3.1768,-3.2216,-3.2799,-3.2722,-3.171,-3.1951,-3.2064,-3.1553,-3.1496,-3.1406,-3.1331,-3.1241,-3.1152,-3.1032,-3.1002,-3.0957,-3.0987,-3.0687,-3.0537,-3.0808,-3.0582,-3.0391,-3.0509,-3.0397,-3.017,-5.0518,-4.9759,-4.9555,-4.8604,-4.7201,-4.7048,-4.6528,-4.5806,-4.571,-4.572,-4.5748,-4.5614,-4.5594,-4.5594,-4.5498,-4.5404,-4.534,-4.5032,-4.4418,-4.3724,-4.3352,-4.2442,-4.1197,-4.0547,-3.9923,-3.9295,-3.8899,-3.8704,-3.8707,-3.867,-3.8689,-3.8707,-3.8707,-3.8285,-3.7694,-3.7511,-3.7125,-3.6395,-3.5628,-3.5591,-3.6358,-3.6292,-3.6223,-3.6223,-3.4978,-3.4117,-3.3511,-3.2441,-3.1621,-3.1232,-3.119,-3.119,-3.119,-3.119,-3.119,-3.119,-3.119,-3.119,-3.119,-3.119,-3.119,-3.119,-3.119,-3.119,-3.119,-3.1326,-3.1427,-3.1562,-3.2056,-3.2446,-3.2547,-3.3102,-3.3575,-3.3761,-3.3723,-3.3863,-3.4455,-3.459,-3.4822,-3.5487,-3.4714,-3.4317,-3.3451,-3.2848,-3.2327,-3.1796,-3.1611,-3.1496,-3.1496,-3.1496,-3.1496,-3.1611,-3.1695,-3.1694,-3.1465,-3.1524,-3.1519,-3.1435,-3.1451,-3.1167,-3.0763,-3.0582,-3.0477,-3.0223,-2.9951,-2.9968,-2.9909,-2.9684,-2.9741,-2.9953,-2.9824,-2.9481,-2.8996,-2.8987,-2.9342,-4.9279,-4.8783,-4.8226,-4.7298,-4.6191,-4.6124,-4.5932,-4.5614,-4.5594,-4.5594,-4.5594,-4.5594,-4.5594,-4.5594,-4.5594,-4.5325,-4.4846,-4.468,-4.4183,-4.3369,-4.2718,-4.2038,-4.1389,-4.0531,-3.9908,-3.9383,-3.9077,-3.8855,-3.8628,-3.823,-3.7991,-3.7918,-3.7533,-3.711,-3.6743,-3.6285,-3.5844,-3.55,-3.4711,-3.4371,-3.4459,-3.4484,-3.4329,-3.4013,-3.3288,-3.2669,-3.222,-3.1699,-3.137,-3.121,-3.119,-3.119,-3.119,-3.119,-3.119,-3.119,-3.119,-3.119,-3.119,-3.119,-3.119,-3.119,-3.119,-3.119,-3.119,-3.119,-3.119,-3.1241,-3.1498,-3.1802,-3.2242,-3.2598,-3.2899,-3.3288,-3.3389,-3.3508,-3.3778,-3.3846,-3.3765,-3.3324,-3.3282,-3.2974,-3.2078,-3.1873,-3.1823,-3.1524,-3.1496,-3.1496,-3.1496,-3.1496,-3.1496,-3.1451,-3.1197,-3.0956,-3.0913,-3.0898,-3.0763,-3.0507,-3.0387,-3.0193,-3.0088,-2.9953,-2.9849,-2.9606,-2.9517,-2.9517,-2.9654,-2.925,-2.9071,-2.9185,-2.9026,-2.8635,-2.7882,-2.7551,-2.7616,-4.8377,-4.7918,-4.7005,-4.6224,-4.5614,-4.5594,-4.5594,-4.5594,-4.5594,-4.5594,-4.5575,-4.5364,-4.5248,-4.5248,-4.5248,-4.4786,-4.4028,-4.397,-4.3528,-4.2739,-4.2085,-4.1654,-4.1368,-4.0539,-3.9922,-3.9599,-3.9251,-3.8961,-3.8643,-3.7896,-3.7511,-3.7401,-3.6703,-3.6174,-3.5899,-3.5279,-3.4894,-3.4637,-3.4064,-3.3666,-3.3408,-3.3258,-3.2983,-3.2517,-3.2161,-3.1806,-3.1391,-3.1166,-3.1004,-3.0886,-3.0886,-3.0903,-3.0903,-3.1089,-3.119,-3.119,-3.119,-3.119,-3.119,-3.119,-3.119,-3.119,-3.119,-3.119,-3.119,-3.119,-3.119,-3.119,-3.119,-3.1461,-3.1887,-3.2005,-3.2239,-3.273,-3.2797,-3.2865,-3.3068,-3.3102,-3.2775,-3.1999,-3.2619,-3.2377,-3.1427,-3.1396,-3.1524,-3.1496,-3.1496,-3.1496,-3.1496,-3.1496,-3.1496,-3.1466,-3.0928,-3.0567,-3.0492,-3.0342,-3.0043,-2.9804,-2.9711,-2.9651,-2.9427,-2.931,-2.9101,-2.8828,-2.9022,-2.8981,-2.8719,-2.845,-2.7965,-2.8171,-2.7975,-2.7343,-2.6445,-2.6025,-2.5818,-4.8311,-4.7332,-4.6291,-4.58,-4.5594,-4.5603,-4.5594,-4.5594,-4.5594,-4.5594,-4.5498,-4.4748,-4.4374,-4.4355,-4.4297,-4.3893,-4.322,-4.3162,-4.2681,-4.1904,-4.1788,-4.1335,-4.0577,-4.0223,-3.9922,-3.9599,-3.9302,-3.8952,-3.8628,-3.7878,-3.7511,-3.7382,-3.6556,-3.5826,-3.5169,-3.4986,-3.4619,-3.399,-3.3862,-3.3762,-3.3707,-3.3375,-3.2968,-3.2517,-3.2451,-3.2179,-3.1685,-3.1079,-3.0555,-3.0142,-3.0159,-3.0156,-3.0209,-3.0768,-3.1089,-3.114,-3.1157,-3.1173,-3.119,-3.119,-3.119,-3.119,-3.119,-3.119,-3.119,-3.119,-3.119,-3.119,-3.119,-3.1241,-3.1292,-3.1376,-3.136,-3.1427,-3.1376,-3.1681,-3.2293,-3.23,-3.2396,-3.2314,-3.2579,-3.251,-3.2276,-3.1908,-3.1478,-3.1436,-3.1466,-3.1496,-3.1481,-3.1481,-3.1421,-3.1271,-3.0868,-3.0462,-3.0417,-2.9953,-2.9666,-2.9337,-2.9112,-2.9277,-2.8921,-2.8577,-2.8263,-2.8008,-2.8034,-2.7908,-2.7637,-2.7151,-2.6494,-2.6256,-2.6078,-2.5517,-2.5031,-2.5054,-2.4853,-4.685,-4.6422,-4.6027,-4.5807,-4.5725,-4.5737,-4.5688,-4.5594,-4.5594,-4.5594,-4.5441,-4.4662,-4.4008,-4.3489,-4.2951,-4.2547,-4.2277,-4.2277,-4.1797,-4.1027,-4.0969,-4.0785,-4.0527,-4.0389,-4.0082,-3.9645,-3.9493,-3.8878,-3.7923,-3.7125,-3.6431,-3.5844,-3.5092,-3.4523,-3.4284,-3.4247,-3.4064,-3.3844,-3.3807,-3.368,-3.3419,-3.3273,-3.284,-3.2109,-3.2039,-3.1635,-3.073,-3.0455,-3.0023,-2.9433,-2.9399,-2.9381,-2.9414,-2.9653,-3.0025,-3.0429,-3.0514,-3.07,-3.1106,-3.119,-3.119,-3.119,-3.119,-3.119,-3.119,-3.119,-3.119,-3.119,-3.119,-3.119,-3.119,-3.119,-3.119,-3.119,-3.119,-3.1292,-3.1452,-3.1281,-3.0894,-3.0593,-3.0497,-3.0397,-3.0819,-3.0779,-3.0866,-3.0911,-3.1212,-3.1436,-3.1406,-3.1152,-3.0881,-3.0702,-2.9971,-2.928,-2.928,-2.9131,-2.8861,-2.8468,-2.8244,-2.8244,-2.7993,-2.8023,-2.7824,-2.7671,-2.7488,-2.7178,-2.6974,-2.6285,-2.5536,-2.4937,-2.4667,-2.4394,-2.3691,-2.4004,-2.3858,-4.6084,-4.5978,-4.5951,-4.5886,-4.5809,-4.5796,-4.5711,-4.5603,-4.5594,-4.546,-4.5075,-4.4278,-4.347,-4.2624,-4.1777,-4.1373,-4.1393,-4.1373,-4.1066,-4.0554,-4.0496,-4.0496,-4.0496,-4.0496,-4.0239,-3.9711,-3.9239,-3.8532,-3.7595,-3.6452,-3.5573,-3.5004,-3.4179,-3.3807,-3.3807,-3.3807,-3.3807,-3.3807,-3.3807,-3.3606,-3.3207,-3.2808,-3.2257,-3.1498,-3.111,-3.0684,-3.0074,-2.9632,-2.9142,-2.8687,-2.8619,-2.8739,-2.8959,-2.8993,-2.9331,-2.9989,-3.0089,-3.0412,-3.1055,-3.119,-3.119,-3.119,-3.119,-3.119,-3.119,-3.119,-3.119,-3.119,-3.119,-3.1151,-3.0938,-3.0898,-3.0995,-3.1131,-3.119,-3.1112,-3.0918,-3.0555,-3.0082,-2.9601,-2.9125,-2.9064,-2.9505,-3.0161,-3.0462,-3.0507,-3.0941,-3.1137,-3.1092,-3.0657,-3.0208,-3.0118,-2.9355,-2.8831,-2.8682,-2.8562,-2.8323,-2.7959,-2.7854,-2.7675,-2.756,-2.756,-2.7458,-2.7331,-2.7034,-2.6654,-2.6122,-2.5453,-2.4781,-2.4105,-2.3872,-2.3708,-2.3335,-2.3185,-2.3226,-4.6223,-4.6113,-4.6108,-4.5986,-4.5846,-4.5828,-4.572,-4.5627,-4.5543,-4.5101,-4.4402,-4.3489,-4.2662,-4.1816,-4.1046,-4.0573,-4.0631,-4.065,-4.0593,-4.0496,-4.0496,-4.0496,-4.0496,-4.0496,-4.0356,-3.9984,-3.8618,-3.7932,-3.7662,-3.6025,-3.5059,-3.4839,-3.4174,-3.3807,-3.3807,-3.3807,-3.3807,-3.3807,-3.3807,-3.3606,-3.3105,-3.2187,-3.1386,-3.0698,-2.9763,-2.9459,-2.9922,-2.8652,-2.7959,-2.7824,-2.7807,-2.818,-2.8688,-2.879,-2.9228,-2.9837,-3.0021,-3.0412,-3.1072,-3.119,-3.119,-3.119,-3.119,-3.119,-3.119,-3.119,-3.1171,-3.1075,-3.1075,-3.0955,-3.0477,-3.0377,-3.0539,-3.1035,-3.0975,-3.076,-3.0398,-3.0251,-3.0064,-2.9418,-2.8829,-2.8899,-2.9472,-2.9894,-3.0178,-3.0253,-3.0417,-3.0451,-3.0335,-2.9871,-2.9639,-2.9406,-2.8895,-2.8408,-2.8244,-2.8083,-2.7839,-2.7615,-2.7645,-2.7585,-2.7509,-2.7499,-2.7111,-2.6904,-2.6269,-2.5864,-2.5259,-2.4595,-2.4147,-2.3573,-2.3365,-2.3275,-2.3185,-2.3095,-2.3095,-4.6288,-4.6246,-4.6246,-4.6144,-4.6004,-4.5997,-4.5911,-4.567,-4.5114,-4.4635,-4.4091,-4.2816,-4.2038,-4.1662,-4.0893,-4.0496,-4.0496,-4.0496,-4.0496,-4.0496,-4.0496,-4.0496,-4.0496,-4.0496,-4.0356,-3.988,-3.8599,-3.7603,-3.6918,-3.567,-3.4747,-3.4211,-3.3935,-3.3825,-3.3807,-3.3807,-3.3807,-3.3807,-3.3807,-3.3483,-3.2844,-3.2406,-3.1636,-3.0425,-2.9514,-2.8932,-2.852,-2.8043,-2.7553,-2.7097,-2.7046,-2.7165,-2.7368,-2.7402,-2.8028,-2.9144,-2.9348,-2.9941,-3.1004,-3.119,-3.119,-3.119,-3.119,-3.119,-3.119,-3.119,-3.0998,-3.0699,-3.058,-3.0477,-3.0335,-3.0293,-3.0208,-2.9995,-2.9957,-2.9995,-2.9679,-2.9316,-2.8811,-2.8311,-2.8026,-2.8019,-2.8263,-2.8775,-2.92,-2.9232,-2.9528,-2.9642,-2.9148,-2.8914,-2.8667,-2.824,-2.798,-2.7876,-2.7735,-2.7573,-2.7362,-2.7306,-2.7357,-2.7357,-2.7331,-2.706,-2.6721,-2.6203,-2.5563,-2.4979,-2.4366,-2.3914,-2.3484,-2.3318,-2.3215,-2.3155,-2.3095,-2.3095,-2.3095,-4.6289,-4.6289,-4.6289,-4.6028,-4.5642,-4.562,-4.5335,-4.488,-4.4291,-4.3794,-4.3242,-4.231,-4.1615,-4.1258,-4.0727,-4.0516,-4.0496,-4.0496,-4.0496,-4.0496,-4.0496,-4.0496,-4.0496,-4.0496,-4.0422,-3.9965,-3.858,-3.7497,-3.6829,-3.5422,-3.4386,-3.3907,-3.3807,-3.3807,-3.3807,-3.3807,-3.3807,-3.377,-3.3482,-3.2971,-3.2187,-3.1583,-3.0672,-2.9395,-2.8586,-2.7968,-2.7436,-2.7384,-2.7182,-2.6793,-2.6708,-2.6708,-2.6708,-2.6759,-2.7283,-2.8281,-2.8908,-2.9551,-3.0632,-3.1021,-3.119,-3.119,-3.119,-3.119,-3.119,-3.119,-3.0995,-3.072,-3.0679,-3.0539,-3.0314,-3.0059,-2.9733,-2.9134,-2.954,-2.9473,-2.9157,-2.8519,-2.8091,-2.7755,-2.7615,-2.7484,-2.7399,-2.775,-2.8015,-2.7983,-2.8137,-2.833,-2.7753,-2.7489,-2.715,-2.6882,-2.672,-2.6785,-2.7119,-2.7037,-2.6893,-2.6956,-2.706,-2.7008,-2.6982,-2.6402,-2.5973,-2.5287,-2.4624,-2.415,-2.359,-2.3442,-2.3168,-2.3095,-2.3095,-2.3095,-2.3095,-2.3095,-2.3095,-4.6289,-4.6289,-4.6289,-4.5757,-4.4948,-4.4907,-4.4418,-4.3551,-4.3236,-4.2799,-4.217,-4.1788,-4.1274,-4.065,-4.0516,-4.0496,-4.0496,-4.0496,-4.0496,-4.0496,-4.0496,-4.0496,-4.0496,-4.0496,-4.0404,-4.0018,-3.8475,-3.7452,-3.6898,-3.5179,-3.408,-3.3895,-3.3847,-3.3807,-3.3807,-3.3807,-3.3733,-3.355,-3.2941,-3.2214,-3.1299,-3.0,-2.8807,-2.793,-2.7334,-2.6926,-2.6843,-2.681,-2.6776,-2.6708,-2.6708,-2.6708,-2.6708,-2.6708,-2.7063,-2.7858,-2.8552,-2.9213,-2.9989,-3.0649,-3.1021,-3.1004,-3.1123,-3.1171,-3.1075,-3.1015,-3.0878,-3.0658,-3.0716,-3.0617,-3.0064,-2.9673,-2.9111,-2.8756,-2.9225,-2.9293,-2.8583,-2.7944,-2.7685,-2.7625,-2.7549,-2.7306,-2.6683,-2.7081,-2.6929,-2.668,-2.6539,-2.6525,-2.6314,-2.6036,-2.5578,-2.5508,-2.5633,-2.6015,-2.6416,-2.6336,-2.6188,-2.6242,-2.6322,-2.6215,-2.6269,-2.5755,-2.5078,-2.4381,-2.3943,-2.3442,-2.3155,-2.3125,-2.3095,-2.3095,-2.3095,-2.3095,-2.3108,-2.3108,-2.3125,-4.6289,-4.6289,-4.6289,-4.5781,-4.5017,-4.4958,-4.4395,-4.3504,-4.2802,-4.2294,-4.1914,-4.1274,-4.0853,-4.0523,-4.0496,-4.0496,-4.0496,-4.0496,-4.0496,-4.0496,-4.0496,-4.0496,-4.0496,-4.0496,-4.0189,-3.9523,-3.8314,-3.725,-3.6445,-3.5007,-3.4183,-3.4105,-3.3876,-3.3807,-3.3807,-3.377,-3.3458,-3.296,-3.2484,-3.1487,-3.0208,-2.9475,-2.8569,-2.7536,-2.7218,-2.6971,-2.6741,-2.6708,-2.6708,-2.6708,-2.6708,-2.6708,-2.6708,-2.6708,-2.7012,-2.7638,-2.7993,-2.8467,-2.9228,-3.0006,-3.0378,-3.0446,-3.0937,-3.1015,-3.0559,-3.0539,-3.0123,-2.9518,-2.9203,-2.9225,-2.9019,-2.8873,-2.8654,-2.8535,-2.8543,-2.8328,-2.7968,-2.771,-2.7585,-2.7534,-2.7126,-2.6747,-2.642,-2.6114,-2.5911,-2.566,-2.5547,-2.5448,-2.5121,-2.5195,-2.4979,-2.4908,-2.5034,-2.5384,-2.5632,-2.555,-2.5508,-2.5508,-2.5384,-2.5106,-2.5175,-2.5007,-2.4308,-2.356,-2.356,-2.3185,-2.3125,-2.3095,-2.3095,-2.3095,-2.3095,-2.3095,-2.3108,-2.3138,-2.3155,-4.6289,-4.6269,-4.5898,-4.5234,-4.4433,-4.4062,-4.3415,-4.2601,-4.2016,-4.1699,-4.1457,-4.1005,-4.069,-4.0582,-4.0595,-4.0552,-4.0504,-4.0496,-4.0496,-4.0496,-4.0496,-4.0496,-4.0496,-4.0496,-4.0092,-3.9277,-3.8265,-3.7277,-3.627,-3.5022,-3.4405,-3.4171,-3.3923,-3.3655,-3.3256,-3.3275,-3.2926,-3.2109,-3.1438,-3.0445,-2.9442,-2.8676,-2.7956,-2.7215,-2.7035,-2.6906,-2.6725,-2.6708,-2.6708,-2.6708,-2.6708,-2.6708,-2.6708,-2.6708,-2.6894,-2.735,-2.7604,-2.8027,-2.8569,-2.9465,-3.0074,-3.0243,-3.0784,-3.0985,-3.0736,-3.0477,-2.987,-2.948,-2.9058,-2.8896,-2.8826,-2.8662,-2.8391,-2.8116,-2.781,-2.7585,-2.7585,-2.761,-2.7433,-2.7178,-2.6774,-2.6176,-2.5742,-2.5217,-2.4809,-2.4509,-2.4361,-2.4187,-2.3969,-2.4279,-2.4496,-2.4394,-2.4279,-2.4496,-2.4696,-2.4639,-2.4724,-2.4753,-2.4553,-2.425,-2.4366,-2.4379,-2.3855,-2.3305,-2.3185,-2.3095,-2.3095,-2.3095,-2.3095,-2.3095,-2.3095,-2.3275,-2.3395,-2.3402,-2.3406,-4.625,-4.6113,-4.5332,-4.4433,-4.3516,-4.2754,-4.2129,-4.1328,-4.1197,-4.1099,-4.1015,-4.0906,-4.0775,-4.0721,-4.0686,-4.0636,-4.0515,-4.0512,-4.0496,-4.0496,-4.0496,-4.0496,-4.0496,-4.0496,-3.9938,-3.9065,-3.8296,-3.7314,-3.6197,-3.5116,-3.4588,-3.4277,-3.3992,-3.338,-3.2894,-3.2656,-3.2137,-3.1248,-3.0273,-2.9528,-2.882,-2.7932,-2.7202,-2.6892,-2.6775,-2.6758,-2.6708,-2.6708,-2.6708,-2.6708,-2.6708,-2.6708,-2.6708,-2.6708,-2.6725,-2.6826,-2.7266,-2.7621,-2.7925,-2.9042,-2.9939,-3.0023,-3.0625,-3.1035,-3.072,-3.023,-2.9783,-2.9457,-2.9473,-2.9019,-2.8904,-2.8614,-2.8198,-2.7785,-2.761,-2.7585,-2.7509,-2.7484,-2.7229,-2.6563,-2.6457,-2.5563,-2.4809,-2.4176,-2.3943,-2.3813,-2.3619,-2.356,-2.3454,-2.359,-2.3783,-2.3813,-2.3708,-2.356,-2.3679,-2.3738,-2.3884,-2.3959,-2.3695,-2.356,-2.3855,-2.3826,-2.3454,-2.3228,-2.3365,-2.3305,-2.3095,-2.3095,-2.3155,-2.3365,-2.3543,-2.3796,-2.4028,-2.3923,-2.391,-4.5898,-4.5254,-4.5078,-4.4101,-4.2773,-4.2461,-4.1933,-4.1211,-4.1172,-4.1102,-4.1019,-4.0962,-4.0896,-4.0779,-4.0736,-4.0674,-4.0636,-4.0554,-4.0496,-4.0496,-4.0496,-4.0496,-4.0458,-4.0381,-3.9631,-3.8592,-3.8123,-3.7163,-3.586,-3.5087,-3.4663,-3.4508,-3.3981,-3.3403,-3.2711,-3.2546,-3.1867,-3.0588,-2.9625,-2.893,-2.8211,-2.7428,-2.6841,-2.6708,-2.6708,-2.6708,-2.6708,-2.6708,-2.6708,-2.6708,-2.6708,-2.6708,-2.6708,-2.6708,-2.6708,-2.6742,-2.6826,-2.6979,-2.7215,-2.828,-2.9228,-2.9323,-2.9935,-3.0309,-2.9777,-2.9316,-2.874,-2.8328,-2.8052,-2.8116,-2.81,-2.7934,-2.776,-2.7635,-2.7585,-2.7382,-2.6904,-2.6774,-2.6695,-2.6283,-2.5481,-2.4639,-2.4308,-2.3679,-2.3395,-2.3125,-2.3095,-2.3095,-2.3095,-2.3095,-2.3275,-2.3471,-2.3619,-2.3632,-2.3796,-2.3767,-2.3662,-2.359,-2.3275,-2.3365,-2.3649,-2.4002,-2.3914,-2.3796,-2.3738,-2.3619,-2.356,-2.3275,-2.3365,-2.3679,-2.4044,-2.43,-2.4509,-2.4439,-2.4486,-4.5114,-4.4355,-4.3965,-4.3262,-4.2422,-4.2012,-4.1601,-4.125,-4.1191,-4.117,-4.1104,-4.1102,-4.1021,-4.0905,-4.0851,-4.0807,-4.0738,-4.0674,-4.0378,-4.0082,-3.994,-3.9737,-3.9342,-3.9304,-3.8757,-3.7969,-3.7546,-3.6599,-3.5537,-3.4935,-3.4622,-3.4453,-3.3981,-3.3393,-3.2711,-3.2528,-3.1739,-3.0454,-2.9633,-2.8869,-2.7949,-2.7317,-2.6841,-2.6741,-2.6708,-2.6708,-2.6708,-2.6708,-2.6708,-2.6708,-2.6708,-2.6691,-2.6708,-2.6708,-2.6708,-2.6708,-2.6708,-2.6708,-2.7012,-2.7512,-2.8221,-2.8572,-2.9132,-2.9356,-2.9249,-2.885,-2.8415,-2.8042,-2.7795,-2.7585,-2.7585,-2.7585,-2.7585,-2.7585,-2.7585,-2.7265,-2.668,-2.6469,-2.6135,-2.5618,-2.4781,-2.4234,-2.375,-2.3335,-2.3215,-2.3095,-2.3095,-2.3095,-2.3095,-2.3125,-2.3215,-2.3424,-2.3662,-2.3868,-2.406,-2.3972,-2.3632,-2.3454,-2.3185,-2.3501,-2.3972,-2.4337,-2.4709,-2.4567,-2.4394,-2.4394,-2.4295,-2.3989,-2.3901,-2.4439,-2.4821,-2.4943,-2.5014,-2.5011,-2.5088,-4.416,-4.3436,-4.2695,-4.2324,-4.2109,-4.1523,-4.123,-4.1191,-4.1191,-4.1191,-4.1191,-4.1191,-4.1126,-4.1049,-4.0992,-4.0917,-4.0777,-4.0532,-4.0116,-3.9644,-3.9278,-3.8865,-3.8342,-3.8055,-3.7853,-3.7719,-3.7161,-3.6163,-3.5342,-3.4841,-3.4569,-3.4211,-3.3751,-3.3067,-3.2528,-3.2161,-3.1297,-2.9874,-2.9295,-2.8713,-2.7856,-2.7332,-2.6971,-2.6775,-2.6708,-2.6708,-2.6708,-2.6708,-2.6708,-2.6708,-2.6708,-2.6657,-2.6624,-2.6691,-2.6641,-2.6607,-2.6539,-2.6436,-2.6481,-2.702,-2.7701,-2.8096,-2.8611,-2.8925,-2.9211,-2.8873,-2.8439,-2.8165,-2.787,-2.7585,-2.7585,-2.7585,-2.7585,-2.756,-2.7509,-2.7086,-2.6522,-2.6256,-2.5453,-2.4738,-2.4192,-2.3708,-2.3454,-2.3125,-2.3125,-2.3095,-2.3095,-2.3095,-2.3095,-2.3155,-2.3275,-2.3573,-2.3897,-2.4308,-2.4553,-2.4263,-2.3884,-2.3543,-2.3245,-2.3649,-2.4221,-2.4724,-2.5063,-2.5161,-2.5091,-2.5119,-2.5007,-2.4696,-2.4796,-2.5342,-2.5451,-2.5471,-2.5495,-2.5571,-2.5651,-4.3306,-4.2516,-4.2439,-4.2012,-4.1445,-4.125,-4.1191,-4.1191,-4.1191,-4.1191,-4.1191,-4.1191,-4.1191,-4.109,-4.103,-4.0905,-4.0526,-4.0087,-3.9649,-3.9226,-3.8714,-3.8086,-3.7758,-3.7191,-3.6949,-3.6911,-3.6628,-3.6032,-3.525,-3.4822,-3.4508,-3.4076,-3.3369,-3.254,-3.188,-3.0968,-3.0441,-2.9424,-2.8797,-2.8206,-2.7539,-2.7083,-2.6824,-2.6708,-2.6708,-2.6708,-2.6708,-2.6708,-2.6708,-2.6708,-2.6708,-2.6504,-2.6349,-2.6505,-2.6453,-2.6227,-2.6174,-2.6068,-2.593,-2.7019,-2.7822,-2.8418,-2.9001,-2.9475,-2.9313,-2.8865,-2.8343,-2.7894,-2.7735,-2.7585,-2.7585,-2.7585,-2.756,-2.7458,-2.706,-2.6443,-2.5742,-2.5175,-2.4753,-2.4205,-2.3721,-2.3335,-2.3185,-2.3095,-2.3095,-2.3095,-2.3095,-2.3095,-2.3095,-2.3215,-2.3365,-2.3738,-2.4205,-2.4681,-2.5119,-2.4652,-2.4205,-2.3796,-2.359,-2.3842,-2.441,-2.5063,-2.5398,-2.5536,-2.5728,-2.5864,-2.5673,-2.5412,-2.5494,-2.5823,-2.5883,-2.5928,-2.5918,-2.5938,-2.5933,-4.2338,-4.1661,-4.1663,-4.15,-4.123,-4.1191,-4.1191,-4.1191,-4.1191,-4.1191,-4.1191,-4.1191,-4.0918,-4.0625,-4.0465,-4.0176,-3.9648,-3.9316,-3.8778,-3.8266,-3.7754,-3.719,-3.6876,-3.6291,-3.6149,-3.6077,-3.6031,-3.5702,-3.4955,-3.4783,-3.4423,-3.3988,-3.3414,-3.2999,-3.2577,-3.1959,-3.0774,-2.9796,-2.9026,-2.8248,-2.7352,-2.6906,-2.6725,-2.6708,-2.6708,-2.6708,-2.6708,-2.6708,-2.6708,-2.6708,-2.6708,-2.6556,-2.6419,-2.6228,-2.6104,-2.5726,-2.5815,-2.5888,-2.5691,-2.6716,-2.7309,-2.8086,-2.8723,-2.8901,-2.8863,-2.8606,-2.8213,-2.7785,-2.7585,-2.7585,-2.7585,-2.7585,-2.7408,-2.706,-2.6669,-2.5987,-2.5133,-2.458,-2.4147,-2.3826,-2.3454,-2.3215,-2.3155,-2.3095,-2.3095,-2.3095,-2.3095,-2.3095,-2.3095,-2.3185,-2.3335,-2.387,-2.4353,-2.4944,-2.5299,-2.4907,-2.4379,-2.3972,-2.3708,-2.393,-2.4295,-2.4809,-2.5481,-2.5973,-2.6188,-2.6336,-2.6575,-2.6402,-2.6375,-2.6326,-2.6481,-2.658,-2.6391,-2.6326,-2.6291,-4.1432,-4.0959,-4.0988,-4.1074,-4.115,-4.1191,-4.1191,-4.1172,-4.0976,-4.0879,-4.0918,-4.0684,-4.0215,-3.9785,-3.957,-3.9258,-3.8594,-3.8516,-3.7891,-3.7297,-3.6839,-3.6284,-3.5751,-3.5494,-3.5577,-3.5654,-3.5596,-3.5215,-3.4832,-3.4723,-3.4248,-3.366,-3.3526,-3.3421,-3.2981,-3.2247,-3.1672,-3.0776,-2.9972,-2.8823,-2.7583,-2.6923,-2.6708,-2.6708,-2.6708,-2.6708,-2.6708,-2.6708,-2.6708,-2.6708,-2.6674,-2.6573,-2.6367,-2.6034,-2.5542,-2.5089,-2.5392,-2.5596,-2.5583,-2.617,-2.6858,-2.7522,-2.7856,-2.8169,-2.8247,-2.8367,-2.8067,-2.7685,-2.7585,-2.7585,-2.7585,-2.7585,-2.7331,-2.6916,-2.6496,-2.5878,-2.4992,-2.4292,-2.3738,-2.3424,-2.3155,-2.3095,-2.3095,-2.3095,-2.3095,-2.3095,-2.3095,-2.3095,-2.3095,-2.3095,-2.3313,-2.3914,-2.4498,-2.5163,-2.5351,-2.5089,-2.452,-2.3972,-2.3649,-2.359,-2.3959,-2.4394,-2.5147,-2.5919,-2.6336,-2.6496,-2.693,-2.7111,-2.6707,-2.663,-2.7051,-2.6847,-2.6072,-2.6229,-2.6574,-4.0798,-4.0756,-4.0925,-4.1,-4.1031,-4.1149,-4.1191,-4.1113,-4.0449,-4.0059,-4.0117,-3.9336,-3.8965,-3.8769,-3.8672,-3.8613,-3.832,-3.7773,-3.7305,-3.6883,-3.6323,-3.5896,-3.5612,-3.5528,-3.5494,-3.55,-3.55,-3.5171,-3.4803,-3.4694,-3.3982,-3.3091,-3.2821,-3.2522,-3.2192,-3.1898,-3.0927,-3.0012,-2.966,-2.8802,-2.75,-2.6923,-2.6775,-2.6708,-2.6708,-2.6708,-2.6708,-2.6708,-2.6708,-2.6708,-2.6708,-2.6263,-2.5561,-2.5354,-2.4716,-2.4282,-2.4199,-2.441,-2.4431,-2.5532,-2.6528,-2.7248,-2.8094,-2.8691,-2.8512,-2.8042,-2.7735,-2.7635,-2.7585,-2.7585,-2.7585,-2.7585,-2.7524,-2.6982,-2.6283,-2.5755,-2.5007,-2.3943,-2.3395,-2.3275,-2.3125,-2.3095,-2.3095,-2.3095,-2.3095,-2.3095,-2.3095,-2.3108,-2.3158,-2.3208,-2.3867,-2.4626,-2.4863,-2.5437,-2.5554,-2.529,-2.4543,-2.3936,-2.359,-2.3305,-2.3619,-2.4105,-2.4922,-2.5618,-2.6027,-2.6469,-2.6759,-2.6811,-2.668,-2.6748,-2.6947,-2.6237,-2.5211,-2.579,-2.6721,-4.0636,-4.0709,-4.081,-4.0903,-4.0996,-4.1056,-4.1128,-4.0996,-4.0293,-3.9883,-3.9726,-3.8984,-3.8359,-3.7891,-3.7402,-3.7129,-3.7051,-3.6777,-3.6543,-3.6487,-3.5978,-3.5671,-3.56,-3.5534,-3.5488,-3.55,-3.5446,-3.5179,-3.4851,-3.4567,-3.3994,-3.2796,-3.2583,-3.2559,-3.1935,-3.1617,-3.1078,-3.0252,-2.9295,-2.8234,-2.7478,-2.7131,-2.6923,-2.6708,-2.6708,-2.6708,-2.6708,-2.6708,-2.6708,-2.6708,-2.6708,-2.6556,-2.5998,-2.5598,-2.5047,-2.5125,-2.4572,-2.4348,-2.4347,-2.5629,-2.6374,-2.7077,-2.8068,-2.8646,-2.8415,-2.7968,-2.7585,-2.7585,-2.7585,-2.7585,-2.7585,-2.7585,-2.7331,-2.6852,-2.6162,-2.5481,-2.4838,-2.3842,-2.3125,-2.3095,-2.3095,-2.3095,-2.3095,-2.3095,-2.3095,-2.3095,-2.312,-2.3133,-2.3296,-2.3496,-2.4416,-2.5666,-2.5716,-2.5751,-2.5727,-2.5515,-2.4462,-2.3782,-2.3395,-2.3228,-2.3335,-2.3842,-2.4525,-2.5035,-2.5398,-2.585,-2.6388,-2.6814,-2.6948,-2.6869,-2.6774,-2.6189,-2.5678,-2.6044,-2.6971,-4.0559,-4.0662,-4.068,-4.0786,-4.0931,-4.0981,-4.0917,-4.07,-3.9922,-3.9434,-3.9043,-3.8301,-3.7519,-3.7012,-3.6406,-3.6211,-3.6074,-3.6016,-3.5957,-3.5882,-3.5761,-3.5671,-3.5586,-3.5521,-3.55,-3.55,-3.55,-3.5179,-3.4841,-3.4557,-3.3975,-3.2645,-3.2601,-3.2564,-3.2381,-3.183,-3.1197,-3.0875,-2.9257,-2.8285,-2.7831,-2.7345,-2.6989,-2.6791,-2.6708,-2.6708,-2.6708,-2.6708,-2.6708,-2.6691,-2.6539,-2.6349,-2.6016,-2.5524,-2.5202,-2.5182,-2.4796,-2.4833,-2.5113,-2.5903,-2.6508,-2.7047,-2.7735,-2.8247,-2.8174,-2.781,-2.7585,-2.7585,-2.7585,-2.7585,-2.7585,-2.7585,-2.7433,-2.693,-2.6256,-2.5425,-2.4652,-2.3959,-2.3335,-2.3095,-2.3095,-2.3095,-2.3095,-2.3095,-2.3095,-2.3095,-2.312,-2.3158,-2.3434,-2.3735,-2.4684,-2.5841,-2.5876,-2.5775,-2.5713,-2.5375,-2.4359,-2.3738,-2.3349,-2.3163,-2.3296,-2.339,-2.3767,-2.425,-2.4808,-2.5259,-2.5796,-2.6553,-2.7184,-2.6554,-2.6153,-2.6593,-2.6585,-2.6927,-2.7511,-4.0504,-4.0527,-4.0655,-4.0709,-4.0745,-4.0925,-4.0545,-3.9891,-3.9079,-3.8281,-3.7539,-3.6699,-3.6367,-3.6133,-3.6133,-3.6016,-3.6016,-3.6016,-3.5957,-3.5885,-3.5783,-3.5659,-3.5601,-3.5552,-3.55,-3.55,-3.5493,-3.5198,-3.4813,-3.4684,-3.3844,-3.2796,-3.2669,-3.2619,-3.2417,-3.1971,-3.1494,-3.1034,-2.9683,-2.8902,-2.8331,-2.7634,-2.6791,-2.6741,-2.6708,-2.6708,-2.6708,-2.6708,-2.6691,-2.6657,-2.6349,-2.6104,-2.5819,-2.5411,-2.5182,-2.5166,-2.5089,-2.5274,-2.5815,-2.6082,-2.6114,-2.6303,-2.6862,-2.7785,-2.781,-2.771,-2.7585,-2.7585,-2.7585,-2.7585,-2.7585,-2.756,-2.7484,-2.7203,-2.6575,-2.5878,-2.5133,-2.4452,-2.3842,-2.3305,-2.3095,-2.3095,-2.3095,-2.3095,-2.3095,-2.3095,-2.312,-2.3158,-2.3672,-2.4079,-2.4791,-2.5544,-2.5695,-2.5679,-2.5597,-2.5062,-2.4488,-2.3995,-2.3583,-2.3346,-2.3251,-2.3334,-2.3378,-2.3913,-2.454,-2.4862,-2.523,-2.5869,-2.6148,-2.5632,-2.5612,-2.6281,-2.74,-2.8116,-2.8838,-4.0496,-4.0504,-4.0559,-4.063,-4.0703,-4.0777,-4.0377,-3.9583,-3.8816,-3.771,-3.6504,-3.6172,-3.6016,-3.6016,-3.6016,-3.6016,-3.6016,-3.6016,-3.5996,-3.5918,-3.5792,-3.5693,-3.563,-3.5568,-3.55,-3.55,-3.5486,-3.5223,-3.4744,-3.4694,-3.4213,-3.3481,-3.2852,-3.2638,-3.2417,-3.232,-3.1935,-3.1168,-3.012,-2.9203,-2.8214,-2.7652,-2.6938,-2.6708,-2.6708,-2.6708,-2.6708,-2.6708,-2.6708,-2.659,-2.6228,-2.6034,-2.589,-2.5524,-2.543,-2.5489,-2.5468,-2.5586,-2.6041,-2.6351,-2.6474,-2.6937,-2.7315,-2.754,-2.7465,-2.7555,-2.7585,-2.7585,-2.754,-2.7495,-2.757,-2.7585,-2.7534,-2.7423,-2.6971,-2.6229,-2.5481,-2.4724,-2.3989,-2.3305,-2.3125,-2.3095,-2.3095,-2.3095,-2.3095,-2.3108,-2.312,-2.3283,-2.3873,-2.4425,-2.5113,-2.5684,-2.5883,-2.61,-2.6039,-2.5451,-2.4739,-2.4293,-2.3866,-2.3684,-2.3534,-2.3183,-2.3338,-2.3829,-2.4196,-2.4439,-2.4758,-2.517,-2.5333,-2.5332,-2.5721,-2.6293,-2.757,-2.9111,-2.9791,-4.0496,-4.0496,-4.0496,-4.0552,-4.061,-4.0389,-3.9873,-3.9096,-3.8308,-3.7273,-3.5973,-3.5996,-3.6016,-3.6016,-3.6016,-3.6016,-3.6016,-3.6016,-3.6016,-3.5937,-3.5806,-3.572,-3.5655,-3.5574,-3.55,-3.55,-3.5453,-3.5223,-3.4714,-3.4694,-3.4076,-3.345,-3.3151,-3.3041,-3.2986,-3.2894,-3.2559,-3.1675,-3.0602,-2.9605,-2.872,-2.7727,-2.71,-2.6775,-2.6708,-2.6708,-2.6708,-2.6708,-2.6708,-2.6556,-2.6332,-2.6192,-2.6087,-2.5998,-2.5926,-2.5997,-2.5979,-2.5701,-2.6113,-2.6163,-2.642,-2.6603,-2.7061,-2.7091,-2.7091,-2.7165,-2.7151,-2.6896,-2.7061,-2.7315,-2.7375,-2.7405,-2.7555,-2.7473,-2.6904,-2.6203,-2.5481,-2.4724,-2.3959,-2.3245,-2.3185,-2.3108,-2.3246,-2.3308,-2.3534,-2.3622,-2.3847,-2.4036,-2.4506,-2.4985,-2.5398,-2.5907,-2.6274,-2.6504,-2.6646,-2.5695,-2.4858,-2.4833,-2.4443,-2.4192,-2.3966,-2.3622,-2.3597,-2.4196,-2.4376,-2.4131,-2.4403,-2.4992,-2.5266,-2.541,-2.6146,-2.7113,-2.8366,-2.9813,-3.0247,-4.0477,-4.0496,-4.0439,-4.0427,-4.0349,-3.9734,-3.8961,-3.8111,-3.7343,-3.6615,-3.597,-3.5957,-3.5996,-3.5996,-3.6016,-3.6016,-3.6016,-3.6016,-3.6016,-3.5957,-3.5799,-3.572,-3.565,-3.5582,-3.55,-3.55,-3.5398,-3.5127,-3.4572,-3.4406,-3.3761,-3.3326,-3.3275,-3.3605,-3.3715,-3.3752,-3.3348,-3.2525,-3.137,-3.0639,-2.9565,-2.8209,-2.7373,-2.6808,-2.6708,-2.6708,-2.6708,-2.6708,-2.6708,-2.6624,-2.6244,-2.612,-2.6138,-2.6033,-2.5997,-2.6086,-2.5979,-2.62,-2.6751,-2.5914,-2.572,-2.5997,-2.6528,-2.6422,-2.6063,-2.6198,-2.6611,-2.6452,-2.6611,-2.6767,-2.6916,-2.7195,-2.7465,-2.7433,-2.6904,-2.6416,-2.5728,-2.5007,-2.4295,-2.356,-2.3275,-2.3133,-2.3333,-2.3559,-2.3941,-2.4217,-2.4512,-2.48,-2.5059,-2.5317,-2.5618,-2.5903,-2.6291,-2.6333,-2.6289,-2.5582,-2.5034,-2.5071,-2.5021,-2.477,-2.4619,-2.4424,-2.4499,-2.4757,-2.4633,-2.4462,-2.4608,-2.4879,-2.5722,-2.6645,-2.742,-2.8424,-2.9568,-3.0366,-3.0764,-4.0035,-4.04,-3.9296,-3.9181,-3.9619,-3.9446,-3.8529,-3.718,-3.642,-3.6011,-3.5931,-3.5919,-3.5972,-3.5996,-3.6016,-3.6016,-3.6016,-3.6016,-3.6016,-3.5976,-3.5795,-3.5723,-3.5659,-3.5577,-3.5488,-3.5446,-3.5308,-3.4759,-3.3808,-3.383,-3.3369,-3.2906,-3.322,-3.3752,-3.3788,-3.3752,-3.3385,-3.2659,-3.1874,-3.1049,-2.9618,-2.8576,-2.7664,-2.6826,-2.6759,-2.6759,-2.6708,-2.6708,-2.6708,-2.6657,-2.6262,-2.6191,-2.6279,-2.6245,-2.6157,-2.6157,-2.6015,-2.5185,-2.5091,-2.4629,-2.5234,-2.568,-2.5892,-2.5809,-2.5689,-2.6228,-2.6333,-2.6408,-2.6716,-2.6991,-2.7405,-2.745,-2.7585,-2.7585,-2.7214,-2.6878,-2.631,-2.5563,-2.4796,-2.4076,-2.3619,-2.3515,-2.3577,-2.3853,-2.4192,-2.4556,-2.4838,-2.4888,-2.5096,-2.536,-2.5652,-2.5841,-2.6068,-2.6093,-2.5908,-2.5536,-2.5272,-2.5234,-2.5335,-2.5347,-2.5234,-2.5159,-2.5172,-2.5272,-2.5034,-2.4833,-2.5261,-2.5865,-2.7175,-2.8184,-2.8865,-2.9298,-3.0054,-3.0719,-3.1203,-3.9142,-3.9496,-3.845,-3.8123,-3.8392,-3.8411,-3.7565,-3.6342,-3.5797,-3.567,-3.5774,-3.5862,-3.5916,-3.5971,-3.5996,-3.6016,-3.6016,-3.6016,-3.6016,-3.5976,-3.5817,-3.5723,-3.5659,-3.5566,-3.5515,-3.5427,-3.5197,-3.4658,-3.3535,-3.326,-3.2962,-3.2784,-3.2871,-3.322,-3.3495,-3.3715,-3.3605,-3.2962,-3.2365,-3.1415,-3.0224,-2.919,-2.8268,-2.7488,-2.7097,-2.7012,-2.6793,-2.6708,-2.6708,-2.659,-2.6504,-2.6384,-2.6487,-2.6487,-2.6401,-2.635,-2.5764,-2.495,-2.4603,-2.4036,-2.4673,-2.5376,-2.5342,-2.5144,-2.5196,-2.5644,-2.5854,-2.6123,-2.6826,-2.7151,-2.73,-2.7345,-2.7555,-2.7555,-2.728,-2.693,-2.659,-2.5837,-2.5063,-2.4366,-2.3923,-2.3833,-2.3759,-2.413,-2.4443,-2.4808,-2.5172,-2.5159,-2.5164,-2.5548,-2.5799,-2.5984,-2.6097,-2.6135,-2.6109,-2.5921,-2.5636,-2.5435,-2.5523,-2.5674,-2.5896,-2.5799,-2.5787,-2.5774,-2.5674,-2.5739,-2.6148,-2.6952,-2.8147,-2.9256,-3.0141,-3.0482,-3.0673,-3.0955,-3.1332,-3.7962,-3.8007,-3.793,-3.745,-3.6827,-3.6808,-3.6269,-3.5571,-3.5574,-3.5605,-3.5636,-3.5808,-3.5869,-3.5887,-3.5972,-3.5996,-3.6016,-3.6016,-3.6016,-3.5957,-3.5801,-3.5732,-3.562,-3.5444,-3.5232,-3.5308,-3.4981,-3.4015,-3.3318,-3.2794,-3.2553,-3.2348,-3.1916,-3.2412,-3.3054,-3.3476,-3.3473,-3.3177,-3.269,-3.1775,-3.0757,-2.9894,-2.8801,-2.7947,-2.7452,-2.7148,-2.6877,-2.6708,-2.6708,-2.6691,-2.6657,-2.6674,-2.6708,-2.6708,-2.6708,-2.6419,-2.5672,-2.5319,-2.4796,-2.4122,-2.4,-2.4581,-2.4563,-2.4199,-2.4418,-2.5151,-2.56,-2.5824,-2.6303,-2.6572,-2.6782,-2.7151,-2.748,-2.7308,-2.706,-2.68,-2.6575,-2.5973,-2.5203,-2.4595,-2.4176,-2.3918,-2.3649,-2.3929,-2.4368,-2.4795,-2.5096,-2.5297,-2.5435,-2.5975,-2.621,-2.6248,-2.6311,-2.6273,-2.616,-2.5824,-2.5649,-2.5335,-2.5699,-2.5933,-2.6172,-2.6336,-2.6235,-2.6197,-2.6373,-2.665,-2.721,-2.803,-2.9039,-3.0072,-3.0896,-3.1087,-3.1087,-3.0879,-3.1122,-3.7263,-3.7853,-3.6738,-3.6404,-3.6596,-3.6096,-3.5712,-3.5526,-3.5528,-3.5558,-3.5616,-3.5663,-3.5728,-3.5764,-3.5862,-3.5897,-3.5928,-3.5976,-3.6016,-3.5859,-3.5531,-3.5654,-3.5422,-3.4963,-3.4687,-3.4312,-3.3806,-3.3127,-3.2068,-3.1713,-3.1331,-3.0858,-3.1213,-3.1745,-3.2173,-3.2669,-3.2999,-3.316,-3.2788,-3.211,-3.1117,-3.0124,-2.8991,-2.8099,-2.7401,-2.7046,-2.6793,-2.6708,-2.6708,-2.6708,-2.6708,-2.6708,-2.6708,-2.6691,-2.664,-2.6227,-2.5799,-2.5486,-2.4756,-2.4343,-2.409,-2.39,-2.3921,-2.4177,-2.4433,-2.5001,-2.563,-2.5854,-2.6243,-2.6707,-2.6956,-2.7225,-2.745,-2.7373,-2.7214,-2.7137,-2.6837,-2.6229,-2.5453,-2.4738,-2.4308,-2.3761,-2.3495,-2.3647,-2.413,-2.4607,-2.4971,-2.5172,-2.546,-2.5912,-2.6172,-2.6147,-2.6072,-2.5896,-2.5711,-2.5435,-2.536,-2.531,-2.5749,-2.6135,-2.6311,-2.6436,-2.6474,-2.6555,-2.6624,-2.7417,-2.8405,-2.9115,-2.9628,-3.0539,-3.1336,-3.1438,-3.1436,-3.124,-3.1106,-3.6288,-3.6839,-3.5942,-3.5788,-3.6096,-3.5712,-3.55,-3.55,-3.55,-3.5528,-3.5562,-3.559,-3.5616,-3.5683,-3.5807,-3.571,-3.5341,-3.5332,-3.5234,-3.4766,-3.4917,-3.4656,-3.4392,-3.4148,-3.3805,-3.3391,-3.2976,-3.2445,-3.1309,-3.049,-3.0072,-3.0362,-3.0791,-3.1085,-3.1494,-3.1928,-3.2092,-3.2426,-3.2496,-3.2139,-3.1273,-3.0246,-2.9231,-2.8014,-2.73,-2.7012,-2.6725,-2.6708,-2.6708,-2.6708,-2.6708,-2.6708,-2.6708,-2.6691,-2.6657,-2.6279,-2.5781,-2.5411,-2.4835,-2.4266,-2.3948,-2.3687,-2.361,-2.3999,-2.4567,-2.5166,-2.563,-2.5989,-2.6587,-2.7121,-2.721,-2.733,-2.745,-2.753,-2.7545,-2.756,-2.706,-2.6443,-2.5701,-2.4894,-2.4229,-2.3633,-2.3434,-2.3584,-2.3828,-2.4217,-2.4506,-2.4695,-2.4946,-2.5297,-2.5473,-2.5498,-2.5423,-2.531,-2.5222,-2.5347,-2.5473,-2.5649,-2.6072,-2.6373,-2.6487,-2.6487,-2.6487,-2.6658,-2.685,-2.7736,-2.8716,-2.938,-3.0011,-3.0896,-3.1611,-3.1739,-3.171,-3.1593,-3.1476,-3.5269,-3.5558,-3.55,-3.5519,-3.55,-3.55,-3.55,-3.55,-3.55,-3.5488,-3.5509,-3.5548,-3.5526,-3.5369,-3.545,-3.5093,-3.4706,-3.4531,-3.4297,-3.3437,-3.3688,-3.3661,-3.3492,-3.3022,-3.2899,-3.2832,-3.2442,-3.1663,-3.0988,-3.0236,-2.9853,-3.0135,-3.0081,-3.032,-3.0779,-3.1146,-3.1263,-3.1284,-3.1974,-3.2164,-3.1294,-3.0537,-2.973,-2.8219,-2.7622,-2.7334,-2.6877,-2.6708,-2.6708,-2.6708,-2.6708,-2.6708,-2.6708,-2.6708,-2.6674,-2.6453,-2.589,-2.543,-2.4953,-2.4369,-2.3879,-2.3659,-2.361,-2.3894,-2.4388,-2.4933,-2.5375,-2.5824,-2.6348,-2.6821,-2.6986,-2.7106,-2.724,-2.745,-2.7585,-2.7408,-2.6982,-2.6162,-2.5147,-2.4394,-2.3822,-2.3251,-2.3233,-2.3371,-2.3434,-2.3816,-2.3979,-2.4142,-2.433,-2.4632,-2.4996,-2.5013,-2.5001,-2.5109,-2.541,-2.5561,-2.582,-2.6072,-2.6348,-2.6474,-2.6487,-2.6487,-2.6487,-2.6679,-2.6952,-2.7868,-2.878,-2.9518,-3.0269,-3.1117,-3.1697,-3.1979,-3.2007,-3.2007,-3.216,-3.5079,-3.55,-3.55,-3.55,-3.55,-3.55,-3.55,-3.55,-3.55,-3.5462,-3.5494,-3.5451,-3.5155,-3.4708,-3.469,-3.4282,-3.3709,-3.3607,-3.3529,-3.3281,-3.3128,-3.2879,-3.2944,-3.2353,-3.2125,-3.1785,-3.1347,-3.0878,-3.0281,-2.9794,-2.9453,-2.9338,-2.9354,-2.9641,-2.9843,-3.0191,-3.0436,-3.0347,-3.1008,-3.1331,-3.0518,-2.9553,-2.8541,-2.7945,-2.7623,-2.7046,-2.6708,-2.6708,-2.6708,-2.6708,-2.6708,-2.6708,-2.6708,-2.6708,-2.6708,-2.659,-2.6086,-2.5561,-2.507,-2.4491,-2.397,-2.3681,-2.361,-2.3699,-2.3999,-2.4515,-2.5023,-2.5486,-2.5989,-2.6437,-2.6821,-2.6956,-2.7081,-2.736,-2.756,-2.7229,-2.6893,-2.5755,-2.4595,-2.3914,-2.3305,-2.3168,-2.3125,-2.3133,-2.3183,-2.3246,-2.3296,-2.3396,-2.3496,-2.3785,-2.472,-2.487,-2.4825,-2.4996,-2.5335,-2.5573,-2.5745,-2.6021,-2.6285,-2.6399,-2.6487,-2.6487,-2.6521,-2.6748,-2.7175,-2.8182,-2.9066,-2.9721,-3.051,-3.1307,-3.1938,-3.2272,-3.2664,-3.2772,-3.2997,-3.5008,-3.5467,-3.55,-3.55,-3.55,-3.55,-3.55,-3.5442,-3.5096,-3.493,-3.4911,-3.4891,-3.4622,-3.4077,-3.3933,-3.335,-3.2749,-3.2705,-3.2412,-3.2305,-3.2363,-3.2083,-3.1836,-3.1598,-3.1334,-3.0979,-3.0685,-3.0233,-2.9773,-2.9661,-2.9475,-2.9071,-2.8987,-2.9005,-2.906,-2.9482,-2.9702,-2.9702,-3.0228,-3.0077,-2.9669,-2.9033,-2.8293,-2.7894,-2.7262,-2.6758,-2.6708,-2.6708,-2.6708,-2.6708,-2.6708,-2.6708,-2.6708,-2.6708,-2.6708,-2.6487,-2.6052,-2.5505,-2.507,-2.4516,-2.397,-2.3702,-2.3595,-2.367,-2.367,-2.4193,-2.4739,-2.527,-2.6093,-2.6611,-2.7091,-2.7315,-2.736,-2.754,-2.7433,-2.7188,-2.6522,-2.5536,-2.4439,-2.3471,-2.3138,-2.3138,-2.3095,-2.3108,-2.3145,-2.3145,-2.312,-2.3158,-2.3158,-2.3233,-2.4117,-2.4632,-2.4582,-2.47,-2.5034,-2.5272,-2.5473,-2.5787,-2.626,-2.6373,-2.6487,-2.6499,-2.6568,-2.7007,-2.767,-2.8652,-2.9473,-3.0133,-3.0673,-3.138,-3.2064,-3.2641,-3.3066,-3.3556,-3.3912,-3.5027,-3.546,-3.55,-3.55,-3.55,-3.55,-3.5404,-3.5199,-3.4545,-3.4129,-3.3987,-3.3898,-3.3898,-3.3646,-3.3249,-3.2484,-3.1955,-3.1824,-3.1405,-3.123,-3.1113,-3.123,-3.1092,-3.075,-3.0704,-3.0608,-3.0371,-3.0073,-2.9695,-2.9616,-2.9416,-2.9071,-2.8987,-2.8987,-2.8987,-2.9005,-2.9115,-2.9152,-2.9317,-2.9152,-2.9033,-2.8972,-2.8325,-2.7618,-2.702,-2.6774,-2.6725,-2.6708,-2.6708,-2.6708,-2.6708,-2.6708,-2.6708,-2.6708,-2.659,-2.6384,-2.5764,-2.5316,-2.4891,-2.4184,-2.3815,-2.3595,-2.3595,-2.3595,-2.361,-2.3999,-2.4552,-2.5241,-2.6078,-2.6656,-2.7121,-2.754,-2.757,-2.7509,-2.7331,-2.7008,-2.6162,-2.5328,-2.4295,-2.3245,-2.3095,-2.3125,-2.3095,-2.3095,-2.3095,-2.3095,-2.312,-2.317,-2.3233,-2.3346,-2.3828,-2.4142,-2.4192,-2.4406,-2.4971,-2.5285,-2.5624,-2.5937,-2.6399,-2.6449,-2.6487,-2.6487,-2.6816,-2.755,-2.8279,-2.9083,-2.995,-3.0688,-3.119,-3.1611,-3.2394,-3.3145,-3.371,-3.4235,-3.48,-3.5027,-3.55,-3.55,-3.55,-3.55,-3.5481,-3.5096,-3.4507,-3.4263,-3.384,-3.3122,-3.2449,-3.2179,-3.2199,-3.2088,-3.1618,-3.1161,-3.1028,-3.1047,-3.0918,-3.0918,-3.082,-3.0734,-3.0643,-3.0529,-3.0407,-3.0248,-2.9947,-2.9722,-2.9542,-2.9312,-2.901,-2.8987,-2.8987,-2.8987,-2.8987,-2.8987,-2.8987,-2.8987,-2.8987,-2.8887,-2.8721,-2.8309,-2.7797,-2.7411,-2.7051,-2.6808,-2.6708,-2.6708,-2.6708,-2.6708,-2.6708,-2.6708,-2.6674,-2.6573,-2.6262,-2.5617,-2.5144,-2.4637,-2.4032,-2.3681,-2.3595,-2.3595,-2.3595,-2.3774,-2.4126,-2.4709,-2.533,-2.6004,-2.6357,-2.6821,-2.7405,-2.756,-2.7408,-2.7255,-2.6602,-2.5851,-2.5091,-2.4221,-2.356,-2.3168,-2.3138,-2.3095,-2.3095,-2.3095,-2.3095,-2.3095,-2.317,-2.3434,-2.3521,-2.3602,-2.3853,-2.4017,-2.4933,-2.5883,-2.5845,-2.6084,-2.6348,-2.6487,-2.6487,-2.6487,-2.6487,-2.6939,-2.7868,-2.8588,-2.9348,-3.0208,-3.1102,-3.1623,-3.2104,-3.2906,-3.3649,-3.4235,-3.4759,-3.5207]},{"header":{"parameterUnit":"m.s-1","parameterCategory":1,"la1":31.0,"la2":29.5877,"lo1":-88.7671,"lo2":-86.6584,"dy":0.0162,"dx":0.0185,"nx":115,"ny":88,"refTime":"2026-04-18T00:00:00:Z","depth":0,"parameterNumber":3,"parameterNumberName":"V-component_of_WINDS"},"data":[0.0,0.0,0.0,0.0,0.0,0.0,0.0,0.0,0.0,0.0,0.0,0.0,0.0,0.0,0.0,0.0,0.0,0.0,0.0,0.0,0.0,0.0,0.0,0.0,0.0,0.0,0.0,0.0,0.0,0.0,0.0,0.0,0.0,0.0,0.0,0.0,0.0,0.0,0.0,0.0,0.0,0.0,0.0,0.0,0.0,0.0,0.0,0.0,0.0,0.0,0.0,0.0,0.0,0.0,0.0,0.0,0.0,0.0,0.0,0.0,0.0,0.0,0.0,0.0,0.0,0.0,0.0,0.0,0.0,0.0,0.0,0.0,0.0,0.0,0.0,0.0,0.0,0.0,0.0,0.0,0.0,0.0,0.0,0.0,0.0,0.0,0.0,0.0,0.0,0.0,0.0,0.0,0.0,0.0,0.0,0.0,0.0,0.0,0.0,0.0,0.0,0.0,0.0,0.0,0.0,0.0,0.0,0.0,0.0,0.0,0.0,0.0,0.0,0.0,0.0,0.0,0.0,0.0,0.0,0.0,0.0,0.0,0.0,0.0,0.0,0.0,0.0,0.0,0.0,0.0,0.0,0.0,0.0,0.0,0.0,0.0,0.0,0.0,0.0,0.0,0.0,0.0,0.0,0.0,0.0,0.0,0.0,0.0,0.0,0.0,0.0,0.0,0.0,0.0,0.0,0.0,0.0,0.0,0.0,0.0,0.0,0.0,0.0,0.0,0.0,0.0,0.0,0.0,0.0,0.0,0.0,0.0,0.0,0.0,0.0,0.0,0.0,0.0,0.0,0.0,0.0,0.0,0.0,0.0,0.0,0.0,0.0,0.0,0.0,0.0,0.0,0.0,0.0,0.0,0.0,0.0,0.0,0.0,0.0,0.0,0.0,0.0,0.0,0.0,0.0,0.0,0.0,0.0,0.0,0.0,0.0,0.0,0.0,0.0,0.0,0.0,0.0,0.0,0.0,0.0,0.0,0.0,0.0,0.0,0.0,0.0,0.0,0.0,0.0,0.0,0.0,0.0,0.0,0.0,0.0,0.0,0.0,0.0,0.0,0.0,0.0,0.0,0.0,0.0,0.0,0.0,0.0,0.0,0.0,0.0,0.0,0.0,0.0,0.0,0.0,0.0,0.0,0.0,0.0,0.0,0.0,0.0,0.0,0.0,0.0,0.0,0.0,0.0,0.0,0.0,0.0,0.0,0.0,0.0,0.0,0.0,0.0,0.0,0.0,0.0,0.0,0.0,0.0,0.0,0.0,0.0,0.0,0.0,0.0,0.0,0.0,0.0,0.0,0.0,0.0,0.0,0.0,0.0,0.0,0.0,0.0,0.0,0.0,0.0,0.0,0.0,0.0,0.0,0.0,0.0,0.0,0.0,0.0,0.0,0.0,0.0,0.0,0.0,0.0,0.0,0.0,0.0,0.0,0.0,0.0,0.0,0.0,0.0,0.0,0.0,0.0,0.0,0.0,0.0,0.0,0.0,0.0,0.0,0.0,0.0,0.0,0.0,0.0,0.0,0.0,0.0,0.0,0.0,0.0,0.0,0.0,0.0,0.0,0.0,0.0,0.0,0.0,0.0,0.0,0.0,0.0,0.0,0.0,0.0,0.0,0.0,0.0,0.0,0.0,0.0,0.0,0.0,0.0,0.0,0.0,0.0,0.0,0.0,0.0,0.0,0.0,0.0,0.0,0.0,0.0,0.0,0.0,0.0,0.0,0.0,0.0,0.0,0.0,0.0,0.0,0.0,0.0,0.0,0.0,0.0,0.0,0.0,0.0,0.0,0.0,0.0,0.0,0.0,0.0,0.0,0.0,0.0,0.0,0.0,0.0,0.0,0.0,0.0,0.0,0.0,0.0,0.0,0.0,0.0,0.0,0.0,0.0,0.0,0.0,0.0,0.0,0.0,0.0,0.0,0.0,0.0,0.0,0.0,0.0,0.0,0.0,0.0,0.0,0.0,0.0,0.0,0.0,0.0,0.0,0.0,0.0,0.0,0.0,0.0,0.0,0.0,0.0,0.0,0.0,0.0,0.0,0.0,0.0,0.0,0.0,0.0,0.0,0.0,0.0,0.0,0.0,0.0,0.0,0.0,0.0,0.0,0.0,0.0,0.0,0.0,0.0,0.0,0.0,0.0,0.0,0.0,0.0,0.0,0.0,0.0,0.0,0.0,0.0,0.0,0.0,0.0,0.0,0.0,0.0,0.0,0.0,0.0,0.0,0.0,0.0,0.0,0.0,0.0,0.0,0.0,0.0,0.0,0.0,0.0,0.0,0.0,0.0,0.0,0.0,0.0,0.0,0.0,0.0,0.0,0.0,0.0,0.0,0.0,0.0,0.0,0.0,0.0,0.0,0.0,0.0,0.0,0.0,0.0,0.0,0.0,0.0,0.0,0.0,0.0,0.0,0.0,0.0,0.0,0.0,0.0,0.0,0.0,0.0,0.0,0.0,0.0,0.0,0.0,0.0,0.0,0.0,0.0,0.0,0.0,0.0,0.0,0.0,0.0,0.0,0.0,0.0,0.0,0.0,0.0,0.0,0.0,0.0,0.0,0.0,0.0,0.0,0.0,0.0,0.0,0.0,0.0,0.0,0.0,0.0,0.0,0.0,0.0,0.0,0.0,0.0,0.0,0.0,0.0,0.0,0.0,0.0,0.0,0.0,0.0,0.0,0.0,0.0,0.0,0.0,0.0,0.0,0.0,0.0,0.0,0.0,0.0,0.0,0.0,0.0,0.0,0.0,0.0,0.0,0.0,0.0,0.0,0.0,0.0,0.0,0.0,0.0,0.0,0.0,0.0,0.0,0.0,0.0,0.0,0.0,0.0,0.0,0.0,0.0,0.0,0.0,0.0,0.0,0.0,0.0,0.0,0.0,0.0,0.0,0.0,0.0,0.0,0.0,0.0,0.0,0.0,0.0,0.0,0.0,0.0,0.0,0.0,0.0,0.0,0.0,0.0,0.0,0.0,0.0,0.0,0.0,0.0,0.0,0.0,0.0,0.0,0.0,0.0,0.0,0.0,0.0,0.0,0.0,0.0,0.0,0.0,0.0,0.0,0.0,0.0,0.0,0.0,0.0,0.0,0.0,0.0,0.0,0.0,0.0,0.0,0.0,0.0,0.0,0.0,0.0,0.0,0.0,0.0,0.0,0.0,0.0,0.0,0.0,0.0,0.0,0.0,0.0,0.0,0.0,0.0,0.0,0.0,0.0,0.0,0.0,0.0,0.0,0.0,0.0,0.0,0.0,0.0,0.0,0.0,0.0,0.0,0.0,0.0,0.0,0.0,0.0,0.0,0.0,0.0,0.0,0.0,0.0,0.0,0.0,0.0,0.0,0.0,0.0,0.0,0.0,0.0,0.0,0.0,0.0,0.0,0.0,0.0,0.0,0.0,0.0,0.0,0.0,0.0,0.0,0.0,0.0,0.0,0.0,0.0,0.0,0.0,0.0,0.0,0.0,0.0,0.0,0.0,0.0,0.0,0.0,0.0,0.0,0.0,0.0,0.0,0.0,0.0,0.0,0.0,0.0,0.0,0.0,0.0,0.0,0.0,0.0,0.0,0.0,0.0,0.0,0.0,0.0,0.0,0.0,0.0,0.0,0.0,0.0,0.0,0.0,0.0,0.0,0.0,0.0,0.0,0.0,0.0,0.0,0.0,0.0,0.0,0.0,0.0,0.0,0.0,0.0,0.0,0.0,0.0,0.0,0.0,0.0,0.0,0.0,0.0,0.0,0.0,0.0,0.0,0.0,0.0,0.0,0.0,0.0,0.0,0.0,0.0,0.0,0.0,0.0,0.0,0.0,0.0,0.0,0.0,0.0,0.0,0.0,0.0,0.0,0.0,0.0,0.0,0.0,0.0,0.0,0.0,0.0,0.0,0.0,0.0,0.0,0.0,0.0,0.0,0.0,0.0,0.0,0.0,0.0,0.0,0.0,0.0,0.0,0.0,0.0,0.0,0.0,0.0,0.0,0.0,0.0,0.0,0.0,0.0,0.0,0.0,0.0,0.0,0.0,0.0,0.0,0.0,0.0,0.0,0.0,0.0,0.0,0.0,0.0,0.0,0.0,0.0,0.0,0.0,0.0,0.0,0.0,0.0,0.0,0.0,0.0,0.0,0.0,0.0,0.0,0.0,0.0,0.0,0.0,0.0,0.0,0.0,0.0,0.0,0.0,0.0,0.0,0.0,0.0,0.0,0.0,0.0,0.0,0.0,0.0,0.0,0.0,0.0,0.0,0.0,0.0,0.0,0.0,0.0,0.0,0.0,-1.336,0.0,0.0,0.0,0.0,0.0,0.0,0.0,0.0,0.0,0.0,0.0,0.0,0.0,0.0,0.0,0.0,0.0,0.0,0.0,0.0,0.0,0.0,0.0,0.0,0.0,0.0,0.0,0.0,0.0,0.0,0.0,0.0,0.0,0.0,0.0,0.0,0.0,0.0,0.0,0.0,0.0,0.0,0.0,0.0,0.0,0.0,0.0,0.0,0.0,0.0,0.0,0.0,0.0,0.0,0.0,0.0,0.0,0.0,0.0,0.0,0.0,0.0,0.0,0.0,0.0,0.0,0.0,0.0,0.0,0.0,0.0,0.0,0.0,0.0,0.0,0.0,0.0,0.0,0.0,0.0,0.0,0.0,0.0,0.0,0.0,0.0,0.0,0.0,0.0,0.0,0.0,0.0,0.0,0.0,0.0,0.0,0.0,0.0,0.0,0.0,0.0,0.0,0.0,0.0,0.0,0.0,0.0,0.0,0.0,0.0,-0.7555,-0.8886,-1.0042,-1.1432,-1.2927,0.0,0.0,0.0,0.0,0.0,0.0,0.0,0.0,0.0,0.0,0.0,0.0,0.0,0.0,0.0,0.0,0.0,0.0,0.0,0.0,0.0,0.0,0.0,0.0,0.0,0.0,0.0,0.0,0.0,0.0,0.0,0.0,0.0,0.0,0.0,0.0,0.0,0.0,0.0,0.0,0.0,0.0,0.0,0.0,0.0,0.0,0.0,0.0,0.0,0.0,0.0,0.0,0.0,0.0,0.0,0.0,0.0,0.0,0.0,0.0,0.0,0.0,0.0,0.0,0.0,0.0,0.0,0.0,0.0,0.0,0.0,0.0,0.0,0.0,0.0,0.0,0.0,0.0,0.0,0.0,0.0,0.0,0.0,0.0,0.0,0.0,0.0,0.0,0.0,0.0,0.0,0.0,0.0,0.0,0.0,0.0,0.0,0.0,0.0,0.0,0.0,0.0,0.0,0.0,0.0,0.0,0.0,0.0,0.0,0.0,0.0,0.0,-0.84,-1.0189,-1.2478,0.0,0.0,0.0,0.0,0.0,0.0,0.0,0.0,0.0,0.0,0.0,0.0,0.0,0.0,0.0,0.0,0.0,0.0,0.0,0.0,0.0,0.0,0.0,0.0,0.0,0.0,0.0,0.0,0.0,0.0,0.0,0.0,0.0,0.0,0.0,0.0,0.0,0.0,0.0,0.0,0.0,0.0,0.0,0.0,0.0,0.0,0.0,0.0,0.0,0.0,0.0,0.0,0.0,0.0,0.0,0.0,0.0,0.0,0.0,0.0,0.0,0.0,0.0,0.0,0.0,0.0,0.0,0.0,0.0,0.0,0.0,0.0,0.0,0.0,0.0,0.0,0.0,0.0,0.0,0.0,0.0,0.0,0.0,0.0,0.0,0.0,0.0,0.0,0.0,0.0,0.0,0.0,0.0,0.0,0.0,0.0,0.0,0.0,0.0,0.0,0.0,0.0,0.0,0.0,0.0,0.0,0.0,0.0,0.0,0.0,-0.3015,-0.4314,-0.567,0.0,-1.1012,0.0,0.0,0.0,0.0,0.0,0.0,0.0,0.0,0.0,0.0,0.0,0.0,0.0,0.0,0.0,0.0,0.0,0.0,0.0,0.0,0.0,0.0,0.0,0.0,0.0,0.0,0.0,0.0,0.0,0.0,0.0,0.0,0.0,0.0,0.0,0.0,0.0,0.0,0.0,0.0,0.0,0.0,0.0,0.0,0.0,0.0,0.0,0.0,0.0,0.0,0.0,0.0,0.0,0.0,0.0,0.0,0.0,0.0,0.0,0.0,0.0,0.0,0.0,0.0,0.0,0.0,0.0,0.0,0.0,0.0,0.0,0.0,0.0,0.0,0.0,0.0,0.0,0.0,0.0,0.0,0.0,0.0,0.0,0.0,0.0,0.0,0.0,0.0,0.0,0.0,0.0,0.0,0.0,0.0,0.0,0.0,0.0,0.0,0.0,0.0,0.0,0.0,0.0,0.0,0.0,0.0,0.0,0.0,0.0,0.0,-0.1455,-0.2764,-0.5394,-0.8146,0.0,0.0,0.0,0.0,0.0,0.0,0.0,0.0,0.0,0.0,0.0,0.0,0.0,0.0,0.0,0.0,0.0,0.0,0.0,0.0,0.0,0.0,0.0,0.0,0.0,0.0,0.0,0.0,0.0,0.0,0.0,0.0,0.0,0.0,0.0,0.0,0.0,0.0,0.0,0.0,0.0,0.0,0.0,0.0,0.0,0.0,0.0,0.0,0.0,0.0,0.0,0.0,0.0,0.0,0.0,0.0,0.0,0.0,0.0,0.0,0.0,0.0,0.0,0.0,0.0,0.0,0.0,0.0,0.0,0.0,0.0,0.0,0.0,0.0,0.0,0.0,0.0,0.0,0.0,0.0,0.0,0.0,0.0,0.0,0.0,0.0,0.0,0.0,0.0,0.0,0.0,0.0,0.0,0.0,0.0,0.0,0.0,0.0,0.0,0.0,0.0,0.0,0.0,0.0,0.0,0.0,0.0,0.0,0.0,0.0,0.0553,-0.0452,-0.2511,-0.5021,-0.7853,-1.0992,0.0,0.0,0.0,0.0,0.0,0.0,0.0,0.0,0.0,0.0,0.0,0.0,0.0,0.0,0.0,0.0,0.0,0.0,0.0,0.0,0.0,0.0,0.0,0.0,0.0,0.0,0.0,0.0,0.0,0.0,0.0,0.0,0.0,0.0,0.0,0.0,0.0,0.0,0.0,0.0,0.0,0.0,0.0,0.0,0.0,0.0,0.0,0.0,0.0,0.0,0.0,0.0,0.0,0.0,0.0,0.0,0.0,0.0,0.0,0.0,0.0,0.0,0.0,0.0,0.0,0.0,0.0,0.0,0.0,0.0,0.0,0.0,0.0,0.0,0.0,0.0,0.0,0.0,0.0,0.0,0.0,0.0,0.0,0.0,0.0,0.0,0.0,0.0,0.0,0.0,0.0,0.0,0.0,0.0,0.0,0.0,0.0,0.0,0.0,0.0,0.0,0.0,0.0,0.0,0.0,0.0,0.0,0.0,0.1711,0.1912,0.005,-0.3663,-0.4059,-0.632,0.0,0.0,0.0,0.0,0.0,0.0,0.0,0.0,0.0,0.0,0.0,0.0,0.0,0.0,0.0,0.0,0.0,0.0,0.0,0.0,0.0,0.0,0.0,0.0,0.0,0.0,0.0,0.0,0.0,0.0,0.0,0.0,0.0,0.0,0.0,0.0,0.0,0.0,0.0,0.0,0.0,0.0,0.0,0.0,0.0,0.0,0.0,0.0,0.0,0.0,0.0,0.0,0.0,0.0,0.0,0.0,0.0,0.0,0.0,0.0,0.0,0.0,0.0,0.0,0.0,0.0,0.0,0.0,0.0,0.0,0.0,0.0,0.0,0.0,0.0,0.0,0.0,0.0,0.0,0.0,0.0,0.0,0.0,0.0,0.0,0.0,0.0,0.0,0.0,0.0,0.0,0.0,0.0,0.0,0.0,0.0,0.0,0.0,0.0,0.0,0.0,0.0,0.0,0.0,0.0,0.0,0.0,0.0,0.0,0.1759,0.2013,0.0503,-0.2561,-0.3387,-0.5648,0.0,0.0,0.0,0.0,0.0,0.0,0.0,0.0,0.0,0.0,0.0,0.0,0.0,0.0,0.0,0.0,0.0,0.0,0.0,0.0,0.0,0.0,0.0,0.0,0.0,0.0,0.0,0.0,0.0,0.0,0.0,0.0,0.0,0.0,0.0,0.0,0.0,0.0,0.0,0.0,0.0,0.0,0.0,0.0,0.0,0.0,0.0,0.0,0.0,0.0,0.0,0.0,0.0,0.0,0.0,0.0,0.0,0.0,0.0,0.0,0.0,0.0,0.0,0.0,0.0,0.0,0.0,0.0,0.0,0.0,0.0,0.0,0.0,0.0,0.0,0.0,0.0,0.0,0.0,0.0,0.0,0.0,0.0,0.0,0.0,0.0,0.0,0.0,0.0,0.0,0.0,0.0,0.0,0.0,0.0,0.0,0.0,0.0,0.0,0.0,0.0,0.0,0.0,0.0,0.0,0.0,0.0,0.0,0.0,0.2432,0.0,0.1224,-0.1877,-0.3118,-0.5389,0.0,0.0,0.0,0.0,0.0,0.0,0.0,0.0,0.0,0.0,0.0,0.0,0.0,0.0,0.0,0.0,0.0,0.0,0.0,0.0,0.0,0.0,0.0,0.0,0.0,0.0,0.0,0.0,0.0,0.0,0.0,0.0,0.0,0.0,0.0,0.0,0.0,0.0,0.0,0.0,0.0,0.0,0.0,0.0,0.0,0.0,0.0,0.0,0.0,0.0,0.0,0.0,0.0,0.0,0.0,0.0,0.0,0.0,0.0,0.0,0.0,0.0,0.0,0.0,0.0,0.0,0.0,0.0,0.0,0.0,0.0,0.0,0.0,0.0,0.0,0.0,0.0,0.0,0.0,0.0,0.0,0.0,0.0,0.0,0.0,0.0,0.0,0.0,0.0,0.0,0.0,0.0,0.0,0.0,0.0,0.0,0.0,0.0,0.0,0.0,0.0,0.0,0.0,0.0,0.0,0.0,0.0,0.0,-0.129,0.3657,0.4041,0.2097,-0.1812,-0.3246,-0.5549,0.0,0.0,0.0,0.0,0.0,0.0,0.0,0.0,0.0,0.0,0.0,0.0,0.0,0.0,0.0,0.0,0.0,0.0,0.0,0.0,0.0,0.0,0.0,0.0,0.0,0.0,0.0,0.0,0.0,0.0,0.0,0.0,0.0,0.0,0.0,0.0,0.0,0.0,0.0,0.0,0.0,0.0,0.0,0.0,0.0,0.0,0.0,0.0,0.0,0.0,0.0,0.0,0.0,0.0,0.0,0.0,0.0,0.0,0.0,0.0,0.0,0.0,0.0,0.0,0.0,0.0,0.0,0.0,0.0,0.0,0.0,0.0,0.0,0.0,0.0,0.0,0.0,0.0,0.0,0.0,0.0,0.0,0.0,0.0,0.0,0.0,0.0,0.0,0.0,0.0,0.0,0.0,0.0,0.0,0.0,0.0,0.0,0.0,0.0,0.0,0.0,0.0,0.0,0.0,0.0,0.0,0.0,0.0,0.0,0.2531,0.2651,0.1623,-0.058,-0.2725,-0.5153,0.0,0.0,0.0,0.0,0.0,0.0,0.0,0.0,0.0,0.0,0.0,0.0,0.0,0.0,0.0,0.0,0.0,0.0,0.0,0.0,0.0,0.0,0.0,0.0,0.0,0.0,0.0,0.0,0.0,0.0,0.0,0.0,0.0,0.0,0.0,0.0,0.0,0.0,0.0,0.0,0.0,0.0,0.0,0.0,0.0,0.0,0.0,0.0,0.0,0.0,0.0,0.0,0.0,0.0,0.0,0.0,0.0,0.0,0.0,0.0,0.0,0.0,0.0,0.0,0.0,0.0,0.0,0.0,0.0,0.0,0.0,0.0,0.0,0.0,0.0,0.0,0.0,0.0,0.0,0.0,0.0,0.0,0.0,0.0,0.0,0.0,0.0,0.0,0.0,0.0,0.0,0.0,0.0,0.0,0.0,0.0,0.0,0.0,0.0,0.0,0.0,0.0,0.0,0.0,0.0,0.0,0.0,0.0,0.0,0.1215,0.1807,0.1394,0.0054,-0.2529,-0.5006,-0.7435,0.0,0.0,0.0,0.0,0.0,0.0,0.0,0.0,0.0,0.0,0.0,0.0,0.0,0.0,0.0,0.0,0.0,0.0,0.0,0.0,0.0,0.0,0.0,0.0,0.0,0.0,0.0,0.0,0.0,0.0,0.0,0.0,0.0,0.0,0.0,0.0,0.0,0.0,0.0,0.0,0.0,0.0,0.0,0.0,0.0,0.0,0.0,0.0,0.0,0.0,0.0,0.0,0.0,0.0,0.0,0.0,0.0,0.0,0.0,0.0,0.0,0.0,0.0,0.0,0.0,0.0,0.0,0.0,0.0,0.0,0.0,0.0,0.0,0.0,0.0,0.0,0.0,0.0,0.0,0.0,0.0,0.0,0.0,0.0,0.0,0.0,0.0,0.0,0.0,0.0,0.0,0.0,0.0,0.0,0.0,0.0,0.0,0.0,0.0,0.0,0.0,0.0,0.0,0.0,0.0,0.0,0.0,0.0,0.0,0.1392,0.1346,-0.0169,-0.264,-0.5134,0.0,0.0,0.0,0.0,0.0,0.0,0.0,0.0,0.0,0.0,0.0,0.0,0.0,0.0,0.0,0.0,0.0,0.0,0.0,0.0,0.0,0.0,0.0,0.0,0.0,0.0,0.0,0.0,0.0,0.0,0.0,0.0,0.0,0.0,0.0,0.0,0.0,0.0,0.0,0.0,0.0,0.0,0.0,0.0,0.0,0.0,0.0,0.0,0.0,0.0,0.0,0.0,0.0,0.0,0.0,0.0,0.0,0.0,0.0,0.0,0.0,0.0,0.0,0.0,0.0,0.0,0.0,0.0,0.0,0.0,0.0,0.0,0.0,0.0,0.0,0.0,0.0,0.0,0.0,0.0,0.0,0.0,0.0,0.0,0.0,0.0,0.0,0.0,0.0,0.0,0.0,0.0,0.0,0.0,0.0,0.0,0.0,0.0,0.0,0.0,0.0,0.0,0.0,0.0,0.0,0.0,0.0,0.0,0.0,-0.0113,0.0346,-0.0174,-0.1797,-0.323,-0.5757,0.0,0.0,0.0,0.0,0.0,0.0,0.0,0.0,0.0,0.0,0.0,0.0,0.0,0.0,0.0,0.0,0.0,0.0,0.0,0.0,0.0,0.0,0.0,0.0,0.0,0.0,0.0,0.0,0.0,0.0,0.0,0.0,0.0,0.0,0.0,0.0,0.0,0.0,0.0,0.0,0.0,0.0,0.0,0.0,0.0,0.0,0.0,0.0,0.0,0.0,0.0,0.0,0.0,0.0,0.0,0.0,0.0,0.0,0.0,0.0,0.0,0.0,0.0,0.0,0.0,0.0,0.0,0.0,0.0,0.0,0.0,0.0,0.0,0.0,0.0,0.0,0.0,0.0,0.0,0.0,0.0,0.0,0.0,0.0,0.0,0.0,0.0,0.0,0.0,0.0,0.0,0.0,0.0,0.0,0.0,0.0,0.0,0.0,0.0,0.0,0.0,0.0,0.0,0.0,0.0,0.0,0.0,0.0,-0.2697,-0.0057,-0.0707,-0.1859,-0.3474,-0.3883,-0.6044,0.0,0.0,0.0,0.0,0.0,0.0,0.0,0.0,0.0,0.0,0.0,0.0,0.0,0.0,0.0,0.0,0.0,0.0,0.0,0.0,0.0,0.0,0.0,0.0,0.0,0.0,0.0,0.0,0.0,0.0,0.0,0.0,0.0,0.0,0.0,0.0,0.0,0.0,0.0,0.0,0.0,0.0,0.0,0.0,0.0,0.0,0.0,0.0,0.0,0.0,0.0,0.0,0.0,0.0,0.0,0.0,0.0,0.0,0.0,0.0,0.0,0.0,0.0,0.0,0.0,0.0,0.0,0.0,0.0,0.0,0.0,0.0,0.0,0.0,0.0,0.0,0.0,0.0,0.0,0.0,0.0,0.0,0.0,0.0,0.0,0.0,0.0,0.0,0.0,0.0,0.0,0.0,0.0,0.0,0.0,0.0,0.0,0.0,0.0,0.0,0.0,0.0,0.0,0.0,0.0,0.0,0.0,0.0,-0.2857,-0.0565,-0.1794,-0.3382,-0.5032,-0.4691,-0.6388,0.0,0.0,0.0,0.0,0.0,0.0,0.0,0.0,0.0,0.0,0.0,0.0,0.0,0.0,0.0,0.0,0.0,0.0,0.0,0.0,0.0,0.0,0.0,0.0,0.0,0.0,0.0,0.0,0.0,0.0,0.0,0.0,0.0,0.0,0.0,0.0,0.0,0.0,0.0,0.0,0.0,0.0,0.0,0.0,0.0,0.0,0.0,0.0,0.0,0.0,0.0,0.0,0.0,0.0,0.0,0.0,0.0,0.0,0.0,0.0,0.0,0.0,0.0,0.0,0.0,0.0,0.0,0.0,0.0,0.0,0.0,0.0,0.0,0.0,0.0,0.0,0.0,0.0,0.0,0.0,0.0,0.0,0.0,0.0,0.0,0.0,0.0,0.0,0.0,0.0,0.0,0.0,0.0,0.0,0.0,0.0,0.0,0.0,0.0,0.0,0.0,0.0,0.0,0.0,0.0,0.0,0.0,0.0,-0.393,-0.3844,-0.2976,-0.3933,-0.6808,-0.6318,-0.7962,0.0,0.0,0.0,0.0,0.0,0.0,0.0,0.0,0.0,0.0,0.0,0.0,0.0,0.0,0.0,0.0,0.0,0.0,0.0,0.0,0.0,0.0,0.0,0.0,0.0,0.0,0.0,0.0,0.0,0.0,0.0,0.0,0.0,0.0,0.0,0.0,0.0,0.0,0.0,0.0,0.0,0.0,0.0,0.0,0.0,0.0,0.0,0.0,-1.4119,0.0,0.0,0.0,0.0,0.0,0.0,0.0,0.0,0.0,0.0,0.0,0.0,0.0,0.0,0.0,0.0,0.0,0.0,0.0,0.0,0.0,0.0,0.0,0.0,0.0,0.0,0.0,0.0,0.0,0.0,0.0,0.0,0.0,0.0,0.0,0.0,0.0,0.0,0.0,0.0,0.0,0.0,0.0,0.0,0.0,0.0,0.0,0.0,0.0,0.0,0.0,0.0,0.0,0.0,0.0,0.0,0.0,0.0,0.0,-0.5072,-0.4923,-0.4857,-0.5647,-0.7347,-0.8421,-1.021,0.0,0.0,0.0,0.0,0.0,0.0,0.0,0.0,0.0,0.0,0.0,0.0,0.0,0.0,0.0,0.0,0.0,0.0,0.0,0.0,0.0,0.0,0.0,0.0,0.0,0.0,0.0,0.0,0.0,0.0,0.0,0.0,0.0,0.0,0.0,0.0,0.0,0.0,0.0,0.0,0.0,0.0,0.0,0.0,0.0,0.0,0.0,0.0,0.0,0.0,0.0,0.0,0.0,0.0,0.0,0.0,0.0,0.0,0.0,0.0,0.0,0.0,0.0,0.0,0.0,0.0,0.0,0.0,0.0,0.0,0.0,0.0,0.0,0.0,0.0,0.0,0.0,0.0,0.0,0.0,0.0,0.0,0.0,0.0,0.0,0.0,0.0,0.0,0.0,0.0,0.0,0.0,0.0,0.0,0.0,0.0,0.0,0.0,0.0,0.0,0.0,0.0,0.0,0.0,0.0,0.0,0.0,-0.7943,-0.6254,-0.5722,-0.6781,-0.7543,-0.7787,-1.0351,-1.2133,-1.2788,0.0,0.0,0.0,0.0,0.0,0.0,0.0,0.0,0.0,0.0,0.0,0.0,0.0,0.0,0.0,0.0,0.0,0.0,0.0,0.0,0.0,0.0,0.0,0.0,0.0,0.0,0.0,0.0,0.0,0.0,0.0,0.0,0.0,0.0,0.0,0.0,0.0,0.0,-1.116,-0.5802,0.0,0.0,0.0,0.0,0.0,0.0,0.0,0.0,-1.3662,0.0,0.0,0.0,0.0,0.0,0.0,0.0,0.0,0.0,0.0,0.0,0.0,0.0,0.0,0.0,0.0,0.0,0.0,0.0,0.0,0.0,0.0,0.0,0.0,0.0,0.0,0.0,0.0,0.0,0.0,0.0,0.0,0.0,0.0,0.0,0.0,0.0,0.0,0.0,0.0,0.0,0.0,0.0,0.0,0.0,0.0,0.0,0.0,0.0,0.0,0.0,0.0,0.0,0.0,0.0,0.0,-1.2378,-0.8536,-0.7298,-0.8938,-0.7955,-0.8036,-0.9383,-1.0944,-1.21,-1.2852,0.0,0.0,0.0,0.0,0.0,0.0,0.0,0.0,0.0,0.0,0.0,0.0,0.0,0.0,0.0,0.0,0.0,0.0,0.0,0.0,0.0,0.0,0.0,0.0,0.0,0.0,0.0,0.0,0.0,0.0,0.0,0.0,0.0,0.0,0.0,0.0,0.0,0.0,0.0,-0.5898,-0.4095,0.0,0.0,0.0,0.0,0.0,0.0,0.0,0.0,-1.6163,0.0,0.0,0.0,0.0,0.0,0.0,0.0,0.0,0.0,0.0,0.0,0.0,0.0,0.0,0.0,0.0,0.0,0.0,0.0,0.0,0.0,0.0,0.0,0.0,0.0,0.0,0.0,0.0,0.0,0.0,0.0,0.0,0.0,0.0,0.0,0.0,0.0,0.0,0.0,0.0,0.0,0.0,0.0,0.0,0.0,0.0,0.0,0.0,0.0,0.0,0.0,0.0,0.0,0.0,0.0,-1.2621,-0.9584,-0.8538,-0.9738,-0.9019,-0.9441,-1.1012,-1.2173,-1.3149,0.0,0.0,0.0,0.0,0.0,0.0,0.0,0.0,0.0,0.0,0.0,0.0,0.0,0.0,0.0,0.0,0.0,0.0,0.0,0.0,0.0,0.0,0.0,0.0,0.0,0.0,0.0,0.0,0.0,0.0,0.0,0.0,0.0,0.0,0.0,0.0,0.0,0.0,0.0,0.0,-0.6514,-0.4822,-0.5404,0.0,0.0,0.0,0.0,0.0,0.0,-1.5662,-1.764,0.0,0.0,0.0,0.0,0.0,0.0,0.0,0.0,0.0,0.0,0.0,0.0,0.0,0.0,0.0,0.0,0.0,0.0,0.0,0.0,0.0,0.0,0.0,0.0,0.0,0.0,0.0,0.0,0.0,0.0,0.0,0.0,0.0,0.0,0.0,0.0,0.0,0.0,0.0,0.0,0.0,0.0,0.0,0.0,0.0,0.0,0.0,0.0,0.0,0.0,0.0,0.0,0.0,0.0,0.0,-1.2699,-1.0401,-0.9371,-0.9798,-1.0119,-1.0884,-1.2094,-1.3399,-1.443,0.0,0.0,0.0,0.0,0.0,0.0,0.0,0.0,0.0,0.0,0.0,0.0,0.0,0.0,0.0,0.0,0.0,0.0,0.0,0.0,0.0,0.0,0.0,0.0,0.0,0.0,0.0,0.0,0.0,0.0,0.0,0.0,0.0,0.0,0.0,0.0,0.0,0.0,0.0,0.0,0.0,-0.5881,-0.6621,-0.8029,0.0,0.0,0.0,0.0,-1.496,-1.7181,0.0,0.0,0.0,0.0,0.0,0.0,0.0,0.0,0.0,0.0,0.0,0.0,0.0,0.0,0.0,0.0,0.0,0.0,0.0,0.0,0.0,0.0,0.0,0.0,0.0,0.0,0.0,0.0,0.0,0.0,0.0,0.0,0.0,0.0,0.0,0.0,0.0,0.0,0.0,0.0,0.0,0.0,0.0,0.0,0.0,0.0,0.0,0.0,0.0,0.0,0.0,0.0,0.0,0.0,0.0,0.0,-1.2699,-1.0401,-0.9367,-0.9852,-1.1197,-1.1902,-1.1858,-1.421,-1.5238,0.0,0.0,0.0,0.0,0.0,0.0,0.0,0.0,0.0,0.0,0.0,0.0,0.0,0.0,0.0,0.0,0.0,0.0,0.0,0.0,0.0,0.0,0.0,0.0,0.0,0.0,0.0,0.0,0.0,0.0,0.0,0.0,0.0,0.0,0.0,0.0,0.0,0.0,0.0,0.0,0.0,-0.8353,-0.6927,-0.8929,-1.0641,0.0,0.0,-1.55,-1.5506,-1.829,0.0,0.0,0.0,0.0,0.0,0.0,0.0,0.0,0.0,0.0,0.0,0.0,0.0,0.0,0.0,0.0,0.0,0.0,0.0,0.0,0.0,0.0,0.0,0.0,0.0,0.0,0.0,0.0,0.0,0.0,0.0,0.0,0.0,0.0,0.0,0.0,0.0,0.0,0.0,0.0,0.0,0.0,0.0,0.0,0.0,0.0,0.0,0.0,0.0,0.0,0.0,0.0,0.0,0.0,0.0,-1.3224,-1.2646,-1.1173,-1.0528,-1.0773,-1.1431,-1.261,-1.4193,-1.485,-1.5493,0.0,0.0,0.0,0.0,0.0,0.0,0.0,0.0,0.0,0.0,0.0,0.0,0.0,0.0,0.0,0.0,0.0,0.0,0.0,0.0,0.0,0.0,0.0,0.0,0.0,0.0,0.0,0.0,0.0,0.0,0.0,0.0,0.0,0.0,0.0,0.0,0.0,0.0,0.0,0.0,0.0,0.0,-0.9412,-1.0962,0.0,0.0,0.0,-1.6666,-1.6514,0.0,0.0,0.0,0.0,0.0,0.0,0.0,0.0,0.0,0.0,0.0,0.0,0.0,0.0,0.0,0.0,0.0,0.0,0.0,0.0,0.0,0.0,0.0,0.0,0.0,0.0,0.0,0.0,0.0,0.0,0.0,0.0,0.0,0.0,0.0,0.0,0.0,0.0,0.0,0.0,0.0,0.0,0.0,0.0,0.0,0.0,0.0,0.0,0.0,0.0,0.0,0.0,0.0,0.0,0.0,0.0,0.0,-1.3157,-1.2279,-1.1911,-1.2043,-1.2452,-1.3727,-1.5925,-1.569,0.0,0.0,0.0,0.0,0.0,0.0,0.0,0.0,0.0,0.0,0.0,0.0,0.0,0.0,0.0,0.0,0.0,0.0,0.0,0.0,0.0,0.0,0.0,0.0,0.0,0.0,0.0,-1.9959,0.0,0.0,0.0,0.0,0.0,0.0,0.0,0.0,0.0,0.0,0.0,0.0,0.0,0.0,-1.0747,-1.1822,-1.2954,-1.4156,0.0,0.0,-1.7571,-1.7784,-2.0231,-2.1878,0.0,0.0,0.0,0.0,0.0,0.0,0.0,0.0,0.0,0.0,0.0,0.0,0.0,0.0,0.0,0.0,0.0,0.0,0.0,0.0,0.0,0.0,0.0,0.0,0.0,0.0,0.0,0.0,0.0,0.0,0.0,0.0,0.0,0.0,0.0,0.0,0.0,0.0,0.0,0.0,0.0,0.0,0.0,0.0,0.0,0.0,0.0,0.0,0.0,0.0,0.0,0.0,0.0,0.0,-1.429,-1.4624,-1.3811,-1.342,-1.3566,-1.5057,-1.5747,-1.5736,-1.681,-1.7058,0.0,0.0,0.0,0.0,0.0,0.0,0.0,0.0,0.0,0.0,0.0,0.0,0.0,0.0,0.0,0.0,0.0,0.0,0.0,0.0,0.0,0.0,0.0,0.0,0.0,0.0,0.0,0.0,0.0,0.0,0.0,0.0,0.0,0.0,0.0,0.0,0.0,0.0,0.0,0.0,0.0,-1.3353,-1.3182,-1.4385,-1.5361,0.0,-1.6573,-1.7719,-1.9199,-2.1244,-2.2649,-2.2646,0.0,0.0,0.0,0.0,0.0,0.0,0.0,0.0,0.0,0.0,0.0,0.0,0.0,0.0,0.0,0.0,0.0,0.0,0.0,0.0,0.0,0.0,0.0,0.0,0.0,0.0,0.0,0.0,0.0,0.0,0.0,0.0,0.0,0.0,0.0,0.0,0.0,0.0,0.0,0.0,0.0,0.0,0.0,0.0,0.0,0.0,0.0,0.0,0.0,0.0,0.0,0.0,0.0,-1.5072,-1.4369,-1.459,-1.4685,-1.4767,-1.5384,-1.6055,-1.6889,-1.7193,-1.7038,0.0,0.0,0.0,0.0,0.0,0.0,0.0,0.0,0.0,0.0,0.0,0.0,0.0,0.0,0.0,0.0,0.0,0.0,0.0,0.0,0.0,0.0,0.0,0.0,0.0,0.0,0.0,0.0,-1.7266,-1.8087,-1.8957,0.0,0.0,0.0,0.0,0.0,0.0,0.0,0.0,0.0,0.0,-1.3516,-1.4567,-1.5022,0.0,0.0,-1.8229,-1.9211,-1.9435,-2.1762,-2.3277,-2.2588,-2.3439,0.0,0.0,0.0,0.0,0.0,0.0,0.0,0.0,0.0,0.0,0.0,0.0,0.0,0.0,0.0,0.0,0.0,0.0,0.0,0.0,0.0,0.0,0.0,0.0,0.0,0.0,0.0,0.0,0.0,0.0,0.0,0.0,0.0,0.0,0.0,0.0,0.0,0.0,0.0,0.0,0.0,0.0,0.0,0.0,0.0,0.0,0.0,0.0,0.0,0.0,0.0,0.0,-1.568,-1.4771,-1.5606,-1.6068,-1.6062,-1.6062,-1.6552,-1.7575,-1.7388,-1.7018,0.0,0.0,0.0,0.0,0.0,0.0,0.0,0.0,0.0,0.0,0.0,0.0,0.0,0.0,0.0,0.0,0.0,0.0,0.0,0.0,0.0,0.0,0.0,0.0,0.0,0.0,0.0,0.0,-1.7604,-1.8973,-2.0208,0.0,0.0,0.0,0.0,0.0,0.0,0.0,0.0,0.0,0.0,-1.4656,-1.5887,-1.5905,-1.6389,-1.8027,-1.9049,-1.9793,-2.0214,-2.2155,-2.3408,-2.293,0.0,0.0,0.0,0.0,0.0,0.0,0.0,0.0,0.0,0.0,0.0,0.0,0.0,0.0,0.0,0.0,0.0,0.0,0.0,0.0,0.0,0.0,0.0,0.0,0.0,0.0,0.0,-1.5859,0.0,0.0,-1.7725,0.0,0.0,0.0,0.0,0.0,0.0,0.0,0.0,0.0,0.0,0.0,0.0,0.0,0.0,0.0,0.0,0.0,0.0,0.0,0.0,0.0,0.0,-1.5937,-1.6217,-1.7025,-1.7529,-1.7529,-1.7529,-1.7529,-1.7582,-1.7575,-1.7213,-1.639,0.0,0.0,0.0,0.0,0.0,0.0,0.0,0.0,0.0,0.0,0.0,0.0,0.0,0.0,0.0,0.0,0.0,0.0,0.0,0.0,0.0,0.0,0.0,0.0,0.0,0.0,-1.7359,-1.8618,-1.9938,0.0,0.0,0.0,0.0,0.0,0.0,0.0,0.0,0.0,-1.6233,-1.697,-1.7409,-1.7239,-1.7206,-1.7609,-1.884,-1.8557,-1.9152,-2.1877,-2.2422,-2.2867,0.0,0.0,0.0,0.0,0.0,0.0,0.0,0.0,0.0,0.0,0.0,0.0,0.0,0.0,0.0,0.0,0.0,0.0,0.0,0.0,0.0,0.0,0.0,0.0,0.0,0.0,0.0,-1.5718,-1.5578,0.0,0.0,0.0,0.0,0.0,0.0,0.0,0.0,0.0,0.0,0.0,-1.6126,-1.6126,0.0,0.0,0.0,0.0,0.0,0.0,0.0,0.0,0.0,0.0,0.0,0.0,-1.5831,-1.6019,-1.7034,-1.7589,-1.7589,-1.7589,-1.7589,-1.7589,-1.7589,-1.7476,-1.7232,0.0,0.0,0.0,0.0,0.0,0.0,0.0,0.0,0.0,0.0,0.0,0.0,0.0,0.0,0.0,0.0,0.0,0.0,0.0,0.0,0.0,0.0,0.0,0.0,0.0,-1.7493,0.0,0.0,0.0,0.0,0.0,0.0,0.0,0.0,0.0,0.0,0.0,-1.7603,-1.8982,-1.9151,-1.9169,-1.9326,-1.9349,-1.9566,0.0,0.0,0.0,0.0,0.0,0.0,0.0,0.0,0.0,0.0,0.0,0.0,0.0,0.0,-2.3809,-2.3262,-2.369,-2.4258,-2.4514,0.0,0.0,0.0,0.0,0.0,0.0,0.0,0.0,0.0,0.0,0.0,0.0,0.0,0.0,-1.6025,-1.5838,-1.5638,0.0,0.0,0.0,0.0,0.0,0.0,0.0,0.0,-1.664,-1.6673,-1.663,-1.6623,-1.6522,0.0,-1.6186,-1.5785,0.0,0.0,0.0,0.0,0.0,0.0,0.0,0.0,-1.5638,-1.5678,-1.6734,-1.7275,-1.7275,-1.7275,-1.7275,-1.7275,-1.7181,-1.7251,-1.7542,-1.762,-1.7816,0.0,0.0,0.0,0.0,0.0,0.0,0.0,0.0,0.0,0.0,0.0,0.0,0.0,0.0,0.0,0.0,0.0,0.0,0.0,0.0,0.0,0.0,0.0,-1.7148,0.0,0.0,0.0,0.0,0.0,0.0,0.0,0.0,0.0,-1.8451,-1.8442,-1.902,-2.0447,-2.0423,-2.0253,-2.0237,0.0,0.0,0.0,0.0,0.0,0.0,0.0,-2.4062,-2.3598,-2.3701,-2.3896,-2.418,-2.4336,-2.4424,-2.4424,0.0,0.0,-2.373,-2.4615,-2.5538,-2.579,-2.6845,-2.789,-2.8574,-2.8495,-2.8433,0.0,0.0,0.0,0.0,0.0,0.0,0.0,0.0,-1.6693,-1.6673,0.0,-1.6079,0.0,0.0,0.0,0.0,0.0,-1.6567,0.0,0.0,-1.7288,-1.7474,-1.7219,-1.7213,-1.7206,-1.7192,-1.6867,-1.6573,-1.6246,-1.5712,0.0,0.0,0.0,0.0,0.0,0.0,-1.5398,-1.5451,-1.6286,-1.6714,-1.6714,-1.6714,-1.6714,-1.6707,-1.644,-1.6627,-1.7281,-1.8276,-1.871,-1.8661,-1.9431,0.0,0.0,0.0,0.0,0.0,0.0,0.0,0.0,0.0,0.0,0.0,0.0,0.0,0.0,0.0,0.0,0.0,0.0,0.0,0.0,-1.7139,0.0,0.0,0.0,0.0,0.0,0.0,0.0,0.0,0.0,0.0,-1.9242,-1.9762,-2.0298,-2.0695,0.0,0.0,0.0,0.0,-2.0874,-2.1347,-2.1382,-2.1874,-2.3003,-2.3564,-2.3955,-2.4336,0.0,0.0,-2.5096,-2.4736,-2.4482,-2.4519,-2.4955,-2.5045,-2.4707,-2.5649,-2.6483,-2.6594,-2.7613,-2.8646,-2.961,-2.9941,-3.0175,-0.9971,0.0,0.0,0.0,0.0,-1.5969,-1.6627,-1.6707,-1.6707,-1.6587,-1.6386,-1.6226,0.0,0.0,0.0,0.0,0.0,0.0,-1.682,-1.7079,-1.7253,-1.7393,-1.7514,-1.7507,-1.7462,-1.7507,-1.7368,-1.7074,-1.6587,-1.642,-1.5818,-1.4888,0.0,0.0,0.0,0.0,-1.5498,-1.5732,-1.6359,-1.6707,-1.6707,-1.6707,-1.6707,-1.6707,-1.642,-1.7172,-1.9071,-1.8909,-1.9471,-2.0852,-2.0256,0.0,0.0,0.0,0.0,0.0,0.0,0.0,0.0,0.0,0.0,0.0,0.0,0.0,0.0,0.0,0.0,0.0,0.0,0.0,-1.735,-1.7819,-1.836,0.0,0.0,0.0,0.0,0.0,0.0,0.0,0.0,0.0,-2.1506,-2.1383,-2.1683,0.0,0.0,-2.2433,-2.2201,-2.2572,-2.3035,-2.3467,-2.3513,0.0,-2.4417,-2.4365,-2.4277,-2.4394,-2.4775,-2.5059,-2.5059,-2.5234,-2.5628,-2.6478,-2.68,-2.7103,-2.785,-2.8254,-2.8778,-2.9655,-3.0783,-3.17,-3.2043,-3.1843,-3.1563,-0.9258,-0.9918,-1.126,-1.2625,-1.4019,-1.542,-1.6425,-1.7061,-1.7054,-1.6954,-1.678,-1.6667,-1.6453,-1.6179,-1.6246,0.0,0.0,0.0,-1.7092,-1.7373,-1.7253,-1.7293,-1.7395,-1.7288,-1.7235,-1.7241,-1.7241,-1.7054,-1.67,-1.6587,-1.6119,-1.5324,0.0,0.0,-1.471,-1.5164,-1.5484,-1.5671,-1.6119,-1.631,-1.6359,-1.6359,-1.6359,-1.6353,-1.6186,-1.7032,-1.8933,-1.9034,-1.9798,-2.1344,-2.096,-2.0719,0.0,0.0,0.0,0.0,0.0,0.0,0.0,0.0,0.0,0.0,0.0,-2.2566,-2.1672,0.0,0.0,0.0,-1.9127,-1.8347,-1.8128,-1.8477,0.0,0.0,0.0,0.0,0.0,0.0,0.0,-2.1494,-2.209,-2.251,-2.2477,-2.2385,-2.2678,-2.368,-2.3555,-2.3296,-2.312,0.0,-2.4072,-2.416,-2.417,-2.4258,-2.4512,-2.4336,-2.4219,-2.4348,-2.4629,-2.4795,-2.4814,-2.5049,-2.5433,-2.6168,-2.6718,-2.7391,-2.8599,-2.9138,-2.9821,-3.0983,-3.2,-3.2687,-3.2729,-3.2277,-3.1876,-0.8937,-0.8978,-1.0074,-1.1429,-1.2951,-1.4275,-1.5783,-1.7252,-1.7364,-1.7417,-1.7404,-1.7295,-1.7021,-1.6727,-1.6536,0.0,-1.7199,-1.7199,-1.734,-1.7528,-1.73,-1.7166,-1.7152,-1.6834,-1.6707,-1.6707,-1.6707,-1.6693,-1.6653,-1.64,-1.6106,-1.5792,-1.5524,-1.5251,-1.5042,-1.5224,-1.5371,-1.5404,-1.5665,-1.5758,-1.5832,-1.5825,-1.5825,-1.5832,-1.5879,-1.6527,-1.7831,-1.9001,-2.0007,-2.0866,-2.1474,-2.1279,-2.0088,0.0,0.0,0.0,0.0,0.0,0.0,0.0,0.0,0.0,0.0,0.0,0.0,0.0,0.0,-1.9272,-1.8991,0.0,-1.9498,-1.9093,0.0,0.0,0.0,-2.0732,-2.1142,-2.1631,-2.1875,-2.1836,0.0,0.0,-2.251,-2.2852,-2.3252,-2.3682,-2.374,-2.3594,-2.3149,-2.3828,-2.4228,-2.3867,-2.3828,-2.3848,-2.3965,-2.3926,-2.4124,-2.4575,-2.4552,-2.4628,-2.4664,-2.4802,-2.469,-2.496,-2.5673,-2.684,-2.7983,-2.9215,-3.0048,-3.1021,-3.1718,-3.2152,-3.2127,-3.1712,-3.1336,-0.8937,-0.8933,-0.9226,-1.0179,-1.1679,-1.3081,-1.3912,-1.44,-1.5476,-1.5902,-1.6009,-1.7022,-1.7367,-1.7099,-1.7201,-1.7221,-1.7199,-1.7199,-1.7233,-1.728,-1.6947,-1.6807,-1.68,-1.674,-1.6707,-1.6707,-1.6707,-1.6593,-1.6386,-1.6355,-1.6053,-1.5524,-1.5431,-1.5257,-1.5022,-1.5075,-1.5223,-1.5398,-1.5464,-1.5605,-1.5818,-1.5825,-1.5825,-1.5825,-1.6756,-1.7816,-1.9039,-2.026,-2.1399,-2.2417,-2.1787,-2.121,-2.0888,-1.9341,0.0,0.0,0.0,0.0,0.0,0.0,0.0,0.0,0.0,-2.0068,-1.8984,0.0,-1.8873,0.0,-1.9254,-1.9937,-2.0692,-2.0377,0.0,0.0,-2.1035,-2.0781,-2.1142,-2.1611,-2.1748,-2.1426,-2.2051,-2.251,-2.251,-2.2598,-2.2779,-2.3188,-2.3257,-2.3198,-2.312,-2.3584,-2.3916,-2.3838,-2.4043,-2.4258,-2.4219,-2.4268,-2.4588,-2.5562,-2.5698,-2.5673,-2.5708,-2.6385,-2.6952,-2.7085,-2.8015,-2.9187,-3.0216,-3.0828,-3.0972,-3.1286,-3.1497,-3.1587,-3.1574,-3.116,-3.0796,-0.8937,-0.8937,-0.8937,-0.9332,-1.0128,-1.1665,-1.2729,-1.3372,-1.4126,-1.4449,-1.4545,-1.5834,-1.6339,-1.6252,-1.6917,-1.7108,-1.7005,-1.7005,-1.7005,-1.6985,-1.6647,-1.652,-1.6513,-1.638,-1.6313,-1.6313,-1.6264,-1.6233,-1.6072,-1.5945,-1.5785,-1.5585,-1.5458,-1.5257,-1.5022,-1.5015,-1.4977,-1.5003,-1.5003,-1.515,-1.5431,-1.5444,-1.5562,-1.5861,-1.6532,-1.7167,-1.7711,-1.929,-2.0247,-2.0501,-2.0774,-2.0762,-2.0371,-1.9007,-1.8081,0.0,0.0,0.0,0.0,0.0,0.0,0.0,0.0,0.0,0.0,0.0,-1.8926,-1.89,-1.9697,-2.0322,-2.0625,-2.0596,-2.0879,-2.1523,-2.1152,-2.1035,-2.1484,-2.1748,-2.1787,-2.1553,-2.1943,-2.2236,-2.2236,-2.2393,-2.2598,-2.2789,-2.2984,-2.3101,-2.314,-2.3516,-2.3789,-2.3799,-2.3994,-2.4062,-2.3887,-2.4277,-2.4791,-2.5388,-2.5699,-2.5851,-2.5851,-2.6176,-2.644,-2.6587,-2.7625,-2.8781,-2.9462,-3.0229,-3.0683,-3.0683,-3.0683,-3.0771,-3.0984,-3.062,-3.0193,-0.8937,-0.8937,-0.8937,-0.8866,-0.8858,-1.0229,-1.1511,-1.27,-1.291,-1.3071,-1.3281,-1.432,-1.474,-1.4769,-1.5923,-1.6423,-1.639,-1.6547,-1.6653,-1.6633,-1.6353,-1.6219,-1.6206,-1.5952,-1.5825,-1.5825,-1.5744,-1.5772,-1.5765,-1.5484,-1.5451,-1.5591,-1.5404,-1.5137,-1.4908,-1.4894,-1.4723,-1.4469,-1.4502,-1.4643,-1.4941,-1.4914,-1.5156,-1.564,-1.5832,-1.5868,-1.5801,-1.769,-1.8461,-1.7819,-1.9504,-2.0146,-1.9404,-1.8861,-1.8256,0.0,-1.7051,0.0,0.0,0.0,0.0,0.0,0.0,0.0,0.0,-1.9258,-1.9307,-1.9355,-2.0077,-2.0371,-2.0107,-2.042,-2.083,-2.126,-2.1229,-2.1346,-2.1748,-2.1807,-2.1807,-2.1807,-2.1855,-2.1894,-2.1914,-2.2217,-2.2432,-2.2653,-2.2932,-2.3206,-2.3325,-2.357,-2.3672,-2.3701,-2.3662,-2.3437,-2.3163,-2.3886,-2.4609,-2.4819,-2.5398,-2.5711,-2.5768,-2.5577,-2.531,-2.5317,-2.65,-2.7495,-2.7421,-2.8641,-2.9515,-2.9566,-2.9578,-2.9741,-3.0168,-3.0005,-2.9503,-0.8937,-0.8937,-0.8937,-0.8865,-0.8899,-0.9196,-0.9331,-0.9504,-1.0644,-1.1841,-1.2899,-1.3231,-1.32,-1.3031,-1.4476,-1.5044,-1.4838,-1.5891,-1.6402,-1.6346,-1.6052,-1.5864,-1.5905,-1.5804,-1.5825,-1.5812,-1.5591,-1.5478,-1.5471,-1.519,-1.495,-1.477,-1.471,-1.4543,-1.4262,0.0,0.0,0.0,-1.4402,-1.4549,-1.4596,-1.4369,-1.4307,-1.4458,-1.5391,0.0,-1.6976,-1.835,-1.9402,-1.9943,-2.0024,0.0,0.0,0.0,0.0,0.0,0.0,0.0,0.0,0.0,0.0,0.0,-1.7941,-1.802,-1.8682,-1.9082,-1.9424,-1.9766,-1.9941,-2.0303,-2.0878,-2.1015,-2.1279,-2.1689,-2.1445,-2.1229,-2.1307,-2.1317,-2.1317,-2.1327,-2.166,-2.1916,-2.1855,-2.1973,-2.2304,-2.2961,-2.3216,-2.3624,-2.4371,-2.3757,-2.3276,-2.3198,-2.3022,-2.2617,-2.2178,-2.3043,-2.4113,-2.4766,-2.5737,-2.6285,-2.635,-2.6973,-2.7038,-2.6363,-2.7147,-2.7916,-2.7916,-2.8237,-2.8499,-2.8436,-2.8448,-2.8586,-2.9088,-2.9126,-2.8938,-0.8937,0.0,-0.8937,-0.8838,0.0,-0.877,-0.8693,-0.8545,-0.9431,-1.0191,-1.084,-1.1356,-1.1508,-1.1367,-1.2696,-1.3516,-1.3872,-1.4479,-1.5173,-1.5832,-1.5685,-1.5691,-1.5818,-1.5685,-1.5618,-1.5605,-1.5317,-1.5184,-1.5164,-1.4883,-1.4743,-1.473,-1.4589,-1.4442,-1.4302,-1.4155,-1.4088,-1.4088,-1.4088,-1.4155,-1.4289,-1.4168,-1.426,-1.4592,-1.5025,0.0,0.0,0.0,0.0,0.0,0.0,0.0,0.0,0.0,0.0,-1.8018,-1.7812,-1.7695,-1.7686,-1.749,-1.7646,-1.8237,-1.832,-1.8531,-1.889,-1.9541,-2.0048,-2.0205,-2.0234,-2.042,-2.085,-2.0908,-2.0996,-2.1231,-2.1035,-2.0908,-2.0908,-2.0908,-2.0908,-2.0918,-2.1103,-2.124,-2.128,-2.19,-2.2431,-2.2979,-2.3623,-2.4215,-2.4585,-2.3882,-2.321,-2.3178,-2.2597,-2.2484,-2.3224,-2.3743,-2.4513,-2.5574,-2.6385,-2.6846,-2.6907,-2.7098,-2.7103,-2.6649,-2.7159,-2.7695,-2.772,-2.7908,-2.8109,-2.8109,-2.8109,-2.8059,-2.8172,-2.8335,-2.8324,-0.8937,-0.8937,-0.8937,-0.8811,-0.875,-0.8723,-0.8625,-0.8499,0.0,0.0,0.0,-0.9472,-0.9847,-0.9895,-1.0911,-1.1904,-1.2786,-1.3159,-1.3973,-1.5133,-1.5378,-1.5571,-1.5684,-1.5511,-1.5371,-1.5311,-1.5023,-1.4928,-1.4914,-1.4589,-1.4563,-1.4807,-1.4563,-1.4442,-1.4429,-1.4208,-1.4088,-1.4075,-1.3753,-1.372,-1.3995,-1.3955,-1.4221,-1.475,-1.4619,-1.4873,-1.5598,-1.6236,-1.6671,-1.6853,-1.7569,-1.8008,-1.8008,-1.8008,-1.8008,-1.8008,-1.8008,-1.8008,-1.8008,-1.8008,-1.813,-1.8471,-1.8926,-1.9209,-1.9277,-1.9969,-2.038,-2.038,-2.0439,-2.0488,-2.0498,-2.0566,-2.0615,-2.0615,-2.0615,-2.0615,-2.0615,-2.0615,-2.0635,-2.0605,-2.078,-2.0867,-2.0984,-2.2048,-2.2913,-2.3225,-2.4105,-2.484,-2.4747,-2.4139,-2.3604,-2.3469,-2.2978,-2.2947,-2.4115,-2.4745,-2.5322,-2.5932,-2.6638,-2.7143,-2.7102,-2.6801,-2.6524,-2.6518,-2.6889,-2.7128,-2.7168,-2.7457,-2.7808,-2.7821,-2.7808,-2.7682,-2.7318,-2.7482,-2.7632,-0.8881,-0.8937,-0.8937,-0.8871,-0.8844,-0.8764,-0.8625,-0.8542,-0.853,-0.8394,-0.814,-0.8431,-0.8494,-0.8364,-0.9641,-1.0347,-1.0635,-1.2779,-1.3886,-1.4166,-1.5238,-1.5611,-1.5458,-1.5418,-1.5271,-1.5062,-1.4723,-1.4583,-1.4549,-1.4289,-1.4175,-1.4202,-1.4168,-1.4155,-1.4148,-1.4102,-1.4088,-1.4082,-1.3746,-1.3626,-1.366,-1.346,-1.3393,-1.3491,-1.3995,-1.4696,-1.5581,-1.6236,-1.6957,-1.7759,-1.794,-1.8008,-1.8008,-1.8008,-1.8008,-1.8008,-1.8008,-1.8008,-1.8008,-1.8008,-1.8037,-1.8115,-1.8451,-1.8887,-1.9248,-1.9394,-1.9509,-1.9482,-1.9805,-2.0,-2.0029,-2.0332,-2.0586,-2.0615,-2.0615,-2.0615,-2.0615,-2.0615,-2.0605,-2.0683,-2.1336,-2.1773,-2.1897,-2.274,-2.3745,-2.4439,-2.4856,-2.5014,-2.5021,-2.4771,-2.4476,-2.4172,-2.3985,-2.3857,-2.4089,-2.4495,-2.5049,-2.5194,-2.6072,-2.6675,-2.6675,-2.6575,-2.6487,-2.6487,-2.66,-2.6637,-2.665,-2.6663,-2.6801,-2.6826,-2.6839,-2.6725,-2.665,-2.6798,-2.6798,-0.8156,-0.8871,-0.8849,-0.8815,-0.8747,-0.8652,-0.8503,-0.8374,-0.8367,-0.8296,-0.817,-0.815,-0.8106,-0.8035,-0.8585,-0.917,-0.9793,-1.092,-1.1831,-1.2601,-1.3151,-1.338,-1.3421,-1.3814,-1.3925,-1.3837,-1.4113,-1.4289,-1.4275,-1.4148,-1.4088,-1.4088,-1.4088,-1.4088,-1.4075,-1.3928,-1.3848,-1.3848,-1.3673,-1.3606,-1.36,-1.3819,-1.3967,-1.3967,-1.4592,-1.5405,-1.633,-1.6493,-1.7035,-1.794,-1.8008,-1.8008,-1.8008,-1.8008,-1.8008,-1.8008,-1.8008,-1.8008,-1.8008,-1.8008,-1.8008,-1.8008,-1.8184,-1.8344,-1.8574,-1.9033,-1.9277,-1.9287,-1.9473,-1.9678,-1.9883,-2.0088,-2.0303,-2.0586,-2.0615,-2.0615,-2.0615,-2.0615,-2.0789,-2.1298,-2.1745,-2.2215,-2.2739,-2.3708,-2.442,-2.4969,-2.5406,-2.5769,-2.5769,-2.5744,-2.544,-2.4767,-2.4206,-2.4299,-2.4886,-2.4957,-2.5252,-2.5699,-2.6198,-2.6452,-2.6487,-2.6487,-2.6474,-2.6487,-2.6474,-2.6487,-2.6461,-2.6223,-2.6197,-2.6424,-2.6197,-2.6147,-2.6408,-2.6816,-2.7129,-0.7075,-0.8375,-0.8266,-0.8347,-0.8604,-0.8486,-0.835,-0.8225,-0.8218,-0.8218,-0.8201,-0.8039,-0.7988,-0.7978,-0.7864,-0.8344,-0.9091,-0.9397,-1.0085,-1.1052,-1.1295,-1.144,-1.1652,-1.24,-1.2768,-1.284,-1.3658,-1.4088,-1.4088,-1.4088,-1.4088,-1.4088,-1.4088,-1.4055,-1.3981,-1.3713,-1.3573,-1.3507,-1.344,-1.3433,-1.3534,-1.4008,-1.4265,-1.4328,-1.4924,-1.5745,-1.6603,-1.6643,-1.7035,-1.7896,-1.8008,-1.8008,-1.8008,-1.8008,-1.8008,-1.8008,-1.8008,-1.8008,-1.8008,-1.8008,-1.8008,-1.8008,-1.8008,-1.8008,-1.8057,-1.8603,-1.8994,-1.9004,-1.9072,-1.9277,-1.9531,-1.9717,-1.9912,-2.0273,-2.0321,-2.0331,-2.0391,-2.0449,-2.0767,-2.1524,-2.1886,-2.2355,-2.3368,-2.4373,-2.504,-2.5441,-2.6025,-2.6452,-2.6487,-2.6487,-2.6129,-2.5511,-2.466,-2.4826,-2.6198,-2.5873,-2.5734,-2.6418,-2.6487,-2.6411,-2.6348,-2.6273,-2.6197,-2.6097,-2.6072,-2.6034,-2.6059,-2.5749,-2.5624,-2.5908,-2.5661,-2.5615,-2.623,-2.6893,-2.7525,-0.5533,-0.6606,-0.6799,-0.7372,-0.8323,-0.8296,-0.8204,-0.8025,-0.8008,-0.8062,-0.8015,-0.7992,-0.7988,-0.7988,-0.7971,-0.8057,-0.8301,-0.9367,-0.9898,-1.0044,-1.1161,-1.1472,-1.1135,-1.2203,-1.2636,-1.2484,-1.3489,-1.4039,-1.4088,-1.4075,-1.4082,-1.4088,-1.4088,-1.3935,-1.3673,-1.3606,-1.3467,-1.3247,-1.3012,-1.2998,-1.3233,-1.3299,-1.3318,-1.3318,-1.3999,-1.4746,-1.585,-1.6307,-1.7035,-1.7896,-1.8008,-1.8008,-1.8008,-1.8008,-1.8008,-1.8008,-1.8008,-1.8008,-1.8008,-1.8008,-1.8008,-1.8008,-1.8008,-1.8008,-1.8008,-1.8086,-1.8144,-1.8223,-1.8461,-1.8685,-1.8744,-1.9111,-1.9385,-1.9492,-1.9519,-1.9551,-1.9893,-1.9971,-2.0155,-2.0644,-2.1587,-2.2392,-2.3531,-2.4529,-2.537,-2.6094,-2.6349,-2.6487,-2.6487,-2.6487,-2.6487,-2.6349,-2.6186,-2.6126,-2.6402,-2.6452,-2.6214,-2.6377,-2.6449,-2.621,-2.5871,-2.5661,-2.5573,-2.536,-2.5076,-2.5146,-2.5096,-2.4908,-2.4901,-2.5134,-2.5136,-2.5179,-2.5823,-2.662,-2.7243,-0.5179,-0.6531,-0.7261,-0.7756,-0.8093,-0.8133,-0.8099,-0.7992,-0.7988,-0.7988,-0.7988,-0.7988,-0.7988,-0.7988,-0.7988,-0.7941,-0.7958,-0.8432,-0.8638,-0.8528,-0.8983,-0.9079,-0.9034,-0.9965,-1.074,-1.1386,-1.2462,-1.3379,-1.3964,-1.3915,-1.3828,-1.3801,-1.3661,-1.3507,-1.3373,-1.3206,-1.3046,-1.2965,-1.2677,-1.2808,-1.34,-1.3497,-1.3783,-1.4394,-1.517,-1.6066,-1.6907,-1.7301,-1.7613,-1.7974,-1.8008,-1.8008,-1.8008,-1.8008,-1.8008,-1.8008,-1.8008,-1.8008,-1.8008,-1.8008,-1.8008,-1.8008,-1.8008,-1.8008,-1.8008,-1.8008,-1.8008,-1.8037,-1.8139,-1.8315,-1.8568,-1.8773,-1.8994,-1.9219,-1.9277,-1.9346,-1.9502,-1.9541,-1.9989,-2.123,-2.2081,-2.3089,-2.4448,-2.5409,-2.6,-2.6452,-2.6487,-2.6487,-2.6487,-2.6487,-2.6487,-2.6449,-2.6235,-2.5975,-2.5996,-2.5984,-2.5871,-2.5598,-2.5498,-2.5335,-2.5247,-2.5134,-2.5046,-2.4788,-2.4713,-2.4713,-2.4883,-2.4544,-2.4393,-2.4652,-2.5287,-2.567,-2.6401,-2.7193,-2.7737,-0.3914,-0.5407,-0.6973,-0.7787,-0.7992,-0.7988,-0.7988,-0.7988,-0.7988,-0.7988,-0.7985,-0.7948,-0.7928,-0.7928,-0.7928,-0.7847,-0.7763,-0.7753,-0.7675,-0.7536,-0.7421,-0.7392,-0.7434,-0.8432,-0.9492,-1.0611,-1.1766,-1.2942,-1.3922,-1.3746,-1.3606,-1.3567,-1.3313,-1.3166,-1.3066,-1.2884,-1.2744,-1.265,-1.2398,-1.2629,-1.3244,-1.3564,-1.4171,-1.5163,-1.586,-1.6645,-1.7535,-1.7498,-1.7586,-1.7832,-1.7832,-1.7842,-1.7842,-1.7949,-1.8008,-1.8008,-1.8008,-1.8008,-1.8008,-1.8008,-1.8008,-1.8008,-1.8008,-1.8008,-1.8008,-1.8008,-1.8008,-1.8008,-1.8008,-1.8164,-1.8364,-1.8432,-1.8613,-1.8896,-1.8936,-1.8975,-1.9092,-1.9111,-1.9742,-2.1331,-2.195,-2.3255,-2.4998,-2.5996,-2.6452,-2.6487,-2.6487,-2.6487,-2.6487,-2.6487,-2.6487,-2.6461,-2.6009,-2.5649,-2.5586,-2.546,-2.5209,-2.5008,-2.4876,-2.4825,-2.4637,-2.4594,-2.4418,-2.4136,-2.4299,-2.4318,-2.4205,-2.3978,-2.4364,-2.4869,-2.5411,-2.6004,-2.656,-2.7485,-2.8052,-0.0949,-0.2584,-0.5019,-0.6845,-0.7988,-0.7939,-0.7988,-0.7988,-0.7988,-0.7988,-0.7971,-0.784,-0.7824,-0.7821,-0.7811,-0.774,-0.7621,-0.7611,-0.7526,-0.7436,-0.7415,-0.7288,-0.72,-0.8321,-0.9492,-1.0611,-1.1595,-1.2845,-1.3964,-1.374,-1.3606,-1.356,-1.326,-1.3039,-1.2844,-1.2777,-1.2643,-1.2371,-1.2325,-1.2372,-1.2519,-1.3273,-1.4207,-1.5163,-1.5305,-1.5825,-1.6582,-1.6265,-1.6461,-1.7402,-1.7412,-1.7455,-1.7441,-1.7764,-1.7949,-1.7978,-1.7988,-1.7998,-1.8008,-1.8008,-1.8008,-1.8008,-1.8008,-1.8008,-1.8008,-1.8008,-1.8008,-1.8008,-1.8008,-1.8037,-1.8066,-1.8115,-1.8105,-1.8144,-1.8115,-1.8291,-1.8598,-1.8742,-1.9273,-2.0488,-2.141,-2.2764,-2.4767,-2.5896,-2.6355,-2.6436,-2.6461,-2.6487,-2.6474,-2.6474,-2.6424,-2.6298,-2.5959,-2.5561,-2.5523,-2.5134,-2.4838,-2.4562,-2.4374,-2.4512,-2.4268,-2.3979,-2.3715,-2.3502,-2.3471,-2.347,-2.3397,-2.3811,-2.4598,-2.5135,-2.546,-2.5967,-2.6784,-2.7163,-2.7663,-0.2046,-0.3348,-0.4331,-0.5472,-0.6681,-0.6734,-0.7185,-0.7988,-0.7988,-0.7988,-0.7961,-0.7875,-0.776,-0.7668,-0.7573,-0.7502,-0.7455,-0.7455,-0.737,-0.7234,-0.7224,-0.7146,-0.7146,-0.7577,-0.8794,-1.0438,-1.0999,-1.2118,-1.3616,-1.3467,-1.326,-1.3046,-1.2772,-1.2565,-1.2478,-1.2465,-1.2398,-1.2318,-1.2305,-1.2592,-1.3164,-1.3528,-1.445,-1.5965,-1.6105,-1.6424,-1.7078,-1.6968,-1.69,-1.695,-1.6931,-1.6963,-1.6982,-1.7077,-1.7291,-1.7568,-1.7617,-1.7725,-1.7959,-1.8008,-1.8008,-1.8008,-1.8008,-1.8008,-1.8008,-1.8008,-1.8008,-1.8008,-1.8008,-1.8008,-1.8008,-1.8008,-1.8008,-1.8008,-1.8008,-1.8066,-1.8296,-1.8702,-1.9445,-2.0587,-2.1955,-2.3589,-2.4569,-2.5485,-2.59,-2.5937,-2.6248,-2.6436,-2.6411,-2.6197,-2.5912,-2.5762,-2.5204,-2.4569,-2.4569,-2.4443,-2.4217,-2.3835,-2.3647,-2.3647,-2.3489,-2.3514,-2.3296,-2.3477,-2.3271,-2.3573,-2.3865,-2.4565,-2.5259,-2.5823,-2.6108,-2.639,-2.7074,-2.7372,-2.7628,-0.2113,-0.3265,-0.3364,-0.4368,-0.5929,-0.6029,-0.6781,-0.7939,-0.7988,-0.7965,-0.7897,-0.7807,-0.7665,-0.7516,-0.7366,-0.7295,-0.7299,-0.7295,-0.7241,-0.7105,-0.7095,-0.7095,-0.7095,-0.7095,-0.8141,-0.9947,-1.0744,-1.178,-1.2899,-1.3088,-1.2991,-1.2784,-1.2482,-1.2305,-1.2305,-1.2305,-1.2305,-1.2305,-1.2305,-1.2732,-1.3585,-1.3884,-1.4701,-1.6136,-1.6541,-1.6877,-1.7363,-1.7151,-1.6868,-1.6562,-1.6523,-1.6551,-1.6677,-1.6697,-1.6892,-1.7314,-1.7416,-1.7559,-1.793,-1.8008,-1.8008,-1.8008,-1.8008,-1.8008,-1.8008,-1.8008,-1.8008,-1.8008,-1.8008,-1.8076,-1.8361,-1.8428,-1.8303,-1.811,-1.8008,-1.8144,-1.8395,-1.8954,-1.9911,-2.1261,-2.2806,-2.4065,-2.4757,-2.5252,-2.5561,-2.5598,-2.5963,-2.6185,-2.6147,-2.5724,-2.5347,-2.5272,-2.4632,-2.4192,-2.4067,-2.3966,-2.3766,-2.3409,-2.3321,-2.317,-2.3125,-2.3125,-2.3245,-2.3395,-2.3708,-2.4105,-2.4681,-2.5342,-2.6,-2.6654,-2.6864,-2.7034,-2.7382,-2.7509,-2.7679,-0.0807,-0.1913,-0.2013,-0.3417,-0.5477,-0.5627,-0.6578,-0.7686,-0.7826,-0.775,-0.7779,-0.7668,-0.7522,-0.7373,-0.7238,-0.7109,-0.7119,-0.7122,-0.7112,-0.7095,-0.7095,-0.7095,-0.7095,-0.7095,-0.7753,-0.9139,-1.0937,-1.1869,-1.2011,-1.2537,-1.2804,-1.2723,-1.2438,-1.2305,-1.2305,-1.2305,-1.2305,-1.2305,-1.2305,-1.2732,-1.3628,-1.3995,-1.4677,-1.5726,-1.6202,-1.6667,-1.7275,-1.6584,-1.6183,-1.6105,-1.6095,-1.6269,-1.6521,-1.658,-1.6875,-1.7227,-1.7376,-1.7559,-1.7939,-1.8008,-1.8008,-1.8008,-1.8008,-1.8008,-1.8008,-1.8008,-1.8042,-1.8168,-1.8168,-1.8371,-1.9044,-1.9166,-1.8944,-1.8236,-1.8337,-1.862,-1.9133,-1.9365,-2.0183,-2.2168,-2.3397,-2.4142,-2.4675,-2.5084,-2.5322,-2.5385,-2.5523,-2.5665,-2.5681,-2.5232,-2.487,-2.4784,-2.4299,-2.3785,-2.3647,-2.3565,-2.3308,-2.312,-2.3145,-2.3095,-2.3185,-2.3228,-2.3619,-2.3855,-2.4496,-2.4922,-2.5536,-2.6203,-2.6642,-2.7178,-2.7357,-2.7433,-2.7509,-2.7585,-2.7585,-0.0252,-0.0605,-0.0605,-0.1611,-0.3167,-0.3267,-0.4522,-0.652,-0.6541,-0.697,-0.7626,-0.755,-0.746,-0.7346,-0.721,-0.7095,-0.7095,-0.7095,-0.7095,-0.7095,-0.7095,-0.7095,-0.7095,-0.7095,-0.7753,-0.907,-1.0932,-1.1811,-1.1773,-1.2369,-1.269,-1.2452,-1.2351,-1.2311,-1.2305,-1.2305,-1.2305,-1.2305,-1.2305,-1.2394,-1.2484,-1.2643,-1.3347,-1.4471,-1.4515,-1.5061,-1.6383,-1.6232,-1.5948,-1.5644,-1.5615,-1.5684,-1.5801,-1.582,-1.6141,-1.6826,-1.6902,-1.7243,-1.79,-1.8008,-1.8008,-1.8008,-1.8008,-1.8008,-1.8008,-1.8008,-1.8259,-1.8721,-1.8877,-1.9044,-1.9233,-1.9299,-1.9431,-1.9759,-1.9781,-1.9759,-2.016,-2.0719,-2.1612,-2.2671,-2.3206,-2.3459,-2.3715,-2.4199,-2.4665,-2.4747,-2.4942,-2.5261,-2.5562,-2.4969,-2.4538,-2.4821,-2.4109,-2.3599,-2.3583,-2.3653,-2.3629,-2.3424,-2.3365,-2.3365,-2.3395,-2.3679,-2.406,-2.4595,-2.5231,-2.581,-2.6416,-2.6852,-2.7255,-2.7423,-2.7484,-2.7534,-2.7585,-2.7585,-2.7585,0.0,0.0,0.0,-0.0803,-0.1943,-0.1992,-0.322,-0.5163,-0.5635,-0.6252,-0.6897,-0.727,-0.7385,-0.7275,-0.7136,-0.7098,-0.7095,-0.7095,-0.7095,-0.7095,-0.7095,-0.7095,-0.7095,-0.7095,-0.7401,-0.8313,-0.9798,-1.0664,-1.0866,-1.1638,-1.2135,-1.2257,-1.2305,-1.2305,-1.2305,-1.2305,-1.2305,-1.2291,-1.2228,-1.2368,-1.2719,-1.26,-1.3217,-1.4536,-1.4408,-1.4754,-1.576,-1.585,-1.5693,-1.5469,-1.542,-1.542,-1.542,-1.5449,-1.5712,-1.6328,-1.6648,-1.7019,-1.7686,-1.791,-1.8008,-1.8008,-1.8008,-1.8008,-1.8008,-1.8008,-1.8303,-1.8687,-1.8754,-1.8944,-1.9266,-1.9661,-2.015,-2.0974,-2.0398,-2.0494,-2.0942,-2.1834,-2.2445,-2.2982,-2.312,-2.3215,-2.3556,-2.4016,-2.4515,-2.4758,-2.5114,-2.5397,-2.5711,-2.5189,-2.5097,-2.5013,-2.4699,-2.4223,-2.373,-2.3763,-2.3897,-2.3796,-2.3679,-2.3738,-2.3767,-2.4352,-2.4809,-2.5508,-2.6176,-2.6587,-2.7137,-2.7265,-2.7549,-2.7585,-2.7585,-2.7585,-2.7585,-2.7585,-2.7585,0.0,0.0,0.0,-0.0649,-0.1717,-0.1764,-0.2571,-0.3954,-0.4926,-0.5445,-0.588,-0.6712,-0.7185,-0.7122,-0.7098,-0.7095,-0.7095,-0.7095,-0.7095,-0.7095,-0.7095,-0.7095,-0.7095,-0.7095,-0.717,-0.7327,-0.809,-0.8819,-0.9671,-1.0588,-1.1279,-1.2003,-1.2194,-1.2305,-1.2305,-1.2305,-1.2278,-1.2211,-1.2112,-1.2811,-1.3976,-1.3672,-1.405,-1.5642,-1.5308,-1.5195,-1.542,-1.5478,-1.5459,-1.542,-1.542,-1.542,-1.542,-1.542,-1.5625,-1.6124,-1.6484,-1.6824,-1.7314,-1.7695,-1.791,-1.79,-1.7969,-1.8042,-1.8168,-1.8269,-1.8462,-1.8787,-1.8731,-1.8854,-1.9617,-2.0204,-2.1005,-2.1522,-2.0846,-2.0751,-2.1784,-2.2628,-2.2975,-2.3078,-2.3168,-2.3424,-2.4131,-2.4652,-2.5277,-2.5708,-2.591,-2.5952,-2.6028,-2.5697,-2.5466,-2.5342,-2.5244,-2.485,-2.4366,-2.4452,-2.4582,-2.4525,-2.4439,-2.4553,-2.4496,-2.5035,-2.5687,-2.6375,-2.6826,-2.7265,-2.7534,-2.756,-2.7585,-2.7585,-2.7585,-2.7585,-2.76,-2.76,-2.756,0.0,0.0,0.0,-0.02,-0.0491,-0.0539,-0.1308,-0.247,-0.2758,-0.3979,-0.5286,-0.5801,-0.6379,-0.7054,-0.7095,-0.7095,-0.7095,-0.7095,-0.7095,-0.7095,-0.7095,-0.7095,-0.7095,-0.7095,-0.7041,-0.7102,-0.7708,-0.8301,-0.8582,-0.9997,-1.0901,-1.1205,-1.1996,-1.2305,-1.2305,-1.2291,-1.2178,-1.2119,-1.2551,-1.2682,-1.2861,-1.3316,-1.378,-1.4526,-1.4625,-1.4874,-1.5323,-1.542,-1.542,-1.542,-1.542,-1.542,-1.542,-1.542,-1.5596,-1.5997,-1.6202,-1.6436,-1.6875,-1.7324,-1.7539,-1.7578,-1.7861,-1.8269,-1.8911,-1.8944,-1.9562,-2.043,-2.0878,-2.0846,-2.1132,-2.1365,-2.169,-2.1846,-2.1803,-2.2082,-2.2598,-2.2944,-2.3095,-2.3155,-2.3632,-2.4031,-2.4476,-2.4944,-2.5463,-2.5716,-2.5828,-2.5953,-2.6242,-2.609,-2.581,-2.5906,-2.5811,-2.5439,-2.5189,-2.5273,-2.5287,-2.5287,-2.5384,-2.5659,-2.5618,-2.5783,-2.6469,-2.7163,-2.7163,-2.7509,-2.756,-2.7585,-2.7585,-2.7585,-2.7585,-2.7585,-2.76,-2.7575,-2.7534,0.0,0.0,0.0,0.0,0.0,0.0,-0.0474,-0.1162,-0.1697,-0.255,-0.3901,-0.4491,-0.5312,-0.6337,-0.6384,-0.665,-0.7051,-0.7095,-0.7095,-0.7095,-0.7095,-0.7095,-0.7095,-0.7095,-0.7024,-0.6926,-0.7351,-0.7711,-0.8207,-0.9507,-1.0314,-1.0938,-1.1805,-1.2208,-1.2104,-1.2111,-1.1984,-1.1885,-1.2384,-1.265,-1.2764,-1.3372,-1.4053,-1.4547,-1.4717,-1.4991,-1.5352,-1.542,-1.542,-1.542,-1.542,-1.542,-1.542,-1.542,-1.5527,-1.5831,-1.5977,-1.6222,-1.6494,-1.7012,-1.7363,-1.7461,-1.7773,-1.8206,-1.8697,-1.9044,-1.9911,-2.0451,-2.1112,-2.1333,-2.1428,-2.1647,-2.2032,-2.2414,-2.2823,-2.3095,-2.3095,-2.3065,-2.3275,-2.3573,-2.4002,-2.4624,-2.5077,-2.5605,-2.5973,-2.6283,-2.6527,-2.6686,-2.6855,-2.6496,-2.6269,-2.639,-2.6496,-2.6269,-2.6081,-2.6135,-2.6054,-2.6027,-2.6215,-2.6522,-2.6416,-2.6431,-2.6904,-2.7408,-2.7509,-2.7585,-2.7585,-2.7585,-2.7585,-2.7585,-2.7585,-2.7433,-2.7331,-2.7582,-2.7527,0.0,0.0,0.0,0.0,0.0,0.0,0.0,0.0,-0.1079,-0.166,-0.2194,-0.2995,-0.4061,-0.5225,-0.5492,-0.5983,-0.6871,-0.7007,-0.7095,-0.7095,-0.7095,-0.7095,-0.7095,-0.7095,-0.6997,-0.6888,-0.6753,-0.7126,-0.7818,-0.8755,-0.9755,-1.0602,-1.1663,-1.2108,-1.2013,-1.1926,-1.1697,-1.1567,-1.2193,-1.2763,-1.3248,-1.3926,-1.4654,-1.5137,-1.5264,-1.5294,-1.5381,-1.542,-1.542,-1.542,-1.542,-1.542,-1.542,-1.542,-1.543,-1.5488,-1.5782,-1.5987,-1.6163,-1.6768,-1.7285,-1.7334,-1.7815,-1.8236,-1.8687,-1.9398,-2.0042,-2.0483,-2.0494,-2.1132,-2.129,-2.171,-2.2279,-2.2854,-2.3065,-2.3095,-2.3185,-2.3215,-2.3514,-2.4234,-2.435,-2.5231,-2.5973,-2.6616,-2.6826,-2.6916,-2.7111,-2.7163,-2.728,-2.7137,-2.6941,-2.6916,-2.7034,-2.7163,-2.706,-2.7008,-2.6878,-2.6785,-2.7019,-2.7163,-2.6904,-2.693,-2.728,-2.7499,-2.7357,-2.7408,-2.7585,-2.7585,-2.7534,-2.7357,-2.7203,-2.6956,-2.6803,-2.7339,-2.7506,0.0,0.0,0.0,0.0,0.0,0.0,0.0,0.0,0.0,-0.0942,-0.1701,-0.2102,-0.286,-0.4016,-0.4776,-0.5581,-0.5847,-0.6514,-0.7095,-0.7095,-0.7095,-0.7095,-0.7088,-0.7075,-0.6943,-0.6761,-0.6722,-0.6762,-0.7133,-0.8464,-0.941,-0.9895,-1.1452,-1.2158,-1.1946,-1.1886,-1.1638,-1.1436,-1.2385,-1.2956,-1.3305,-1.4354,-1.5108,-1.5381,-1.542,-1.542,-1.542,-1.542,-1.542,-1.542,-1.542,-1.542,-1.542,-1.542,-1.542,-1.5439,-1.5488,-1.5576,-1.5713,-1.6369,-1.6875,-1.7101,-1.821,-1.9309,-2.0085,-2.0719,-2.151,-2.2082,-2.2463,-2.2414,-2.2402,-2.2671,-2.2884,-2.3035,-2.3095,-2.3335,-2.3855,-2.4002,-2.4089,-2.4509,-2.5315,-2.6135,-2.6469,-2.706,-2.7331,-2.756,-2.7585,-2.7585,-2.7585,-2.7585,-2.7433,-2.724,-2.7111,-2.7126,-2.6956,-2.6982,-2.71,-2.7137,-2.7433,-2.7357,-2.7086,-2.6774,-2.6852,-2.6956,-2.7008,-2.7111,-2.7163,-2.7433,-2.7357,-2.706,-2.6762,-2.6635,-2.663,-2.7142,-2.7676,0.0541,0.0,0.0,0.0,0.0,0.0,0.0,0.0,0.0,-0.0359,-0.0852,-0.0942,-0.1657,-0.2726,-0.3439,-0.3929,-0.4596,-0.5129,-0.572,-0.599,-0.6147,-0.6427,-0.6893,-0.6886,-0.6834,-0.6695,-0.662,-0.6701,-0.7351,-0.8428,-0.9561,-1.0083,-1.1576,-1.2072,-1.1946,-1.1879,-1.1591,-1.1349,-1.2161,-1.2853,-1.3219,-1.4145,-1.5108,-1.5323,-1.542,-1.542,-1.542,-1.542,-1.542,-1.542,-1.542,-1.541,-1.542,-1.542,-1.542,-1.542,-1.542,-1.542,-1.5635,-1.6327,-1.7083,-1.7295,-1.8649,-1.9661,-2.0576,-2.1396,-2.2002,-2.2506,-2.2811,-2.3095,-2.3095,-2.3095,-2.3095,-2.3095,-2.3095,-2.3442,-2.4076,-2.4308,-2.4639,-2.5175,-2.6,-2.6563,-2.7023,-2.7382,-2.7484,-2.7585,-2.7585,-2.7585,-2.7585,-2.756,-2.7484,-2.7306,-2.71,-2.6919,-2.6721,-2.68,-2.7126,-2.728,-2.7509,-2.7214,-2.68,-2.6443,-2.6095,-2.6229,-2.639,-2.639,-2.6455,-2.6759,-2.6837,-2.6322,-2.6042,-2.617,-2.6533,-2.7176,-2.7741,0.1301,0.0284,0.0093,0.0,0.0,0.0,0.0,0.0,0.0,0.0,0.0,0.0,-0.0718,-0.1433,-0.1879,-0.2547,-0.3388,-0.3724,-0.4349,-0.4868,-0.5258,-0.5678,-0.6244,-0.6539,-0.6675,-0.6651,-0.6552,-0.6907,-0.7795,-0.8808,-0.975,-1.0746,-1.1704,-1.1995,-1.1879,-1.1745,-1.1546,-1.1393,-1.2059,-1.2821,-1.3324,-1.4115,-1.4874,-1.5264,-1.542,-1.542,-1.542,-1.542,-1.542,-1.542,-1.542,-1.5468,-1.5526,-1.541,-1.5497,-1.5555,-1.5671,-1.5806,-1.6109,-1.6761,-1.7478,-1.7985,-1.8982,-1.9879,-2.0597,-2.1365,-2.197,-2.2353,-2.272,-2.3095,-2.3095,-2.3095,-2.3095,-2.3125,-2.3185,-2.3649,-2.425,-2.4538,-2.5342,-2.6068,-2.6575,-2.7034,-2.728,-2.756,-2.756,-2.7585,-2.7585,-2.7585,-2.7585,-2.7534,-2.7433,-2.7178,-2.6893,-2.6469,-2.6215,-2.6537,-2.6878,-2.7203,-2.7458,-2.7086,-2.6549,-2.6054,-2.5728,-2.566,-2.5701,-2.5673,-2.5783,-2.6081,-2.5959,-2.5453,-2.573,-2.6204,-2.6749,-2.7242,-2.7993,0.1702,0.1392,0.0417,0.0,0.0,0.0,0.0,0.0,0.0,0.0,0.0,0.0,0.0,-0.0538,-0.1433,-0.2412,-0.3101,-0.3199,-0.3512,-0.4036,-0.4582,-0.5183,-0.5685,-0.6265,-0.6515,-0.6508,-0.6541,-0.6963,-0.7936,-0.8803,-0.9895,-1.0785,-1.1612,-1.1844,-1.1603,-1.131,-1.1495,-1.1739,-1.2335,-1.304,-1.3881,-1.4628,-1.5138,-1.542,-1.542,-1.542,-1.542,-1.542,-1.542,-1.542,-1.542,-1.5729,-1.595,-1.569,-1.5777,-1.6151,-1.6236,-1.6368,-1.6839,-1.7421,-1.7725,-1.8061,-1.8924,-1.9834,-2.0621,-2.1408,-2.2094,-2.2689,-2.2914,-2.3095,-2.3095,-2.3095,-2.3125,-2.3245,-2.3679,-2.4337,-2.5077,-2.5618,-2.6027,-2.659,-2.7049,-2.7382,-2.7509,-2.7585,-2.7585,-2.7585,-2.7585,-2.7585,-2.7585,-2.7484,-2.7357,-2.7008,-2.659,-2.6122,-2.5673,-2.6149,-2.659,-2.6956,-2.7137,-2.689,-2.6349,-2.5728,-2.5398,-2.5259,-2.5063,-2.4922,-2.5119,-2.5356,-2.5273,-2.4937,-2.5602,-2.6385,-2.7074,-2.7755,-2.9055,0.2961,0.1773,0.1182,0.0543,0.0,0.0,0.0,0.0,0.0,0.0,0.0,0.0,0.0,0.0,-0.053,-0.1228,0.0,-0.176,-0.2329,-0.318,-0.3843,-0.4814,-0.5511,-0.6195,-0.6333,-0.6402,-0.6434,-0.7223,-0.8513,-0.9036,-1.0115,-1.1372,-1.1956,-1.2011,-1.1857,-1.1672,-1.1774,-1.2228,-1.2546,-1.3135,-1.4163,-1.4991,-1.5352,-1.542,-1.542,-1.542,-1.542,-1.542,-1.542,-1.542,-1.542,-1.5604,-1.5835,-1.6112,-1.6312,-1.6866,-1.6765,-1.6652,-1.7166,-1.7599,-1.8119,-1.8109,-1.9238,-2.0425,-2.1115,-2.1753,-2.2292,-2.2854,-2.3095,-2.3095,-2.3095,-2.3095,-2.3305,-2.3679,-2.4118,-2.4823,-2.5687,-2.6244,-2.6642,-2.693,-2.728,-2.7484,-2.7534,-2.7585,-2.7585,-2.7585,-2.7585,-2.7585,-2.7585,-2.7509,-2.7382,-2.7099,-2.6693,-2.6114,-2.5688,-2.5961,-2.6431,-2.68,-2.7034,-2.6811,-2.6455,-2.5973,-2.5315,-2.4809,-2.4582,-2.4452,-2.4192,-2.4352,-2.4381,-2.4549,-2.5295,-2.612,-2.727,-2.8355,-2.9652,0.4355,0.2505,0.1969,0.1255,0.0404,0.0,0.0,0.0,0.0,0.0,0.0,0.0,0.0,0.0,0.0,0.0,0.0,0.0,-0.1199,-0.2526,-0.3142,-0.4174,-0.5503,-0.6219,-0.6313,-0.6327,-0.6317,-0.7365,-0.8846,-0.9263,-1.043,-1.1549,-1.2161,-1.2164,-1.2004,-1.1737,-1.2158,-1.2356,-1.2415,-1.2908,-1.4054,-1.4962,-1.542,-1.542,-1.542,-1.542,-1.542,-1.542,-1.542,-1.542,-1.5439,-1.5575,-1.5882,-1.6386,-1.7107,-1.7731,-1.733,-1.7062,-1.7501,-1.8197,-1.885,-1.8783,-2.0008,-2.1035,-2.1773,-2.2063,-2.2476,-2.2975,-2.3095,-2.3095,-2.3095,-2.3095,-2.3395,-2.3813,-2.4279,-2.4936,-2.5824,-2.651,-2.7008,-2.7306,-2.7534,-2.7585,-2.7585,-2.7585,-2.7585,-2.7585,-2.7585,-2.7585,-2.7585,-2.7585,-2.7478,-2.7269,-2.6852,-2.6229,-2.5911,-2.5867,-2.6353,-2.68,-2.7086,-2.7137,-2.6785,-2.639,-2.5646,-2.4866,-2.4452,-2.4279,-2.3826,-2.3619,-2.4047,-2.4509,-2.506,-2.621,-2.7897,-2.9131,-3.0235,0.5235,0.4779,0.2727,0.17,0.1388,0.0494,0.0,0.0,0.0,0.0,0.0,0.0,0.0,0.0,0.0,0.0,0.0,0.0,0.0,-0.1933,-0.2739,-0.3773,-0.4965,-0.5906,-0.6219,-0.63,-0.63,-0.7476,-0.8879,-0.9296,-1.0228,-1.1637,-1.1986,-1.1837,-1.1717,-1.161,-1.1756,-1.2164,-1.2248,-1.2861,-1.4088,-1.4962,-1.5264,-1.542,-1.542,-1.542,-1.542,-1.542,-1.542,-1.542,-1.542,-1.6054,-1.7079,-1.7385,-1.8248,-1.8886,-1.8992,-1.8688,-1.9044,-1.9503,-1.9674,-1.9616,-2.0412,-2.1085,-2.1779,-2.2506,-2.2914,-2.3035,-2.3095,-2.3095,-2.3095,-2.3095,-2.3198,-2.3767,-2.4509,-2.5035,-2.5783,-2.6826,-2.7331,-2.7433,-2.756,-2.7585,-2.7585,-2.7585,-2.7585,-2.7585,-2.7585,-2.76,-2.766,-2.772,-2.7336,-2.7052,-2.7312,-2.6805,-2.6232,-2.6188,-2.6492,-2.6937,-2.7137,-2.7408,-2.7111,-2.6654,-2.5864,-2.5175,-2.4753,-2.4308,-2.3989,-2.393,-2.4076,-2.4726,-2.5628,-2.7229,-2.9066,-3.0063,-3.0807,0.5983,0.5314,0.4289,0.304,0.179,0.121,0.0628,0.0,0.0,0.0,0.0,0.0,0.0,0.0,0.0,0.0,0.0,0.0,0.0,-0.1633,-0.2634,-0.3671,-0.4766,-0.5747,-0.6257,-0.63,-0.649,-0.7437,-0.8689,-0.9465,-1.019,-1.1654,-1.1899,-1.185,-1.1623,-1.1469,-1.1852,-1.2299,-1.2662,-1.3166,-1.4001,-1.454,-1.4962,-1.5381,-1.542,-1.542,-1.542,-1.542,-1.542,-1.542,-1.542,-1.5642,-1.6443,-1.7024,-1.7825,-1.7715,-1.8474,-1.8768,-1.9151,-1.9889,-2.001,-2.0082,-2.058,-2.1538,-2.2002,-2.2598,-2.3095,-2.3095,-2.3095,-2.3095,-2.3095,-2.3095,-2.3395,-2.3914,-2.461,-2.5315,-2.5946,-2.689,-2.756,-2.7585,-2.7585,-2.7585,-2.7585,-2.7585,-2.7585,-2.7585,-2.7615,-2.763,-2.7824,-2.8064,-2.7477,-2.6694,-2.7159,-2.7555,-2.6933,-2.6595,-2.699,-2.7358,-2.7331,-2.7499,-2.7382,-2.689,-2.6242,-2.5755,-2.5398,-2.4909,-2.4339,-2.3985,-2.3894,-2.5055,-2.6368,-2.784,-2.9281,-3.0359,-3.0822,0.6605,0.5805,0.5536,0.4332,0.2638,0.2103,0.1295,0.0488,0.0,0.0,0.0,0.0,0.0,0.0,0.0,0.0,0.0,0.0,0.0,-0.1606,-0.2657,-0.3671,-0.4724,-0.5705,-0.63,-0.63,-0.63,-0.7437,-0.8727,-0.9502,-1.0185,-1.1842,-1.1906,-1.1893,-1.1826,-1.1625,-1.1703,-1.2162,-1.2797,-1.3378,-1.3952,-1.4387,-1.4883,-1.5235,-1.542,-1.542,-1.542,-1.542,-1.542,-1.541,-1.5671,-1.595,-1.6415,-1.7135,-1.7605,-1.7633,-1.814,-1.8418,-1.8924,-1.9564,-1.993,-2.0382,-2.0995,-2.2218,-2.231,-2.2823,-2.3095,-2.3095,-2.3095,-2.3095,-2.3095,-2.3095,-2.3275,-2.3826,-2.4538,-2.537,-2.6149,-2.6785,-2.7382,-2.7585,-2.7585,-2.7585,-2.7585,-2.7585,-2.7585,-2.7585,-2.7615,-2.766,-2.7989,-2.8349,-2.8334,-2.7711,-2.8238,-2.8751,-2.8307,-2.7875,-2.8021,-2.7732,-2.7703,-2.7604,-2.7518,-2.7386,-2.6982,-2.6522,-2.6028,-2.5536,-2.4965,-2.4332,-2.3892,-2.5643,-2.7201,-2.8023,-2.9204,-3.0236,-3.0421,0.7051,0.6918,0.5849,0.5314,0.4868,0.2727,0.1815,0.1567,0.0512,0.0,0.0,0.0,0.0,0.0,0.0,0.0,0.0,0.0,0.0,-0.1528,-0.262,-0.3591,-0.4608,-0.5512,-0.63,-0.63,-0.6338,-0.7442,-0.8841,-0.9334,-1.0347,-1.1654,-1.1891,-1.1913,-1.1839,-1.1637,-1.1463,-1.1913,-1.26,-1.3209,-1.3779,-1.4424,-1.5196,-1.5323,-1.542,-1.542,-1.542,-1.542,-1.541,-1.5429,-1.595,-1.6312,-1.6687,-1.7302,-1.7633,-1.7622,-1.7731,-1.7944,-1.8329,-1.9521,-2.0633,-2.1395,-2.2193,-2.2854,-2.2823,-2.2944,-2.3095,-2.3095,-2.3095,-2.3095,-2.3095,-2.3125,-2.3215,-2.3543,-2.4192,-2.4936,-2.5687,-2.6336,-2.689,-2.7408,-2.7585,-2.7585,-2.7585,-2.7585,-2.7585,-2.7585,-2.7615,-2.766,-2.8274,-2.8697,-2.9349,-2.945,-2.9887,-3.0132,-2.9971,-2.9605,-2.8863,-2.8282,-2.8043,-2.7884,-2.7709,-2.7563,-2.7372,-2.7088,-2.6547,-2.6085,-2.5674,-2.531,-2.5472,-2.6834,-2.795,-2.8555,-2.8685,-2.9242,-2.9028,0.7095,0.7051,0.6605,0.6027,0.5359,0.4421,0.3488,0.2594,0.1567,0.0617,0.0,0.0,0.0,0.0,0.0,0.0,0.0,0.0,0.0,0.0,-0.2189,-0.324,-0.4217,-0.5276,-0.63,-0.63,-0.6377,-0.7326,-0.9107,-0.9296,-1.0542,-1.1528,-1.1957,-1.1919,-1.1839,-1.1764,-1.1623,-1.1614,-1.2208,-1.2774,-1.3344,-1.409,-1.4894,-1.5381,-1.542,-1.542,-1.542,-1.542,-1.542,-1.5584,-1.6112,-1.6386,-1.6613,-1.7135,-1.7274,-1.7152,-1.7219,-1.7462,-1.7731,-1.9189,-2.0964,-2.2255,-2.2869,-2.3058,-2.2995,-2.307,-2.3095,-2.3095,-2.3058,-2.302,-2.3083,-2.3095,-2.3155,-2.3318,-2.3809,-2.4567,-2.5315,-2.6054,-2.6759,-2.7408,-2.756,-2.7585,-2.7585,-2.7585,-2.7585,-2.76,-2.7615,-2.7809,-2.8513,-2.9044,-2.9665,-3.0205,-3.0574,-3.0492,-3.0287,-2.9865,-2.9418,-2.8951,-2.8442,-2.8289,-2.8109,-2.769,-2.7508,-2.7291,-2.7229,-2.6905,-2.6666,-2.6466,-2.693,-2.7888,-2.8379,-2.8757,-2.8737,-2.842,-2.7964,0.7095,0.7095,0.7095,0.665,0.5888,0.5497,0.4763,0.3765,0.2637,0.1546,0.0471,0.0,0.0,0.0,0.0,0.0,0.0,0.0,0.0,0.0,-0.1955,-0.2929,-0.3826,-0.496,-0.63,-0.63,-0.6451,-0.7326,-0.9221,-0.9296,-1.0459,-1.1559,-1.2107,-1.2067,-1.2047,-1.2013,-1.185,-1.1764,-1.2054,-1.2681,-1.3278,-1.39,-1.4638,-1.5264,-1.542,-1.542,-1.542,-1.542,-1.542,-1.5642,-1.5979,-1.6169,-1.6301,-1.6443,-1.6557,-1.6482,-1.651,-1.7011,-1.7448,-1.8748,-2.0875,-2.2077,-2.2656,-2.2681,-2.2681,-2.2744,-2.2732,-2.2518,-2.2656,-2.2869,-2.292,-2.2945,-2.307,-2.3258,-2.3855,-2.4595,-2.5315,-2.6054,-2.6785,-2.7458,-2.7509,-2.76,-2.7764,-2.7839,-2.8109,-2.8214,-2.8483,-2.8708,-2.9205,-2.9645,-2.9935,-3.04,-3.0831,-3.0556,-3.025,-2.9887,-2.9624,-2.9594,-2.9131,-2.8831,-2.8562,-2.8214,-2.8184,-2.8393,-2.829,-2.7883,-2.7827,-2.7879,-2.8184,-2.8658,-2.8785,-2.8634,-2.8119,-2.774,-2.7354,0.7092,0.7095,0.7085,0.7037,0.6797,0.5673,0.5129,0.4848,0.3637,0.248,0.1374,0.0,0.0,0.0,0.0,0.0,0.0,0.0,0.0,0.0,-0.2072,-0.2929,-0.3865,-0.504,-0.63,-0.63,-0.6641,-0.7587,-0.9223,-0.9461,-1.0483,-1.1557,-1.2111,-1.2231,-1.2271,-1.2285,-1.2138,-1.1999,-1.2396,-1.3045,-1.3591,-1.4026,-1.4708,-1.5206,-1.542,-1.542,-1.542,-1.542,-1.542,-1.5526,-1.6122,-1.6322,-1.6293,-1.6425,-1.6482,-1.634,-1.651,-1.6853,-1.7331,-1.8827,-2.0185,-2.143,-2.2014,-2.2171,-2.187,-2.1983,-2.228,-2.2196,-2.228,-2.246,-2.2585,-2.2769,-2.2995,-2.3275,-2.3855,-2.4366,-2.5063,-2.5783,-2.6455,-2.7163,-2.7433,-2.763,-2.7869,-2.8139,-2.8532,-2.8861,-2.9277,-2.9621,-2.9864,-3.0105,-3.0261,-3.0531,-3.0919,-3.0832,-3.051,-3.0086,-2.9834,-2.9879,-2.9819,-2.952,-2.934,-2.9172,-2.9262,-2.9505,-2.9227,-2.8705,-2.9068,-2.9453,-2.9138,-2.8698,-2.8394,-2.8116,-2.7573,-2.7163,-2.686,0.7014,0.7078,0.6929,0.6909,0.6897,0.6513,0.6189,0.5847,0.4674,0.319,0.1804,0.1137,0.0589,0.0,0.0,0.0,0.0,0.0,0.0,0.0,-0.215,-0.289,-0.3787,-0.5079,-0.6257,-0.649,-0.6903,-0.7626,-0.898,-0.9422,-1.0561,-1.1693,-1.2091,-1.2285,-1.2298,-1.2285,-1.2151,-1.2089,-1.2556,-1.318,-1.3615,-1.4209,-1.4826,-1.541,-1.5449,-1.5449,-1.542,-1.542,-1.542,-1.5468,-1.6093,-1.6208,-1.6065,-1.6083,-1.6226,-1.6226,-1.6454,-1.7799,-1.8398,-1.9329,-1.9538,-2.0519,-2.1343,-2.1656,-2.1556,-2.2008,-2.2096,-2.2159,-2.2368,-2.2648,-2.2945,-2.2982,-2.3095,-2.3095,-2.3501,-2.3884,-2.4481,-2.5231,-2.5959,-2.668,-2.7111,-2.7716,-2.8098,-2.8427,-2.8831,-2.9265,-2.9666,-2.9726,-2.9909,-3.0223,-3.0436,-3.066,-3.0929,-3.0959,-3.0808,-3.0432,-3.0118,-3.0073,-3.0193,-3.0208,-3.0073,-2.9983,-2.9998,-3.0118,-2.9834,-2.9594,-2.9642,-2.9558,-2.8951,-2.8494,-2.8057,-2.7803,-2.7479,-2.7059,-2.665,0.6902,0.692,0.678,0.6722,0.677,0.6773,0.6624,0.6245,0.519,0.3867,0.2737,0.1997,0.1254,0.0628,0.0,0.0,0.0,0.0,0.0,0.0,-0.2112,-0.289,-0.3787,-0.5157,-0.6103,-0.6486,-0.6961,-0.7723,-0.879,-0.9498,-1.0551,-1.1569,-1.1964,-1.2091,-1.2191,-1.2271,-1.2231,-1.2283,-1.2749,-1.3416,-1.3933,-1.4554,-1.5189,-1.5552,-1.5644,-1.5596,-1.5469,-1.542,-1.542,-1.5584,-1.5729,-1.5892,-1.5719,-1.5719,-1.5864,-1.5911,-1.6771,-1.7961,-1.8498,-1.9291,-1.9494,-1.9737,-2.0659,-2.1051,-2.1142,-2.1518,-2.1694,-2.192,-2.251,-2.2732,-2.2857,-2.2895,-2.307,-2.307,-2.3454,-2.3826,-2.4205,-2.4951,-2.5728,-2.6416,-2.6922,-2.7598,-2.8252,-2.8757,-2.9131,-2.9564,-2.9998,-2.9983,-3.0056,-3.0447,-3.0746,-3.0898,-3.1032,-3.1077,-3.1047,-3.0823,-3.0552,-3.0313,-3.0417,-3.0597,-3.0793,-3.0746,-3.0731,-3.0717,-3.0597,-3.0337,-2.9882,-2.9477,-2.8831,-2.813,-2.7499,-2.7326,-2.7317,-2.6909,-2.6408,0.6736,0.6702,0.6688,0.6603,0.6535,0.6532,0.6436,0.6232,0.5237,0.4727,0.4494,0.2543,0.188,0.1488,0.0589,0.0,0.0,0.0,0.0,0.0,0.0,-0.2773,-0.3783,-0.5179,-0.6014,-0.6265,-0.6641,-0.7463,-0.8617,-0.921,-1.0225,-1.1336,-1.1617,-1.1797,-1.2031,-1.2184,-1.2307,-1.2652,-1.3042,-1.3816,-1.4547,-1.5068,-1.5516,-1.5811,-1.5889,-1.5674,-1.5518,-1.542,-1.542,-1.5449,-1.5468,-1.5439,-1.542,-1.542,-1.542,-1.5835,-1.6912,-1.7401,-1.814,-1.9059,-1.9305,-1.9422,-2.0069,-2.0171,-2.0489,-2.1104,-2.1481,-2.1669,-2.2071,-2.2297,-2.2472,-2.2732,-2.3007,-2.3272,-2.3679,-2.3972,-2.4192,-2.4809,-2.5591,-2.6203,-2.6616,-2.7213,-2.7935,-2.8517,-2.9041,-2.9549,-2.9909,-3.0148,-3.0313,-3.0956,-3.1167,-3.1212,-3.1286,-3.1241,-3.1107,-3.0776,-3.0567,-3.0193,-3.0627,-3.0838,-3.1122,-3.1316,-3.1197,-3.1152,-3.1361,-3.0997,-2.9956,-2.9217,-2.8661,-2.792,-2.7095,-2.6905,-2.6905,-2.6548,-2.6172,0.7285,0.6675,0.6478,0.646,0.6494,0.6405,0.6337,0.6264,0.5906,0.5473,0.4649,0.4103,0.3283,0.2618,0.1605,0.1214,0.0823,0.0,0.0,0.0,-0.1979,-0.2767,-0.3801,-0.4953,-0.5844,-0.6282,-0.6648,-0.7041,-0.7736,-0.8498,-0.9879,-1.1041,-1.1322,-1.1515,-1.171,-1.1891,-1.2461,-1.302,-1.3372,-1.417,-1.4926,-1.539,-1.5741,-1.5938,-1.586,-1.5615,-1.5469,-1.542,-1.542,-1.542,-1.542,-1.542,-1.542,-1.5449,-1.5536,-1.6151,-1.6754,-1.7191,-1.8194,-1.8806,-1.9162,-1.9397,-1.9895,-2.0198,-2.0501,-2.0978,-2.1506,-2.1694,-2.202,-2.241,-2.2569,-2.2794,-2.2982,-2.3225,-2.3501,-2.359,-2.3901,-2.4567,-2.5342,-2.6068,-2.6469,-2.7273,-2.7938,-2.8244,-2.8757,-2.9325,-2.9759,-2.9998,-3.0342,-3.0881,-3.1122,-3.1092,-3.1002,-3.0793,-3.0642,-3.0313,-3.0223,-3.0163,-3.0687,-3.1077,-3.1286,-3.1436,-3.1481,-3.1438,-3.138,-3.0584,-2.9479,-2.8862,-2.8363,-2.7438,-2.6645,-2.6555,-2.6436,-2.6214,-2.6101,0.7383,0.6579,0.6378,0.6351,0.6405,0.6337,0.63,0.63,0.63,0.5906,0.5315,0.4844,0.4334,0.3554,0.2268,0.152,0.1466,0.0,0.0,0.0,-0.1754,-0.2499,-0.3501,-0.4572,-0.543,-0.6,-0.641,-0.6675,-0.73,-0.8599,-1.0025,-1.0976,-1.1169,-1.1275,-1.1463,-1.17,-1.2319,-1.3019,-1.3668,-1.4393,-1.4917,-1.5453,-1.583,-1.593,-1.5722,-1.5596,-1.543,-1.542,-1.542,-1.542,-1.542,-1.542,-1.542,-1.5449,-1.5468,-1.6065,-1.6782,-1.7302,-1.8085,-1.8874,-1.9307,-1.9657,-1.9811,-2.0137,-2.0614,-2.1117,-2.1506,-2.1807,-2.2309,-2.2706,-2.2782,-2.2882,-2.2982,-2.31,-2.3113,-2.3125,-2.3679,-2.4337,-2.5091,-2.5892,-2.6674,-2.7487,-2.7989,-2.8169,-2.8397,-2.8861,-2.9205,-2.943,-2.9729,-3.0148,-3.0357,-3.0387,-3.0298,-3.0163,-3.0058,-3.0208,-3.0357,-3.0567,-3.1002,-3.1361,-3.1496,-3.1496,-3.1496,-3.1351,-3.1161,-3.0269,-2.9286,-2.862,-2.7986,-2.7095,-2.6349,-2.6164,-2.6198,-2.6217,-2.6236,0.7296,0.631,0.63,0.6303,0.63,0.63,0.63,0.63,0.63,0.6257,0.6022,0.5273,0.4874,0.4421,0.3102,0.2108,0.1667,0.0,0.0,-0.0036,-0.125,-0.2169,-0.3077,-0.3982,-0.5027,-0.5568,-0.5976,-0.6406,-0.7297,-0.8421,-0.9628,-1.0857,-1.0949,-1.1035,-1.1202,-1.1336,-1.1806,-1.2402,-1.304,-1.3653,-1.4551,-1.5267,-1.5891,-1.5925,-1.5867,-1.5821,-1.5518,-1.542,-1.542,-1.542,-1.542,-1.542,-1.542,-1.542,-1.5439,-1.5777,-1.6613,-1.7274,-1.7922,-1.8741,-1.9423,-1.9721,-1.9811,-2.0049,-2.0464,-2.0968,-2.1292,-2.1669,-2.2108,-2.2456,-2.2594,-2.2694,-2.2807,-2.2982,-2.3095,-2.3305,-2.3767,-2.461,-2.5646,-2.639,-2.6985,-2.7709,-2.775,-2.7914,-2.7989,-2.8382,-2.8577,-2.8771,-2.8996,-2.9355,-2.9789,-2.9876,-2.9861,-2.9924,-3.0283,-3.0462,-3.0703,-3.1002,-3.1331,-3.1481,-3.1496,-3.1496,-3.1496,-3.1307,-3.1073,-3.0147,-2.9223,-2.8505,-2.7736,-2.6871,-2.6245,-2.5838,-2.5804,-2.5804,-2.5581,0.7897,0.63,0.63,0.63,0.63,0.63,0.63,0.63,0.63,0.6293,0.6219,0.6012,0.5765,0.5342,0.4183,0.3226,0.232,0.132,0.0622,-0.0109,-0.1048,-0.1831,-0.2846,-0.365,-0.4658,-0.5319,-0.5775,-0.6247,-0.748,-0.8333,-0.9145,-1.0533,-1.072,-1.0788,-1.0862,-1.0989,-1.1342,-1.1687,-1.1981,-1.2858,-1.3948,-1.4614,-1.5175,-1.5292,-1.5351,-1.5576,-1.542,-1.542,-1.542,-1.542,-1.542,-1.542,-1.542,-1.542,-1.542,-1.5584,-1.634,-1.7079,-1.7759,-1.8581,-1.9281,-1.9695,-1.9811,-1.9886,-2.0137,-2.0616,-2.1043,-2.1433,-2.1807,-2.2184,-2.2456,-2.2569,-2.2723,-2.2907,-2.3125,-2.3514,-2.3897,-2.5035,-2.6203,-2.6852,-2.7408,-2.7549,-2.756,-2.763,-2.769,-2.7764,-2.7824,-2.7944,-2.8064,-2.8408,-2.946,-2.9639,-2.9651,-2.9789,-3.0193,-3.0477,-3.0614,-3.0943,-3.1256,-3.1391,-3.1496,-3.1496,-3.1467,-3.1248,-3.0851,-2.9827,-2.8939,-2.8266,-2.7471,-2.6679,-2.5921,-2.5441,-2.4838,-2.4696,-2.4361,0.8122,0.6374,0.63,0.63,0.63,0.63,0.63,0.6289,0.6228,0.6159,0.6156,0.6152,0.6105,0.5817,0.4845,0.3873,0.2829,0.1786,0.0813,-0.007,0.0,-0.1296,-0.2226,-0.3182,-0.3951,-0.4664,-0.5376,-0.6185,-0.7735,-0.8156,-0.8871,-1.0295,-1.0586,-1.0593,-1.0613,-1.0767,-1.0847,-1.0847,-1.1002,-1.1734,-1.2977,-1.3577,-1.4338,-1.4559,-1.5034,-1.5294,-1.542,-1.542,-1.542,-1.542,-1.542,-1.542,-1.542,-1.542,-1.542,-1.5719,-1.6358,-1.7163,-1.7759,-1.8516,-1.9281,-1.9669,-1.9798,-1.9861,-1.9861,-2.03,-2.0805,-2.1204,-2.1895,-2.228,-2.2681,-2.2869,-2.2907,-2.3058,-2.3275,-2.3531,-2.425,-2.5259,-2.6322,-2.724,-2.7575,-2.7575,-2.7585,-2.76,-2.7645,-2.7645,-2.7615,-2.766,-2.766,-2.775,-2.8742,-2.9355,-2.9295,-2.9502,-2.9834,-3.0118,-3.0357,-3.0731,-3.1227,-3.1361,-3.1496,-3.1511,-3.1453,-3.0999,-3.0329,-2.9348,-2.8524,-2.7855,-2.7317,-2.6624,-2.5734,-2.4933,-2.4301,-2.3551,-2.3036,0.8127,0.6412,0.63,0.63,0.63,0.63,0.6282,0.6207,0.6091,0.5979,0.5993,0.5939,0.5939,0.5555,0.4932,0.3881,0.2936,0.2121,0.1131,0.0,0.0,0.0,-0.1595,-0.2353,-0.3464,-0.4506,-0.5355,-0.6564,-0.7957,-0.8318,-0.9064,-1.0295,-1.0586,-1.0586,-1.0586,-1.0593,-1.0633,-1.0646,-1.0707,-1.0646,-1.14,-1.2223,-1.3246,-1.4072,-1.4785,-1.5225,-1.5352,-1.542,-1.542,-1.542,-1.542,-1.542,-1.542,-1.542,-1.5584,-1.5892,-1.6771,-1.744,-1.8043,-1.898,-1.9501,-1.9798,-1.9798,-1.9798,-1.9811,-2.0137,-2.0602,-2.1179,-2.1882,-2.2318,-2.2706,-2.3058,-2.3083,-2.3185,-2.3395,-2.3738,-2.461,-2.5495,-2.6455,-2.7458,-2.7585,-2.756,-2.7585,-2.7585,-2.7585,-2.7585,-2.7615,-2.7675,-2.775,-2.7884,-2.8397,-2.8771,-2.8831,-2.9086,-2.9759,-3.0133,-3.0537,-3.0911,-3.1391,-3.1451,-3.1496,-3.1496,-3.119,-3.0464,-2.9735,-2.8894,-2.8051,-2.733,-2.6816,-2.6349,-2.5252,-2.4192,-2.3331,-2.2553,-2.1745,0.8127,0.63,0.63,0.63,0.63,0.6296,0.6228,0.6084,0.6003,0.5929,0.584,0.5722,0.5674,0.5677,0.5514,0.4479,0.2829,0.2306,0.1288,0.0,0.0,0.0,-0.1308,-0.221,-0.3613,-0.4782,-0.5811,-0.6948,-0.7929,-0.8646,-0.9524,-1.0523,-1.0586,-1.0586,-1.0586,-1.0586,-1.0586,-1.0586,-1.0586,-1.0586,-1.08,-1.1604,-1.2382,-1.3221,-1.4004,-1.4688,-1.5167,-1.5381,-1.542,-1.542,-1.542,-1.542,-1.542,-1.5439,-1.5613,-1.6093,-1.6996,-1.7688,-1.8355,-1.9202,-1.9695,-1.9798,-1.9798,-1.9798,-1.9949,-2.0289,-2.0779,-2.1255,-2.182,-2.2067,-2.2456,-2.2945,-2.3125,-2.3305,-2.3484,-2.4163,-2.4964,-2.5701,-2.6549,-2.7163,-2.7549,-2.7575,-2.7585,-2.7585,-2.7585,-2.7585,-2.7585,-2.7675,-2.7989,-2.8094,-2.8128,-2.8427,-2.8622,-2.9714,-3.0778,-3.0733,-3.1017,-3.1331,-3.1496,-3.1496,-3.1496,-3.1496,-3.1058,-3.0147,-2.9411,-2.8652,-2.7802,-2.6918,-2.6242,-2.5652,-2.4516,-2.3452,-2.2553,-2.1773,-2.1155]}]]